Date StartTime U_cm/s V_cm/s W_cm/s Ustd_cm/s Vstd_cm/s Wstd_cm/s Uvar_(cm/s)^2 Vvar_(cm/s)^2 Wvar_(cm/s)^2 KE_(m/s)^2 TurbulentKE_(m/s)^2 HorizWindSpeed_cm/s FrictionSpeec_cm/s DragCoef SpeedOfSound_m/s SonicTemperature_C Pressure_mb 
10/31/2014  00:00:00      -18.291       48.979        7.071       36.247       38.659       22.804     1313.857     1494.550      520.027        0.306        0.166       52.283       13.799        0.070      340.331       14.278      857.616
10/31/2014  00:01:00      -42.657       42.671       -8.156       32.623       31.658       15.385     1064.267     1002.245      236.691        0.300        0.115       60.336       13.655        0.051      340.969       15.359      857.608
10/31/2014  00:02:00     -153.454      -21.404      -20.251       54.577       40.218       25.428     2978.597     1617.505      646.603        1.483        0.262      154.940       17.315        0.012      339.980       13.685      857.589
10/31/2014  00:03:00     -149.679       17.834      -12.548       54.169       41.564       30.815     2934.263     1727.533      949.537        1.424        0.281      150.738       25.335        0.028      340.144       13.962      857.570
10/31/2014  00:04:00     -111.772       45.168      -18.642       83.686       38.900       26.281     7003.307     1513.237      690.673        1.204        0.460      120.553       36.445        0.091      340.365       14.335      857.600
10/31/2014  00:05:00       22.589      -36.873       30.332       47.031       61.990       47.277     2211.896     3842.770     2235.071        0.554        0.414       43.242       33.960        0.617      340.182       14.026      857.648
10/31/2014  00:06:00       27.902      -80.919      -10.240       41.242       60.566       37.448     1700.894     3668.188     1402.346        0.710        0.339       85.595       21.499        0.063      340.309       14.240      857.667
10/31/2014  00:07:00       23.326      -16.542      -23.385       62.357       48.667       20.164     3888.378     2368.522      406.601        0.401        0.333       28.596       11.057        0.150      340.753       14.991      857.644
10/31/2014  00:08:00     -138.380        2.887      -14.361       39.724       36.357       20.914     1577.995     1321.817      437.407        1.135        0.167      138.411       22.169        0.026      340.403       14.398      857.607
10/31/2014  00:09:00     -106.716       37.804      -20.196       33.723       30.384       20.351     1137.238      923.215      414.174        0.785        0.124      113.215       13.413        0.014      340.589       14.714      857.597
10/31/2014  00:10:00      -81.295      112.776      -17.150       19.958       35.701       16.560      398.339     1274.556      274.238        1.078        0.097      139.023       17.493        0.016      340.967       15.354      857.575
10/31/2014  00:11:00      -66.488       36.667       -8.339       27.358       45.129       20.460      748.433     2036.586      418.596        0.452        0.160       75.929       16.179        0.045      340.780       15.036      857.571
10/31/2014  00:12:00      -83.912      -33.577       -7.094       57.748       27.310       22.302     3334.789      745.862      497.395        0.640        0.229       90.380       26.433        0.086      340.313       14.246      857.591
10/31/2014  00:13:00     -127.701      -34.263      -18.990       32.113       23.602       15.809     1031.218      557.067      249.926        0.984        0.092      132.218       16.056        0.015      340.250       14.139      857.611
10/31/2014  00:14:00      -63.135      -33.617       -3.624       25.220       20.267       14.899      636.052      410.764      221.981        0.320        0.063       71.527       10.786        0.023      340.056       13.813      857.642
10/31/2014  00:15:00     -116.382       -3.498      -11.904       21.974       14.966       17.061      482.847      223.979      291.089        0.735        0.050      116.434       14.857        0.016      340.059       13.817      857.645
10/31/2014  00:16:00      -80.980       11.262       -8.701       27.122       22.819       17.112      735.605      520.693      292.819        0.415        0.077       81.760       14.897        0.033      339.947       13.629      857.620
10/31/2014  00:17:00     -108.539       -5.954      -18.805       29.749       19.918       15.338      884.990      396.740      235.254        0.684        0.076      108.702       15.020        0.019      340.111       13.905      857.587
10/31/2014  00:18:00     -150.331      -41.776      -14.224       17.350       26.154       15.245      301.014      684.020      232.416        1.288        0.061      156.028        8.383        0.003      340.005       13.729      857.583
10/31/2014  00:19:00      -75.359      -45.562       -8.489       59.570       27.332       20.831     3548.546      747.055      433.946        0.628        0.236       88.061       24.866        0.080      340.005       13.728      857.586
10/31/2014  00:20:00      -87.215      -37.022       -9.500       56.770       44.768       18.383     3222.852     2004.165      337.932        0.732        0.278       94.748       18.925        0.040      340.005       13.728      857.583
10/31/2014  00:21:00     -150.860      -31.859       -9.130       48.260       36.659       27.133     2329.055     1343.858      736.224        1.413        0.220      154.187       29.260        0.036      339.740       13.281      857.551
10/31/2014  00:22:00     -112.904      -28.723        0.716       56.220       48.926       30.059     3160.685     2393.731      903.534        1.001        0.323      116.501       30.155        0.067      339.694       13.203      857.555
10/31/2014  00:23:00      -62.384      -17.474        4.701       58.796       47.552       27.818     3456.951     2261.219      773.861        0.535        0.325       64.785       31.106        0.231      339.622       13.080      857.557
10/31/2014  00:24:00     -164.190      -60.906       -7.131       66.657       55.554       30.836     4443.140     3086.203      950.852        1.960        0.424      175.122       33.110        0.036      339.667       13.156      857.543
10/31/2014  00:25:00     -145.983      -54.041       -5.637       52.630       47.435       30.261     2769.895     2250.048      915.705        1.510        0.297      155.665       24.346        0.024      339.924       13.590      857.531
10/31/2014  00:26:00     -194.565      -26.100      -19.223       36.045       56.297       22.420     1299.259     3169.309      502.663        2.194        0.249      196.308       14.937        0.006      340.120       13.920      857.531
10/31/2014  00:27:00     -194.952      -49.118      -11.031       62.659       57.026       31.284     3926.200     3251.948      978.707        2.435        0.408      201.045       30.385        0.023      339.956       13.642      857.520
10/31/2014  00:28:00     -173.641      -53.021       -5.412       60.607       51.356       33.098     3673.188     2637.457     1095.474        2.020        0.370      181.556       32.145        0.031      339.759       13.311      857.507
10/31/2014  00:29:00     -130.178      -20.320        6.431       60.667       40.601       31.791     3680.530     1648.422     1010.647        1.187        0.317      131.755       32.445        0.061      339.895       13.541      857.492
10/31/2014  00:30:00      -77.521      -18.106       -0.074       39.345       39.797       20.488     1548.018     1583.819      419.755        0.494        0.178       79.607       18.931        0.057      339.986       13.695      857.473
10/31/2014  00:31:00      -60.399      -22.808       -1.509       40.508       23.306       15.912     1640.931      543.161      253.178        0.330        0.122       64.562       12.867        0.040      339.953       13.641      857.453
10/31/2014  00:32:00      -27.569        0.832        0.328       19.618       13.170       13.622      384.867      173.436      185.568        0.075        0.037       27.582       13.488        0.239      340.008       13.734      857.439
10/31/2014  00:33:00      -33.095      -37.677        2.093       30.416       17.552       13.392      925.139      308.089      179.341        0.197        0.071       50.148       13.586        0.073      339.906       13.561      857.467
10/31/2014  00:34:00      -47.910      -37.314       -2.693       21.339       18.082       10.725      455.363      326.973      115.020        0.230        0.045       60.726        8.818        0.021      339.862       13.487      857.454
10/31/2014  00:35:00      -40.399      -13.900       -2.352       28.233       16.475       10.092      797.088      271.409      101.853        0.150        0.059       42.723       14.834        0.121      339.784       13.355      857.419
10/31/2014  00:36:00      -38.081       35.765       -8.050       18.967       36.591       12.384      359.755     1338.920      153.370        0.232        0.093       52.243       19.564        0.140      339.812       13.403      857.391
10/31/2014  00:37:00      -37.522       51.273       -6.800       31.858       39.531       18.990     1014.945     1562.681      360.620        0.351        0.147       63.536       17.609        0.077      339.903       13.555      857.389
10/31/2014  00:38:00       22.881      -11.897       11.350       22.022       17.841       16.224      484.990      318.298      263.213        0.093        0.053       25.789       13.099        0.258      339.780       13.349      857.420
10/31/2014  00:39:00       70.899       55.503       31.032       18.543       21.273       29.073      343.855      452.524      845.227        0.536        0.082       90.040       20.538        0.052      339.410       12.724      857.451
10/31/2014  00:40:00       54.265      129.943       81.311       39.312       29.606       30.798     1545.426      876.492      948.493        1.491        0.169      140.818       23.091        0.027      339.445       12.783      857.476
10/31/2014  00:41:00       88.286       36.102       39.278       79.239       64.090       34.514     6278.887     4107.533     1191.204        1.111        0.579       95.382       28.884        0.092      339.527       12.920      857.430
10/31/2014  00:42:00       65.798       46.494       21.826       58.825       27.895       25.144     3460.401      778.107      632.230        0.592        0.244       80.567       14.565        0.033      339.489       12.858      857.435
10/31/2014  00:43:00       14.131       61.192       -4.978       29.545       48.048       13.883      872.930     2308.655      192.729        0.367        0.169       62.803       14.905        0.056      339.705       13.221      857.413
10/31/2014  00:44:00        2.233      106.374       -2.503       27.825       69.466       21.542      774.257     4825.592      464.078        0.869        0.303      106.398       19.929        0.035      339.938       13.614      857.361
10/31/2014  00:45:00       13.975       89.046       -0.643       33.216       58.900       31.419     1103.318     3469.165      987.182        0.684        0.278       90.136       35.409        0.154      339.950       13.634      857.333
10/31/2014  00:46:00       75.532       54.371       -1.928       37.179       45.353       26.859     1382.255     2056.937      721.402        0.641        0.208       93.066       23.719        0.065      339.714       13.237      857.335
10/31/2014  00:47:00       87.801       62.887       11.501       31.736       26.124       19.362     1007.164      682.461      374.893        0.693        0.103      107.999       16.736        0.024      339.848       13.463      857.353
10/31/2014  00:48:00       60.216       50.496        5.902       34.942       25.698       22.532     1220.959      660.388      507.680        0.430        0.119       78.587       18.971        0.058      340.003       13.725      857.350
10/31/2014  00:49:00       27.589       54.219       -4.177       32.553       38.979       25.208     1059.717     1519.331      635.433        0.347        0.161       60.835       23.250        0.146      340.395       14.386      857.337
10/31/2014  00:50:00       47.921       91.244       -5.711       29.147       40.698       29.947      849.535     1656.330      896.794        0.703        0.170      103.063       26.517        0.066      340.349       14.307      857.336
10/31/2014  00:51:00       35.090       76.582       -7.229       30.160       54.531       30.512      909.655     2973.657      931.008        0.598        0.241       84.238       29.496        0.123      340.379       14.359      857.362
10/31/2014  00:52:00       21.514       65.667      -10.704       25.808       41.036       22.494      666.039     1683.961      505.999        0.387        0.143       69.101       17.922        0.067      340.391       14.381      857.409
10/31/2014  00:53:00       12.500       25.319       -5.689       19.180       19.403       12.784      367.888      376.494      163.426        0.087        0.045       28.237       11.273        0.159      340.395       14.385      857.446
10/31/2014  00:54:00      -48.342        1.233      -10.577       37.817       31.314       10.220     1430.098      980.571      104.448        0.248        0.126       48.357        8.223        0.029      340.385       14.368      857.461
10/31/2014  00:55:00     -113.493      -32.150      -18.788       19.112       16.356       14.464      365.278      267.522      209.195        0.755        0.042      117.959        7.154        0.004      339.797       13.378      857.462
10/31/2014  00:56:00     -132.173      -46.413       -6.309       43.022       41.432       24.619     1850.889     1716.585      606.115        1.192        0.209      140.085       18.689        0.018      339.642       13.115      857.451
10/31/2014  00:57:00     -131.374      -86.014        0.118       59.843       47.244       28.953     3581.184     2231.957      838.270        1.565        0.333      157.027       27.883        0.032      340.135       13.947      857.430
10/31/2014  00:58:00      -81.407        7.261      -11.888       35.854       20.248        9.458     1285.524      409.979       89.459        0.430        0.089       81.730       11.698        0.020      340.682       14.871      857.387
10/31/2014  00:59:00      -40.783       30.378      -10.015       42.487       31.171        9.078     1805.109      971.645       82.402        0.277        0.143       50.853       12.106        0.057      340.963       15.347      857.331
10/31/2014  01:00:00       34.751       38.047       36.075       48.158       34.647       26.198     2319.165     1200.396      686.329        0.408        0.210       51.528       34.557        0.450      341.481       16.225      857.275
10/31/2014  01:01:00      -42.472      -20.738       -2.771       27.627       23.261       15.635      763.234      541.084      244.440        0.189        0.077       47.265       14.395        0.093      340.515       14.589      857.257
10/31/2014  01:02:00        2.807      -58.481        0.601       25.857       30.340       14.297      668.610      920.525      204.415        0.261        0.090       58.548       10.580        0.033      341.133       15.633      857.238
10/31/2014  01:03:00       19.479       18.623       18.306       18.134       18.040       20.088      328.831      325.449      403.521        0.106        0.053       26.949       14.180        0.277      340.372       14.347      857.218
10/31/2014  01:04:00       12.862      -20.842       -4.700       18.687       23.401       14.286      349.189      547.593      204.091        0.086        0.055       24.491       10.960        0.200      340.748       14.983      857.216
10/31/2014  01:05:00       50.220      -24.882       -0.095       18.348       24.472       13.580      336.653      598.887      184.417        0.213        0.056       56.047        8.103        0.021      341.019       15.443      857.226
10/31/2014  01:06:00      -19.814       20.701       -7.251       47.342       14.280        7.900     2241.282      203.905       62.402        0.169        0.125       28.656        7.353        0.066      340.926       15.284      857.222
10/31/2014  01:07:00      -17.900       43.331      -10.138       40.544       28.617        8.001     1643.806      818.907       64.014        0.241        0.126       46.883        7.860        0.028      341.010       15.426      857.196
10/31/2014  01:08:00        9.953       63.598       -3.193       59.020       87.709       26.598     3483.395     7692.822      707.450        0.802        0.594       64.372       22.250        0.119      341.175       15.708      857.152
10/31/2014  01:09:00      -56.114      -59.001        1.008       67.286       57.428       43.591     4527.418     3298.032     1900.175        0.818        0.486       81.424       38.215        0.220      340.572       14.685      857.177
10/31/2014  01:10:00      -75.132      -74.271        3.207       40.959       40.356       23.887     1677.636     1628.638      570.605        0.752        0.194      105.645       21.083        0.040      341.037       15.470      857.181
10/31/2014  01:11:00      -88.133      -83.958        3.156       67.881       47.165       30.146     4607.809     2224.580      908.805        1.128        0.387      121.723       19.820        0.027      341.199       15.746      857.170
10/31/2014  01:12:00      -74.376      -74.963        0.606       32.263       33.081       18.723     1040.910     1094.330      350.549        0.682        0.124      105.599       17.992        0.029      341.502       16.259      857.171
10/31/2014  01:13:00      -94.160      -59.321        0.041       39.306       28.410       21.668     1544.958      807.144      469.518        0.760        0.141      111.288       18.606        0.028      341.295       15.908      857.176
10/31/2014  01:14:00      -17.155      -66.180        4.806       25.517       22.122       19.159      651.101      489.394      367.056        0.310        0.075       68.367       16.547        0.059      341.311       15.936      857.190
10/31/2014  01:15:00      -60.857      -72.719       -1.660       62.588       34.617       28.917     3917.248     1198.307      836.211        0.747        0.298       94.824       17.173        0.033      341.538       16.320      857.189
10/31/2014  01:16:00      -62.794      -57.977        7.964       41.747       38.117       24.070     1742.829     1452.927      579.357        0.557        0.189       85.466       17.819        0.043      341.492       16.244      857.194
10/31/2014  01:17:00      -62.091      -16.841        4.436       38.739       40.655       18.221     1500.742     1652.856      332.011        0.382        0.174       64.335       15.352        0.057      341.567       16.370      857.201
10/31/2014  01:18:00      -73.060      -69.021        2.866       47.953       41.349       27.365     2299.446     1709.761      748.826        0.743        0.238      100.507       28.892        0.083      341.504       16.261      857.214
10/31/2014  01:19:00      -63.013      -93.466       -0.930       38.261       28.449       24.881     1463.913      809.344      619.047        0.780        0.145      112.723       18.183        0.026      341.536       16.317      857.212
10/31/2014  01:20:00     -111.912      -80.477       -2.356       49.035       39.929       19.389     2404.480     1594.355      375.918        1.169        0.219      137.843       16.141        0.014      341.440       16.153      857.219
10/31/2014  01:21:00      -68.755     -124.486       -1.698       40.093       40.924       25.341     1607.472     1674.742      642.160        1.207        0.196      142.211       19.137        0.018      341.362       16.022      857.213
10/31/2014  01:22:00     -135.704     -106.225        1.422       71.278       43.981       38.202     5080.593     1934.307     1459.392        1.909        0.424      172.335       37.034        0.046      341.379       16.050      857.183
10/31/2014  01:23:00     -174.623     -125.903       -5.563       68.090       51.356       36.311     4636.206     2637.439     1318.468        2.748        0.430      215.278       28.533        0.018      341.555       16.347      857.144
10/31/2014  01:24:00     -115.784      -87.355       -5.396       67.245       59.350       26.153     4521.949     3522.464      684.005        1.490        0.436      145.041       25.032        0.030      341.499       16.255      857.115
10/31/2014  01:25:00     -128.583      -55.255        0.529       45.885       39.340       27.223     2105.432     1547.667      741.112        1.199        0.220      139.953       28.156        0.040      341.404       16.092      857.111
10/31/2014  01:26:00     -116.574      -44.002       -1.585       33.263       30.755       19.017     1106.410      945.872      361.645        0.897        0.121      124.603       17.760        0.020      341.320       15.952      857.111
10/31/2014  01:27:00      -96.212      -50.772        3.345       45.947       34.391       25.361     2111.161     1182.759      643.200        0.789        0.197      108.786       24.197        0.049      341.306       15.928      857.116
10/31/2014  01:28:00      -46.671      -74.352        3.817       36.032       25.403       20.078     1298.287      645.331      403.108        0.503        0.117       87.786       12.918        0.022      341.321       15.954      857.110
10/31/2014  01:29:00      -64.134      -87.227      -10.429       28.804       24.232       12.422      829.643      587.199      154.300        0.670        0.079      108.267        5.081        0.002      341.360       16.017      857.101
10/31/2014  01:30:00      -83.711      -36.818       -8.784       34.966       16.122       11.714     1222.608      259.928      137.220        0.503        0.081       91.450       14.452        0.025      341.200       15.749      857.071
10/31/2014  01:31:00      -85.734      -40.446       -7.390       19.616       26.570       14.937      384.793      705.965      223.105        0.518        0.066       94.796       10.234        0.012      341.112       15.598      857.056
10/31/2014  01:32:00      -69.029      -37.962        4.081       19.483       18.100       10.203      379.580      327.611      104.100        0.352        0.041       78.779        8.414        0.011      341.101       15.579      857.061
10/31/2014  01:33:00      -68.632      -38.607       -1.569       25.633       16.070        5.661      657.071      258.243       32.051        0.358        0.047       78.746        2.389        0.001      341.038       15.473      857.070
10/31/2014  01:34:00     -112.505      -46.840       -4.980       16.272       12.541        7.092      264.788      157.283       50.297        0.767        0.024      121.866        3.743        0.001      340.987       15.386      857.077
10/31/2014  01:35:00     -147.290      -72.088        0.399       46.714       26.498       18.358     2182.216      702.141      337.023        1.506        0.161      163.985       19.561        0.014      340.966       15.351      857.068
10/31/2014  01:36:00     -125.476      -41.280       -0.818       53.991       30.705       24.879     2915.056      942.778      618.987        1.096        0.224      132.092       28.691        0.047      341.196       15.742      857.054
10/31/2014  01:37:00     -131.866      -52.361        5.607       62.327       48.018       22.855     3884.686     2305.772      522.368        1.344        0.336      141.882       22.157        0.024      341.108       15.591      857.047
10/31/2014  01:38:00      -66.995      -14.913        7.073       52.759       34.826       29.567     2783.532     1212.824      874.188        0.481        0.244       68.635       27.260        0.158      341.138       15.643      857.049
10/31/2014  01:39:00     -126.054      -40.147       -3.530       39.905       28.497       15.247     1592.382      812.087      232.463        1.007        0.132      132.293       15.162        0.013      341.033       15.466      857.042
10/31/2014  01:40:00      -73.711      -14.994        6.682       38.016       34.429       21.093     1445.253     1185.363      444.911        0.439        0.154       75.220       22.407        0.089      340.941       15.309      857.044
10/31/2014  01:41:00      -74.633      -56.622       -2.152       30.641       25.119       16.974      938.866      630.948      288.130        0.532        0.093       93.681       14.751        0.025      341.060       15.512      857.057
10/31/2014  01:42:00      -76.686      -78.363       -2.498       29.254       23.480       12.768      855.777      551.287      163.025        0.680        0.079      109.643       11.770        0.012      341.250       15.832      857.066
10/31/2014  01:43:00      -39.871      -79.649        3.090       15.994       28.873       14.258      255.793      833.638      203.300        0.462        0.065       89.071        7.196        0.007      341.273       15.871      857.066
10/31/2014  01:44:00      -50.926      -30.257        4.678       41.022       30.773       19.402     1682.832      946.997      376.446        0.327        0.150       59.236       21.840        0.136      341.165       15.687      857.064
10/31/2014  01:45:00      -26.917       -0.310        3.182       37.302       24.546       19.806     1391.445      602.499      392.284        0.156        0.119       26.919       20.636        0.588      340.926       15.283      857.056
10/31/2014  01:46:00      -13.202      -40.288       -6.715       16.688       15.259       14.736      278.497      232.835      217.153        0.129        0.036       42.396        8.975        0.045      341.003       15.414      857.046
10/31/2014  01:47:00      -41.778     -100.168        4.732       32.691       41.678       30.914     1068.690     1737.092      955.702        0.778        0.188      108.531       20.382        0.035      341.280       15.882      857.035
10/31/2014  01:48:00      -27.516      -71.907        2.616       20.848       24.310       20.465      434.624      590.981      418.825        0.369        0.072       76.992       12.935        0.028      341.185       15.723      857.029
10/31/2014  01:49:00      -67.287      -71.948       -6.244       42.404       26.958       20.348     1798.125      726.727      414.030        0.634        0.147       98.509       20.042        0.041      341.342       15.988      857.021
10/31/2014  01:50:00      -44.866      -67.208       -2.765       21.779       23.596       17.762      474.313      556.789      315.477        0.394        0.067       80.807       15.072        0.035      341.378       16.048      857.003
10/31/2014  01:51:00       13.508      -70.782       -7.735       31.555       27.689       17.113      995.697      766.671      292.870        0.365        0.103       72.059       15.873        0.049      341.271       15.868      856.989
10/31/2014  01:52:00      101.839     -102.030       -9.496       54.901       48.536       31.564     3014.170     2355.780      996.264        1.362        0.318      144.157       25.483        0.031      341.226       15.791      857.004
10/31/2014  01:53:00       35.863      -75.462       -1.546       49.537       50.132       31.977     2453.940     2513.197     1022.525        0.649        0.299       83.550       33.662        0.162      341.213       15.769      856.984
10/31/2014  01:54:00      -91.465      -61.019       -1.577       37.937       47.378       23.142     1439.204     2244.670      535.533        0.815        0.211      109.951       16.213        0.022      340.650       14.816      856.968
10/31/2014  01:55:00      -85.338      -93.970        3.921       37.279       48.307       26.935     1389.722     2333.557      725.518        1.029        0.222      126.936       22.036        0.030      341.008       15.422      856.973
10/31/2014  01:56:00     -100.490      -79.949       -8.264       25.001       22.469       15.794      625.049      504.866      249.443        0.897        0.069      128.414       15.026        0.014      340.925       15.281      856.978
10/31/2014  01:57:00      -84.345     -101.881       -4.341       22.514       19.945       15.247      506.868      397.788      232.459        0.932        0.057      132.264       12.322        0.009      341.132       15.634      856.981
10/31/2014  01:58:00      -52.760      -84.845       -5.992       19.746       13.625       11.016      389.893      185.638      121.358        0.536        0.035       99.911        7.986        0.006      341.316       15.943      856.970
10/31/2014  01:59:00      -31.257      -48.225        2.303       22.545       18.945       21.520      508.288      358.896      463.102        0.232        0.067       57.468       16.316        0.081      341.295       15.909      856.953
10/31/2014  02:00:00      -38.382      -28.320       -3.560       10.251       15.586        9.670      105.078      242.922       93.512        0.136        0.022       47.699        8.796        0.034      341.468       16.201      856.921
10/31/2014  02:01:00       -9.587      -11.493        6.000       11.292       14.972        6.308      127.518      224.167       39.793        0.033        0.020       14.966        7.057        0.222      341.254       15.839      856.900
10/31/2014  02:02:00      -26.353      -32.908       -5.926       12.537        7.830        5.835      157.173       61.301       34.044        0.103        0.013       42.159        6.839        0.026      340.930       15.291      856.898
10/31/2014  02:03:00      -64.004      -19.228       -4.190       24.777       12.280        8.524      613.905      150.810       72.658        0.266        0.042       66.830       10.569        0.025      340.531       14.618      856.886
10/31/2014  02:04:00      -48.259      -10.280       -0.553       19.866       14.860       11.273      394.673      220.824      127.069        0.159        0.037       49.342        8.838        0.032      340.368       14.339      856.870
10/31/2014  02:05:00      -47.810       -6.534        4.774       29.966       19.604       13.638      897.990      384.308      186.003        0.191        0.073       48.254       14.521        0.091      340.416       14.420      856.865
10/31/2014  02:06:00       14.658      -11.438        1.050       14.500       11.825        9.453      210.252      139.826       89.366        0.039        0.022       18.593        6.960        0.140      340.444       14.467      856.867
10/31/2014  02:07:00       77.300       33.190        5.743       16.558       28.792       18.742      274.162      828.989      351.266        0.428        0.073       84.124       12.247        0.021      340.400       14.396      856.852
10/31/2014  02:08:00       70.622       53.321        5.324       32.614       20.940       17.380     1063.663      438.477      302.062        0.483        0.090       88.491       17.042        0.037      339.902       13.554      856.853
10/31/2014  02:09:00       37.114       51.301       -6.499       32.373       28.263       26.278     1048.003      798.822      690.553        0.329        0.127       63.318       19.652        0.096      340.063       13.825      856.867
10/31/2014  02:10:00       37.252      105.987      -14.808       17.171       15.790       16.252      294.835      249.315      264.137        0.682        0.040      112.343        7.493        0.004      340.282       14.194      856.866
10/31/2014  02:11:00       39.907       92.669      -13.780       18.264       21.795       18.057      333.579      475.006      326.070        0.575        0.057      100.897       13.589        0.018      340.526       14.606      856.852
10/31/2014  02:12:00       32.346       44.336       -9.787       11.324       21.615        9.783      128.230      467.226       95.717        0.190        0.035       54.881       11.872        0.047      340.619       14.765      856.844
10/31/2014  02:13:00        6.380       19.782       -4.574       18.089        5.884        3.840      327.225       34.626       14.748        0.041        0.019       20.786        4.743        0.052      340.797       15.065      856.842
10/31/2014  02:14:00      -53.105        3.248       -8.351       24.951       16.095        9.439      622.565      259.054       89.087        0.194        0.049       53.205       12.323        0.054      340.502       14.566      856.858
10/31/2014  02:15:00     -121.628      -16.553      -13.486       33.318       20.638       19.218     1110.058      425.928      369.344        0.858        0.095      122.750       19.065        0.024      339.759       13.313      856.862
10/31/2014  02:16:00      -94.183       20.740      -13.616       19.815       15.927        8.498      392.649      253.679       72.208        0.510        0.036       96.440        5.805        0.004      340.358       14.323      856.860
10/31/2014  02:17:00      -87.761       28.137      -11.904       17.016       16.133       11.382      289.538      260.273      129.544        0.466        0.034       92.161        7.812        0.007      340.626       14.776      856.842
10/31/2014  02:18:00      -65.469       48.521      -11.131       17.888       10.646        9.136      319.969      113.327       83.465        0.364        0.026       81.488        9.335        0.013      340.887       15.218      856.827
10/31/2014  02:19:00      -55.968       -1.157       -8.954       12.415       32.035        8.088      154.124     1026.244       65.408        0.223        0.062       55.980        4.757        0.007      340.429       14.446      856.814
10/31/2014  02:20:00      -83.128       24.391      -11.805        7.944        8.952        8.055       63.102       80.137       64.885        0.393        0.010       86.632        3.806        0.002      341.063       15.515      856.793
10/31/2014  02:21:00      -78.417       -9.918      -12.732       18.454       13.673       10.478      340.546      186.947      109.791        0.352        0.032       79.041        9.220        0.014      340.610       14.750      856.787
10/31/2014  02:22:00      -80.215       -5.874      -17.092       11.574       11.551        8.958      133.961      133.430       80.239        0.355        0.017       80.430        6.491        0.007      339.748       13.294      856.798
10/31/2014  02:23:00     -128.991      -21.073      -20.753       24.098       18.059       12.620      580.729      326.143      159.277        0.929        0.053      130.701        9.893        0.006      339.641       13.113      856.814
10/31/2014  02:24:00     -144.158      -48.583      -22.131       17.703       12.636       10.512      313.407      159.666      110.497        1.211        0.029      152.124        5.843        0.001      339.786       13.359      856.830
10/31/2014  02:25:00     -142.771      -31.880      -17.567       11.698       22.086       12.021      136.834      487.798      144.510        1.124        0.038      146.287        6.470        0.002      339.978       13.682      856.845
10/31/2014  02:26:00      -97.694      -19.626       -8.414       19.495       14.631       10.719      380.046      214.052      114.902        0.535        0.035       99.646       10.820        0.012      340.120       13.921      856.851
10/31/2014  02:27:00      -73.938      -17.309       -5.048       19.430       13.706        8.214      377.519      187.842       67.474        0.321        0.032       75.937        9.056        0.014      340.173       14.012      856.847
10/31/2014  02:28:00      -77.760        5.161      -12.451       12.092        8.483       11.165      146.223       71.960      124.665        0.329        0.017       77.931        4.028        0.003      340.143       13.960      856.825
10/31/2014  02:29:00      -80.596      -28.457       -9.405       17.717       15.769        6.950      313.893      248.669       48.308        0.400        0.031       85.472        6.324        0.005      340.159       13.987      856.803
10/31/2014  02:30:00      -33.939      -21.965       -5.244       16.543        7.096        4.108      273.677       50.347       16.877        0.100        0.017       40.427        4.118        0.010      340.479       14.528      856.777
10/31/2014  02:31:00      -16.644        6.679        1.779       19.779       13.034        8.962      391.198      169.884       80.326        0.048        0.032       17.934        7.782        0.188      340.967       15.354      856.737
10/31/2014  02:32:00       46.440       31.568        1.016       24.252       29.026       16.042      588.136      842.527      257.337        0.242        0.084       56.154       10.994        0.038      339.956       13.643      856.712
10/31/2014  02:33:00       35.952       16.742       -1.585       16.225       27.442       17.363      263.263      753.052      301.471        0.145        0.066       39.659        8.409        0.045      339.501       12.880      856.724
10/31/2014  02:34:00       34.069       42.309       -6.603       11.165        6.007        8.639      124.666       36.081       74.630        0.161        0.012       54.321        4.041        0.006      339.660       13.146      856.749
10/31/2014  02:35:00        1.619        3.661       -1.586       10.620       11.769        2.709      112.792      138.519        7.338        0.014        0.013        4.004        4.161        1.080      340.512       14.585      856.764
10/31/2014  02:36:00        9.934       -0.843        1.131       14.323        6.759        5.080      205.137       45.686       25.811        0.019        0.014        9.970        5.975        0.359      341.050       15.494      856.762
10/31/2014  02:37:00       14.538       12.136        5.470       24.155        5.245        6.392      583.448       27.515       40.854        0.052        0.033       18.937        9.991        0.278      340.877       15.202      856.736
10/31/2014  02:38:00      -36.802       55.148      -13.558       15.535       36.386       15.768      241.335     1323.918      248.619        0.320        0.091       66.299       18.819        0.081      340.258       14.156      856.677
10/31/2014  02:39:00      -42.780       43.902      -16.040       12.157       17.314        7.857      147.800      299.774       61.731        0.226        0.025       61.299        5.234        0.007      341.040       15.478      856.632
10/31/2014  02:40:00      -45.012       11.705       -5.216       14.202       17.623       11.171      201.709      310.559      124.782        0.141        0.032       46.509       10.641        0.052      340.870       15.190      856.607
10/31/2014  02:41:00      -45.600       -4.045      -11.186       11.001       10.800        7.705      121.020      116.629       59.360        0.126        0.015       45.779        6.888        0.023      340.149       13.971      856.609
10/31/2014  02:42:00      -82.801      -35.272      -14.914       22.898       11.444       11.281      524.296      130.968      127.251        0.455        0.039       90.001       10.645        0.014      340.592       14.720      856.620
10/31/2014  02:43:00      -72.862      -43.326       -7.923       14.323       13.013        8.070      205.160      169.333       65.122        0.384        0.022       84.770        7.125        0.007      340.114       13.911      856.632
10/31/2014  02:44:00      -64.524      -17.505       -6.943       10.908       14.091        7.081      118.977      198.557       50.137        0.244        0.018       66.856        6.104        0.008      339.846       13.461      856.639
10/31/2014  02:45:00      -51.523      -38.719       -3.477       18.233       11.094        6.738      332.446      123.085       45.406        0.233        0.025       64.450        5.351        0.007      340.117       13.916      856.650
10/31/2014  02:46:00       31.680      -48.058       -7.271       51.419       56.017       34.178     2643.944     3137.855     1168.109        0.516        0.347       57.560       43.481        0.571      339.557       12.971      856.664
10/31/2014  02:47:00       58.362      -77.636      -32.314       63.187       46.591       36.688     3992.604     2170.708     1345.977        0.899        0.375       97.126       36.683        0.143      339.326       12.583      856.677
10/31/2014  02:48:00      -17.806      -57.548      -10.381       34.961       29.948       20.883     1222.252      896.910      436.090        0.315        0.128       60.240       11.036        0.034      339.440       12.775      856.711
10/31/2014  02:49:00       -7.414      -42.269      -10.726       21.437       22.491       19.997      459.532      505.832      399.895        0.166        0.068       42.914       13.475        0.099      339.524       12.915      856.716
10/31/2014  02:50:00      -24.493      -64.913       -0.624       21.935       32.156       22.780      481.133     1034.004      518.917        0.342        0.102       69.380       11.539        0.028      340.102       13.891      856.692
10/31/2014  02:51:00       10.423       10.400        6.512       10.871       12.715        8.849      118.170      161.683       78.299        0.031        0.018       14.724        4.436        0.091      339.719       13.246      856.664
10/31/2014  02:52:00        7.337       23.837       -2.319       17.470        8.117        6.738      305.213       65.882       45.401        0.052        0.021       24.941        1.521        0.004      339.900       13.550      856.639
10/31/2014  02:53:00      -19.769        2.686        1.819       10.780       23.439        7.995      116.200      549.375       63.926        0.057        0.036       19.951        9.057        0.206      340.183       14.028      856.624
10/31/2014  02:54:00      -28.248      -22.338        0.928       10.515       13.945        9.335      110.562      194.450       87.148        0.084        0.020       36.013        6.833        0.036      340.129       13.939      856.609
10/31/2014  02:55:00        3.844      -18.506       -0.277       18.588        9.320        8.179      345.521       86.858       66.895        0.043        0.025       18.901       11.235        0.353      339.604       13.050      856.613
10/31/2014  02:56:00       17.843      -39.331       -2.635       12.993       15.107        7.467      168.817      228.234       55.761        0.116        0.023       43.189        5.669        0.017      339.828       13.430      856.627
10/31/2014  02:57:00      -24.310      -44.062       -2.087       31.887       27.765       16.762     1016.752      770.879      280.964        0.230        0.103       50.324       16.529        0.108      339.921       13.587      856.656
10/31/2014  02:58:00        6.408      -64.785       -7.642       59.977       41.487       24.153     3597.186     1721.194      583.361        0.510        0.295       65.101       28.380        0.190      340.292       14.212      856.653
10/31/2014  02:59:00      -15.119      -88.455        5.462       34.880       37.545       26.539     1216.631     1409.639      704.341        0.571        0.167       89.738       15.056        0.028      340.515       14.589      856.639
10/31/2014  03:00:00       -0.757      -64.891        0.850       23.061       26.192       19.209      531.829      686.014      368.972        0.290        0.079       64.895       14.349        0.049      340.687       14.879      856.618
10/31/2014  03:01:00      -25.670      -33.277        5.118       37.205       35.528       17.446     1384.215     1262.204      304.349        0.237        0.148       42.027       10.816        0.066      340.559       14.665      856.605
10/31/2014  03:02:00      -67.275      -53.941        2.348       31.897       29.960       23.897     1017.422      897.594      571.053        0.496        0.124       86.230       19.145        0.049      340.492       14.549      856.605
10/31/2014  03:03:00      -62.663     -120.756        0.725       42.400       41.602       20.792     1797.776     1730.709      432.324        1.123        0.198      136.047       23.571        0.030      340.634       14.789      856.624
10/31/2014  03:04:00      -51.224      -44.396        3.215       30.702       35.212       19.290      942.591     1239.872      372.122        0.358        0.128       67.785       15.648        0.053      340.791       15.056      856.608
10/31/2014  03:05:00      -48.281      -49.171        9.418       45.121       37.400       23.239     2035.924     1398.769      540.037        0.441        0.199       68.911       21.599        0.098      340.719       14.933      856.574
10/31/2014  03:06:00       -5.975      -55.331       -7.989       48.300       41.769       27.436     2332.915     1744.631      752.747        0.399        0.242       55.652       24.718        0.197      340.351       14.313      856.542
10/31/2014  03:07:00      -52.449      -25.938        9.092       58.365       66.673       33.526     3406.454     4445.290     1123.972        0.624        0.449       58.512       37.735        0.416      340.446       14.472      856.495
10/31/2014  03:08:00      -47.056     -169.669       -0.097       43.324       37.179       23.548     1876.942     1382.274      554.518        1.741        0.191      176.073       19.835        0.013      340.702       14.905      856.508
10/31/2014  03:09:00      -66.650      -57.551       -4.097       57.286       36.425       24.080     3281.673     1326.781      579.853        0.648        0.259       88.059       25.318        0.083      340.291       14.212      856.523
10/31/2014  03:10:00      -60.967      -60.905        1.683       43.796       28.639       23.125     1918.099      820.174      534.775        0.535        0.164       86.177       19.228        0.050      340.339       14.292      856.533
10/31/2014  03:11:00      -84.045      -39.729       -2.666       53.140       50.464       18.296     2823.809     2546.663      334.750        0.718        0.285       92.962       17.973        0.037      340.407       14.405      856.522
10/31/2014  03:12:00     -130.526       43.392       -2.753      127.669       98.646       50.125    16299.398     9731.022     2512.547        2.373        1.427      137.550       39.348        0.082      340.348       14.304      856.479
10/31/2014  03:13:00      -52.186      -39.266       -5.353       40.742       37.068       16.090     1659.924     1374.064      258.883        0.379        0.165       65.308       12.797        0.038      340.446       14.471      856.456
10/31/2014  03:14:00      -62.472        4.421       -0.653       43.522       37.366       21.327     1894.199     1396.226      454.826        0.383        0.187       62.628       16.672        0.071      340.271       14.176      856.448
10/31/2014  03:15:00       23.634       31.172        4.171       36.386       43.712       25.631     1323.953     1910.707      656.943        0.272        0.195       39.119       19.483        0.248      339.929       13.600      856.480
10/31/2014  03:16:00       24.891       35.492       -4.379       29.297       21.756       17.692      858.325      473.313      313.018        0.177        0.082       43.350        8.092        0.035      339.136       12.262      856.511
10/31/2014  03:17:00       28.475       41.774       -1.971       19.462       16.741       14.272      378.764      280.251      203.690        0.171        0.043       50.556       11.915        0.056      338.983       12.005      856.521
10/31/2014  03:18:00       61.482       50.213       -3.066       11.374        7.348        7.609      129.369       53.989       57.890        0.328        0.012       79.382        5.190        0.004      338.975       11.992      856.514
10/31/2014  03:19:00       62.095       65.185       -1.923       15.938       18.024       11.719      254.021      324.868      137.326        0.441        0.036       90.027        9.452        0.011      339.237       12.432      856.496
10/31/2014  03:20:00       54.706       68.427      -14.226       32.530       29.357       24.861     1058.188      861.811      618.060        0.521        0.127       87.607       16.444        0.035      339.773       13.336      856.471
10/31/2014  03:21:00       31.994       68.341       -9.569       24.257       34.720       20.039      588.418     1205.486      401.580        0.399        0.110       75.459       22.061        0.085      339.634       13.102      856.469
10/31/2014  03:22:00       58.889       73.294      -15.054       32.672       34.961       24.551     1067.468     1222.250      602.761        0.598        0.145       94.021       21.605        0.053      339.645       13.121      856.459
10/31/2014  03:23:00       77.711       58.445       -2.530       40.183       30.807       27.878     1614.693      949.047      777.205        0.640        0.167       97.236       22.986        0.056      339.599       13.043      856.442
10/31/2014  03:24:00       61.995       51.767        7.242       33.821       32.089       20.601     1143.849     1029.726      424.407        0.459        0.130       80.767       17.092        0.045      339.446       12.784      856.411
10/31/2014  03:25:00       48.922       39.749        4.177       28.657       19.039       18.670      821.210      362.493      348.583        0.276        0.077       63.035       13.715        0.047      339.486       12.853      856.401
10/31/2014  03:26:00       44.289       34.730        1.616       18.501       16.900       11.203      342.303      285.601      125.518        0.196        0.038       56.283        5.218        0.009      339.663       13.152      856.400
10/31/2014  03:27:00       52.288       46.383       -2.824       23.546       22.091       15.498      554.396      488.015      240.177        0.309        0.064       69.895       13.513        0.037      340.137       13.950      856.385
10/31/2014  03:28:00       35.036       34.234       -9.044       20.203       16.727       14.136      408.143      279.786      199.839        0.168        0.044       48.985        9.786        0.040      340.120       13.921      856.343
10/31/2014  03:29:00       28.251       51.231      -10.949       11.997       15.822       10.925      143.916      250.324      119.361        0.203        0.026       58.504       10.771        0.034      340.340       14.293      856.302
10/31/2014  03:30:00       17.611       69.274      -12.621       14.855       13.818        9.039      220.668      190.944       81.705        0.288        0.025       71.477        6.947        0.009      340.649       14.815      856.261
10/31/2014  03:31:00       -3.289       50.212       -4.735       13.743       12.865        7.724      188.871      165.517       59.660        0.148        0.021       50.319        5.301        0.011      340.673       14.856      856.230
10/31/2014  03:32:00       -0.840       35.097        1.318       12.770       33.936       11.165      163.084     1151.642      124.662        0.134        0.072       35.107       14.869        0.179      340.123       13.926      856.219
10/31/2014  03:33:00      -37.728       -7.096       -5.190       15.928       13.269        7.671      253.687      176.070       58.850        0.099        0.024       38.390        5.184        0.018      339.821       13.417      856.233
10/31/2014  03:34:00      -76.103      -16.268      -14.900       29.432       18.854        9.559      866.224      355.482       91.373        0.380        0.066       77.823       11.079        0.020      339.363       12.645      856.245
10/31/2014  03:35:00     -105.525      -16.057      -14.620       24.904       23.116       12.509      620.185      534.343      156.478        0.646        0.066      106.740       11.190        0.011      339.266       12.481      856.246
10/31/2014  03:36:00     -175.289      -10.537      -27.833       27.965       27.920       16.340      782.017      779.501      266.997        1.672        0.091      175.605       13.550        0.006      339.226       12.414      856.253
10/31/2014  03:37:00     -147.908       18.230      -12.065       55.952       39.108       32.704     3130.662     1529.419     1069.529        1.404        0.286      149.027       30.988        0.043      339.376       12.666      856.252
10/31/2014  03:38:00     -101.566       52.781       -4.577       52.864       37.795       30.637     2794.574     1428.487      938.655        0.914        0.258      114.462       26.852        0.055      339.998       13.716      856.225
10/31/2014  03:39:00     -101.026       34.403      -10.173       36.692       27.756       16.550     1346.301      770.392      273.902        0.694        0.120      106.723        9.085        0.007      340.146       13.965      856.223
10/31/2014  03:40:00      -86.962       88.521      -25.055       16.226       18.521       10.902      263.282      343.034      118.846        0.838        0.036      124.090        8.088        0.004      340.606       14.744      856.205
10/31/2014  03:41:00      -52.223       75.708      -10.186       25.082       18.774       11.852      629.097      352.460      140.465        0.484        0.056       91.972       14.176        0.024      340.876       15.199      856.200
10/31/2014  03:42:00     -103.593      -13.467       -8.446       32.798       35.423       15.748     1075.732     1254.770      248.001        0.678        0.129      104.464        9.283        0.008      340.056       13.814      856.219
10/31/2014  03:43:00     -110.222      -66.428       -7.732       62.747       35.437       29.745     3937.170     1255.752      884.767        1.135        0.304      128.692       25.533        0.039      339.648       13.125      856.206
10/31/2014  03:44:00     -241.607      -95.747      -17.563       75.024       65.113       36.244     5628.634     4239.736     1313.651        3.951        0.559      259.887       26.178        0.010      340.393       14.379      856.163
10/31/2014  03:45:00     -155.692      -80.248       -0.589       86.746       62.031       43.261     7524.951     3847.809     1871.534        2.196        0.662      175.156       37.951        0.047      340.717       14.928      856.130
10/31/2014  03:46:00     -205.134      -43.410      -15.679       57.711       59.508       30.641     3330.593     3541.234      938.851        2.601        0.391      209.677       30.787        0.022      340.350       14.305      856.134
10/31/2014  03:47:00      -91.772      -18.541        5.580       69.562       59.527       37.656     4838.859     3543.476     1417.946        0.930        0.490       93.626       27.938        0.089      340.261       14.159      856.139
10/31/2014  03:48:00     -120.728      -69.151       -0.441       90.916       54.928       33.308     8265.766     3017.047     1109.436        1.587        0.620      139.129       41.307        0.088      340.533       14.617      856.128
10/31/2014  03:49:00     -130.157     -103.671       -5.564       57.185       46.045       28.305     3270.102     2120.183      801.184        1.695        0.310      166.399       23.127        0.019      340.646       14.809      856.125
10/31/2014  03:50:00      -16.568       -4.616       15.921       49.450       28.841       23.125     2445.314      831.819      534.770        0.218        0.191       17.199       27.580        2.572      340.268       14.170      856.102
10/31/2014  03:51:00     -121.529      -31.581       -1.317       79.255       64.092       30.428     6281.312     4107.722      925.849        1.354        0.566      125.566       36.973        0.087      340.448       14.475      856.085
10/31/2014  03:52:00     -129.812       21.717       -6.379       68.002       94.571       39.875     4624.308     8943.728     1590.005        1.626        0.758      131.616       32.845        0.062      340.630       14.783      856.057
10/31/2014  03:53:00     -156.609      -81.509       11.286      112.400       70.618       42.844    12633.872     4986.911     1835.627        2.537        0.973      176.551       46.836        0.070      340.673       14.855      856.045
10/31/2014  03:54:00     -215.743     -140.984       -3.827      150.168      110.617       62.573    22550.294    12236.214     3915.361        5.256        1.935      257.724       74.458        0.083      340.595       14.721      856.048
10/31/2014  03:55:00     -429.055     -236.279      -19.074      169.321      104.360       66.808    28669.709    10891.025     4463.362       14.214        2.201      489.813       58.153        0.014      340.847       15.146      856.045
10/31/2014  03:56:00     -256.174      -15.485      -13.294      111.317       90.657       46.203    12391.379     8218.608     2134.694        4.439        1.137      256.642       39.082        0.023      340.761       15.000      856.069
10/31/2014  03:57:00      -14.280      -74.385       17.383       59.166       51.217       34.011     3500.564     2623.195     1156.738        0.666        0.364       75.743       31.922        0.178      340.860       15.172      856.065
10/31/2014  03:58:00       42.705      -55.123       -3.341       29.572       32.260       17.919      874.483     1040.715      321.101        0.355        0.112       69.730       10.366        0.022      340.839       15.138      856.026
10/31/2014  03:59:00      -60.095      -33.809        0.245       53.772       56.461       24.428     2891.435     3187.876      596.730        0.571        0.334       68.953       21.209        0.095      340.853       15.161      856.017
10/31/2014  04:00:00     -167.603      -34.952      -27.083       60.763       33.994       22.798     3692.142     1155.593      519.764        1.771        0.268      171.209       20.215        0.014      340.869       15.185      856.026
10/31/2014  04:01:00      -58.310       -5.177       15.637       66.694       63.162       37.277     4448.143     3989.470     1389.549        0.675        0.491       58.539       38.264        0.427      340.589       14.713      856.010
10/31/2014  04:02:00     -146.808       31.981      -10.929       42.627       39.053       23.400     1817.089     1525.115      547.549        1.329        0.194      150.251       17.621        0.014      340.784       15.042      855.982
10/31/2014  04:03:00     -125.342      -34.780      -19.073       36.057       27.030       18.694     1300.109      730.634      349.458        0.983        0.119      130.078       18.496        0.020      340.702       14.905      855.964
10/31/2014  04:04:00      -35.648      -38.207       -8.434       38.752       28.664       16.535     1501.753      821.611      273.406        0.270        0.130       52.254       15.390        0.087      340.535       14.624      856.003
10/31/2014  04:05:00       -4.083      -58.983       13.124       44.942       39.335       26.895     2019.750     1547.205      723.365        0.398        0.215       59.124       11.443        0.037      340.514       14.587      856.055
10/31/2014  04:06:00      -40.828      -42.368       14.580       98.735       41.191       26.897     9748.697     1696.686      723.439        0.792        0.608       58.838       40.150        0.466      340.368       14.340      856.096
10/31/2014  04:07:00      -10.112       24.371       13.505       34.243       22.119       17.803     1172.567      489.236      316.955        0.143        0.099       26.386       16.726        0.402      340.266       14.168      856.079
10/31/2014  04:08:00      -89.265      130.215      -42.470       68.707       84.015       41.834     4720.626     7058.529     1750.068        2.013        0.676      157.874       27.361        0.030      340.718       14.930      856.020
10/31/2014  04:09:00      -21.337       -5.095        6.640       43.195       35.178       21.846     1865.772     1237.464      477.264        0.205        0.179       21.937       20.628        0.884      340.387       14.373      855.998
10/31/2014  04:10:00      -99.155      -52.435        5.258       59.979       48.170       24.606     3597.519     2320.323      605.439        0.956        0.326      112.166       29.040        0.067      340.427       14.440      856.026
10/31/2014  04:11:00      -28.062      -10.553       -0.295       37.293       25.054       18.930     1390.751      627.709      358.359        0.164        0.119       29.981       18.255        0.371      340.277       14.186      856.037
10/31/2014  04:12:00     -136.570       41.336       -8.183       42.757       24.766       19.688     1828.121      613.352      387.626        1.163        0.141      142.689       19.658        0.019      340.309       14.241      856.034
10/31/2014  04:13:00     -127.619       -2.148       -9.351       32.500       37.323       17.649     1056.267     1392.974      311.504        0.957        0.138      127.637       12.973        0.010      340.248       14.138      856.021
10/31/2014  04:14:00     -192.063      -37.451       -9.478       55.885       85.266       32.948     3123.165     7270.279     1085.541        2.493        0.574      195.681       36.119        0.034      340.504       14.568      856.021
10/31/2014  04:15:00     -122.313      -63.808       13.634      103.391       86.841       41.790    10689.730     7541.446     1746.389        1.959        0.999      137.956       48.863        0.125      340.515       14.588      856.018
10/31/2014  04:16:00      -27.412     -190.019       -1.078       37.971       48.349       28.434     1441.791     2337.603      808.490        2.072        0.229      191.986       16.495        0.007      340.605       14.739      856.073
10/31/2014  04:17:00       31.319      -51.326        8.532       46.814       69.067       39.564     2191.558     4770.205     1565.276        0.611        0.426       60.127       46.629        0.601      340.165       13.997      856.077
10/31/2014  04:18:00        3.712       79.608      104.390       36.870       56.474       43.577     1359.375     3189.301     1898.934        1.185        0.322       79.695       45.920        0.332      340.155       13.979      856.045
10/31/2014  04:19:00       42.528        3.587       55.915       50.179       58.121       44.437     2517.905     3378.050     1974.621        0.641        0.394       42.679       40.383        0.895      340.018       13.749      856.020
10/31/2014  04:20:00       99.105      -82.615       -5.621       72.197       93.387       66.645     5212.450     8721.152     4441.574        1.752        0.919      129.023       77.019        0.356      340.058       13.815      856.036
10/31/2014  04:21:00       37.151      -25.949       41.659       57.117       74.310       50.947     3262.406     5522.031     2595.588        0.758        0.569       45.316       53.730        1.406      340.067       13.832      856.047
10/31/2014  04:22:00       42.930     -100.347        1.616       53.233       76.671       65.154     2833.724     5878.468     4245.064        1.243        0.648      109.144       60.502        0.307      340.157       13.984      856.055
10/31/2014  04:23:00       53.261       14.546       69.432       75.746       99.014       80.058     5737.455     9803.714     6409.286        1.491        1.098       55.211       79.864        2.092      339.941       13.620      856.030
10/31/2014  04:24:00        7.506      152.797      162.201       42.037       62.529       41.967     1767.082     3909.912     1761.203        2.857        0.372      152.981       39.115        0.065      339.987       13.695      856.002
10/31/2014  04:25:00       10.911       58.432       86.189       31.640       45.095       32.614     1001.099     2033.532     1063.705        0.753        0.205       59.442       29.023        0.238      339.878       13.513      856.007
10/31/2014  04:26:00       95.280      -92.512      -15.016       49.713       70.740       45.105     2471.348     5004.140     2034.490        1.368        0.475      132.804       49.184        0.137      340.137       13.949      856.045
10/31/2014  04:27:00       26.769       50.515       88.923       61.631       78.926       67.977     3798.408     6229.328     4620.843        1.291        0.732       57.169       60.785        1.130      340.015       13.744      856.024
10/31/2014  04:28:00      -54.307       12.307       -9.130       71.720      104.796       53.324     5143.776    10982.278     2843.396        1.107        0.948       55.684       44.591        0.641      340.523       14.603      855.992
10/31/2014  04:29:00      -44.159       -8.867       -4.821       34.891       41.124       27.097     1217.397     1691.218      734.241        0.285        0.182       45.040       27.024        0.360      340.486       14.539      855.975
10/31/2014  04:30:00       19.076      -51.380        4.418       48.603       45.537       31.327     2362.218     2073.604      981.397        0.422        0.271       54.807       15.611        0.081      340.382       14.364      856.009
10/31/2014  04:31:00       62.201      121.276       82.045       79.268       56.271       68.041     6283.379     3166.396     4629.626        1.969        0.704      136.297       60.216        0.195      340.176       14.013      856.002
10/31/2014  04:32:00       81.145      181.282      175.116       89.798       67.325       43.799     8063.722     4532.702     1918.388        4.231        0.726      198.614       36.527        0.034      340.180       14.018      855.951
10/31/2014  04:33:00       29.742       62.674      123.001       56.473      105.050       66.923     3189.234    11035.541     4478.655        1.932        0.935       69.373       77.398        1.245      339.999       13.715      855.956
10/31/2014  04:34:00       89.554     -133.011       -6.956       55.891       52.988       38.167     3123.821     2807.733     1456.694        1.657        0.369      160.349       29.938        0.035      339.971       13.669      856.009
10/31/2014  04:35:00       92.057     -127.340      -20.324       48.943       58.445       32.227     2395.439     3415.796     1038.551        1.598        0.342      157.130       27.232        0.030      340.170       14.004      856.015
10/31/2014  04:36:00        2.020       15.196       49.577       19.737       38.327       31.993      389.544     1468.961     1023.563        0.279        0.144       15.330       30.892        4.061      340.132       13.941      856.019
10/31/2014  04:37:00       -6.639      -39.970       -0.972       24.506       28.292       22.080      600.563      800.411      487.511        0.177        0.094       40.518       19.645        0.235      340.042       13.789      856.021
10/31/2014  04:38:00        0.527       37.881        1.359       25.005       21.769       12.890      625.267      473.901      166.142        0.135        0.063       37.885       16.392        0.187      340.033       13.774      855.995
10/31/2014  04:39:00       20.370       54.491       55.727       28.184       31.704       49.197      794.340     1005.145     2420.381        0.535        0.211       58.174       32.137        0.305      339.862       13.486      855.972
10/31/2014  04:40:00       32.492       97.224      108.587       61.647       44.710       42.305     3800.386     1999.015     1789.744        1.494        0.379      102.510       35.869        0.122      339.898       13.545      855.950
10/31/2014  04:41:00        6.949       46.389       68.761       31.473       38.681       26.604      990.542     1496.243      707.775        0.506        0.160       46.906       16.065        0.117      339.926       13.594      855.968
10/31/2014  04:42:00      -31.424       26.643        8.476       42.121       27.011       22.716     1774.211      729.593      516.019        0.239        0.151       41.198       20.141        0.239      339.833       13.438      855.992
10/31/2014  04:43:00      -68.176       -3.665       -5.376       25.207       15.027       14.199      635.397      225.813      201.601        0.288        0.053       68.275       11.929        0.031      339.692       13.200      856.016
10/31/2014  04:44:00      -16.994       24.592        0.341       55.724       15.732       11.289     3105.189      247.499      127.435        0.219        0.174       29.892       19.599        0.430      339.872       13.502      856.047
10/31/2014  04:45:00       82.022       10.593       11.134       39.704       32.078       24.265     1576.442     1028.976      588.779        0.508        0.160       82.703       15.488        0.035      339.767       13.326      856.030
10/31/2014  04:46:00       -4.558       10.748       46.008       42.873       71.275       44.645     1838.128     5080.079     1993.151        0.558        0.446       11.674       49.137       17.715      339.751       13.300      856.012
10/31/2014  04:47:00       12.111       32.465        4.999       22.993       32.264       20.936      528.690     1040.939      438.301        0.162        0.100       34.651       15.141        0.191      340.038       13.784      856.024
10/31/2014  04:48:00      -30.848       12.322      -22.014       28.473       49.627       12.721      810.710     2462.887      161.811        0.251        0.172       33.218       17.587        0.280      340.023       13.758      856.043
10/31/2014  04:49:00       27.183       -8.169        7.653       25.477       40.412       28.531      649.081     1633.105      814.040        0.198        0.155       28.384       28.563        1.013      339.835       13.441      856.062
10/31/2014  04:50:00       -8.579       -0.820       18.751       26.189       45.099       33.514      685.855     2033.920     1123.184        0.213        0.192        8.618       34.394       15.926      339.975       13.675      856.057
10/31/2014  04:51:00       -9.359      -11.420       -1.608       14.005       32.633       15.002      196.153     1064.924      225.047        0.085        0.074       14.765       14.905        1.019      340.035       13.779      856.068
10/31/2014  04:52:00      -14.736       27.775       62.896       20.557       47.711       34.718      422.582     2276.301     1205.363        0.442        0.195       31.442       36.527        1.350      339.810       13.400      856.053
10/31/2014  04:53:00      -10.972       13.356       34.101       22.011       39.280       29.922      484.472     1542.949      895.318        0.219        0.146       17.285       31.137        3.245      339.764       13.321      856.054
10/31/2014  04:54:00       30.888       51.943       62.757       34.665       36.425       28.094     1201.649     1326.759      789.265        0.545        0.166       60.433       27.435        0.206      339.704       13.221      856.017
10/31/2014  04:55:00       58.642      -96.957        8.536       59.575       99.159       55.900     3549.121     9832.530     3124.787        1.471        0.825      113.311       70.518        0.387      339.845       13.457      856.003
10/31/2014  04:56:00       19.103      -47.402       11.942       41.463       87.041       46.009     1719.200     7576.134     2116.855        0.708        0.571       51.106       55.794        1.192      339.950       13.634      856.006
10/31/2014  04:57:00       12.534       61.408       72.049       32.404       58.891       39.338     1050.026     3468.108     1547.442        0.759        0.303       62.674       41.605        0.441      339.921       13.586      855.985
10/31/2014  04:58:00        1.682      -57.056       10.228       42.906       70.099       34.660     1840.896     4913.830     1201.326        0.566        0.398       57.081       25.936        0.206      339.909       13.567      856.005
10/31/2014  04:59:00        9.098      -83.241       -9.812       58.528       85.846       43.466     3425.499     7369.461     1889.266        0.989        0.634       83.737       31.744        0.144      339.885       13.524      855.976
10/31/2014  05:00:00       16.816        1.752      -25.905       61.700       37.835       35.035     3806.832     1431.476     1227.468        0.371        0.323       16.907       20.034        1.404      340.362       14.331      855.953
10/31/2014  05:01:00       15.546       -3.140       -4.679       16.919       41.836       12.096      286.238     1750.217      146.315        0.123        0.109       15.860       11.565        0.532      340.276       14.184      855.955
10/31/2014  05:02:00       43.820      -45.707       -0.866       27.757       28.631       29.878      770.437      819.760      892.695        0.325        0.124       63.319       23.961        0.143      340.160       13.989      855.978
10/31/2014  05:03:00       37.804       -4.982       21.380       50.081       40.808       39.875     2508.153     1665.264     1590.029        0.384        0.288       38.131       33.803        0.786      339.868       13.496      855.967
10/31/2014  05:04:00       41.031       49.095       43.623       37.154       37.948       27.719     1380.441     1440.022      768.364        0.479        0.179       63.983       24.986        0.153      339.861       13.485      855.932
10/31/2014  05:05:00       91.441       60.420       39.972       19.343       15.100       17.682      374.148      228.020      312.661        0.726        0.046      109.600       10.089        0.008      339.936       13.612      855.911
10/31/2014  05:06:00        0.932       38.175       53.427       18.533       22.658       15.295      343.465      513.398      233.938        0.270        0.055       38.187       12.498        0.107      339.927       13.597      855.932
10/31/2014  05:07:00      -10.512       47.457       70.251       12.379       25.704       16.426      153.228      660.681      269.813        0.419        0.054       48.607       16.043        0.109      339.733       13.268      855.930
10/31/2014  05:08:00      -17.774      -43.576        0.717       45.199       48.132       38.921     2042.977     2316.663     1514.876        0.404        0.294       47.062       36.414        0.599      339.447       12.787      855.943
10/31/2014  05:09:00     -155.035       31.730      -14.192       70.703       38.217       23.344     4998.885     1460.521      544.946        1.612        0.350      158.248       27.721        0.031      338.909       11.881      855.948
10/31/2014  05:10:00     -107.367       50.074      -14.536       36.193       26.489       19.253     1309.900      701.641      370.670        0.831        0.119      118.469       16.018        0.018      339.056       12.128      855.925
10/31/2014  05:11:00      -31.070      194.163      -24.475       44.948       65.198       25.585     2020.283     4250.756      654.617        2.309        0.346      196.634       29.956        0.023      339.671       13.162      855.899
10/31/2014  05:12:00       37.576      145.663      -21.457       30.810       60.362       33.637      949.263     3643.539     1131.447        1.441        0.286      150.432       34.674        0.053      339.634       13.101      855.890
10/31/2014  05:13:00       21.443       26.462       -3.369       38.283       45.665       21.946     1465.612     2085.270      481.614        0.260        0.202       34.060       22.791        0.448      339.421       12.743      855.931
10/31/2014  05:14:00       30.055       -2.773        9.370       18.176       28.626       13.563      330.385      819.435      183.963        0.117        0.067       30.183       12.392        0.169      339.305       12.548      855.948
10/31/2014  05:15:00       59.306       39.549       11.398       15.703       16.222       14.984      246.574      263.150      224.530        0.297        0.037       71.284        7.995        0.013      339.504       12.883      855.935
10/31/2014  05:16:00       52.179       41.548       -3.447       21.988       17.666       21.113      483.481      312.092      445.760        0.285        0.062       66.700       15.197        0.052      339.556       12.970      855.913
10/31/2014  05:17:00       55.215       62.040       -0.348       24.979       19.194       18.591      623.938      368.410      345.634        0.412        0.067       83.053       11.858        0.020      339.580       13.012      855.894
10/31/2014  05:18:00       95.371       54.171       26.012       22.549       25.620       23.940      508.437      656.374      573.114        0.722        0.087      109.682       12.839        0.014      339.366       12.650      855.888
10/31/2014  05:19:00       80.083       54.621       10.021       39.461       22.247       22.772     1557.137      494.937      518.569        0.603        0.129       96.937       15.800        0.027      339.370       12.656      855.893
10/31/2014  05:20:00      -39.138      -22.567       -1.561       30.280       27.388       20.679      916.899      750.100      427.621        0.207        0.105       45.178       21.996        0.237      339.379       12.672      855.913
10/31/2014  05:21:00      -54.311      -24.144      -10.350       16.451       12.944        8.576      270.646      167.553       73.554        0.208        0.026       59.436        7.497        0.016      339.723       13.252      855.938
10/31/2014  05:22:00        9.709      -10.033        7.050        9.733       17.640       11.942       94.734      311.153      142.607        0.040        0.027       13.961        8.606        0.380      339.591       13.029      855.933
10/31/2014  05:23:00        2.169      -46.216       -1.676       19.980       25.795       13.927      399.192      665.402      193.966        0.170        0.063       46.267       12.616        0.074      339.802       13.385      855.921
10/31/2014  05:24:00      -24.955       -4.316       -5.982       24.144       14.537       11.626      582.911      211.330      135.159        0.080        0.046       25.326        6.780        0.072      339.723       13.253      855.927
10/31/2014  05:25:00       65.394       46.042       31.231       20.664       17.168       26.891      427.015      294.734      723.119        0.441        0.072       79.977        8.821        0.012      339.777       13.344      855.910
10/31/2014  05:26:00       37.877       75.424       61.552       39.415       34.025       31.132     1553.514     1157.671      969.187        0.730        0.184       84.401       27.698        0.108      339.575       13.005      855.880
10/31/2014  05:27:00       41.161       36.121       73.606       41.812       37.778       33.869     1748.212     1427.201     1147.128        0.637        0.216       54.763       21.328        0.152      339.488       12.855      855.873
10/31/2014  05:28:00       48.921      -16.558       23.093       40.228       83.514       38.082     1618.284     6974.545     1450.260        0.662        0.502       51.648       45.857        0.788      339.740       13.280      855.861
10/31/2014  05:29:00       -0.976      -54.454       24.594       43.043       45.133       28.407     1852.702     2036.989      806.933        0.413        0.235       54.463       15.018        0.076      339.724       13.253      855.869
10/31/2014  05:30:00      -63.276      -51.114      -13.445       33.439       27.840       18.975     1118.192      775.092      360.045        0.452        0.113       81.342       16.217        0.040      339.356       12.634      855.900
10/31/2014  05:31:00      -92.829       20.812       -7.716       33.460       41.794       22.850     1119.577     1746.742      522.135        0.625        0.169       95.134       20.261        0.045      339.090       12.185      855.928
10/31/2014  05:32:00      -81.787       26.709      -15.347       27.265       36.124       16.702      743.362     1304.924      278.960        0.498        0.116       86.038       21.852        0.065      339.453       12.796      855.947
10/31/2014  05:33:00      -80.607      -87.953      -19.352       57.501       60.015       28.489     3306.324     3601.851      811.645        1.116        0.386      119.303       16.676        0.020      340.173       14.012      855.970
10/31/2014  05:34:00     -109.667     -141.675      -21.745       55.446       91.986       27.116     3074.229     8461.372      735.252        2.242        0.614      179.161       28.968        0.026      340.289       14.201      855.949
10/31/2014  05:35:00       48.571      -63.984       -7.361       77.000       72.784       43.070     5928.969     5297.478     1854.984        0.979        0.654       80.331       27.967        0.121      340.470       14.512      855.954
10/31/2014  05:36:00       83.774       45.985       26.589       39.210       39.581       37.313     1537.435     1566.678     1392.285        0.717        0.225       95.565       15.240        0.025      340.336       14.284      855.927
10/31/2014  05:37:00       85.762      130.867      100.586       64.953       70.415       65.465     4218.891     4958.226     4285.725        2.403        0.673      156.465       58.844        0.141      340.217       14.084      855.876
10/31/2014  05:38:00       33.279      203.728      188.064       59.289       86.514       43.688     3515.155     7484.722     1908.654        4.544        0.645      206.428       39.167        0.036      340.324       14.263      855.833
10/31/2014  05:39:00      -42.372       -7.552       34.223       60.461       73.881       83.479     3655.489     5458.473     6968.790        0.955        0.804       43.040       54.504        1.604      339.952       13.638      855.864
10/31/2014  05:40:00      -70.119       -9.906        5.246       69.654       39.741       26.672     4851.689     1579.383      711.389        0.609        0.357       70.816       32.704        0.213      339.503       12.882      855.878
10/31/2014  05:41:00      -80.178       -7.075      -17.333       39.987       25.933       26.141     1598.974      672.515      683.353        0.487        0.148       80.490       20.318        0.064      339.535       12.935      855.845
10/31/2014  05:42:00     -135.843       20.199      -20.079       25.612       22.076       15.137      655.987      487.342      229.137        1.032        0.069      137.336       10.158        0.005      339.581       13.012      855.850
10/31/2014  05:43:00     -110.322      -15.129      -13.945       32.424       30.258       21.047     1051.319      915.521      442.979        0.750        0.120      111.354       19.603        0.031      339.335       12.598      855.886
10/31/2014  05:44:00      -48.794       19.441      -15.674       19.766       27.677       12.151      390.690      766.005      147.653        0.215        0.065       52.525       12.372        0.055      339.387       12.687      855.910
10/31/2014  05:45:00        4.931      103.237      -18.497       40.183       37.027       11.567     1614.638     1371.028      133.790        0.707        0.156      103.355        6.439        0.004      339.959       13.649      855.911
10/31/2014  05:46:00       35.208       89.478      -10.637       25.543       27.106       20.559      652.452      734.754      422.679        0.558        0.090       96.155       17.292        0.032      340.114       13.909      855.897
10/31/2014  05:47:00       79.071       54.821        0.796       29.933       29.217       29.300      895.984      853.632      858.464        0.593        0.130       96.216       20.365        0.045      340.051       13.804      855.875
10/31/2014  05:48:00       63.168       64.113        4.103       43.395       33.932       25.353     1883.101     1151.356      642.766        0.590        0.184       90.004       13.375        0.022      339.792       13.368      855.866
10/31/2014  05:49:00       32.086       79.811      -11.234       30.208       49.927       26.504      912.549     2492.681      702.469        0.582        0.205       86.019       27.179        0.100      339.723       13.253      855.868
10/31/2014  05:50:00       21.883      114.308      -16.207       30.701       29.170       20.382      942.533      850.862      415.442        0.801        0.110      116.384       19.082        0.027      339.786       13.359      855.891
10/31/2014  05:51:00       20.409      121.289      -17.398       24.472       28.646       18.164      598.901      820.622      329.944        0.859        0.087      122.994       14.646        0.014      339.856       13.476      855.909
10/31/2014  05:52:00      -13.722       81.537      -14.613       24.351       26.630       12.939      592.960      709.145      167.416        0.426        0.073       82.684       11.833        0.020      339.760       13.315      855.912
10/31/2014  05:53:00        5.527      120.757      -21.638       29.563       24.152       10.743      873.985      583.326      115.418        0.833        0.079      120.883       10.497        0.008      339.873       13.505      855.935
10/31/2014  05:54:00       -0.233       44.446       -2.842       27.533       24.184       11.540      758.067      584.860      133.163        0.173        0.074       44.447       12.488        0.079      339.724       13.254      855.959
10/31/2014  05:55:00       39.157       53.273       25.996       21.347       34.685       35.464      455.705     1203.019     1257.666        0.398        0.146       66.116       29.424        0.198      339.487       12.854      855.958
10/31/2014  05:56:00       93.420       97.464       48.598       39.050       26.226       32.724     1524.908      687.820     1070.892        1.194        0.164      135.005       25.600        0.036      339.499       12.875      855.934
10/31/2014  05:57:00      107.699       59.899       23.718       36.319       38.552       32.530     1319.083     1486.282     1058.181        0.981        0.193      123.235       19.416        0.025      339.601       13.046      855.929
10/31/2014  05:58:00       27.340       11.933       35.167       26.597       41.264       25.133      707.382     1702.682      631.676        0.258        0.152       29.831       27.474        0.848      339.426       12.750      855.943
10/31/2014  05:59:00       -3.741      -30.186       -6.499       15.984       29.383       12.517      255.500      863.352      156.684        0.112        0.064       30.417       14.615        0.231      339.578       13.008      855.967
10/31/2014  06:00:00       -7.944       48.753      -11.329       22.064       26.818        9.530      486.813      719.196       90.812        0.193        0.065       49.396        9.632        0.038      339.655       13.138      855.953
10/31/2014  06:01:00       20.763       68.799      -10.641       20.177       15.231       11.301      407.124      231.981      127.718        0.302        0.038       71.864       11.671        0.026      339.899       13.549      855.921
10/31/2014  06:02:00       29.675       69.811      -12.792       14.697       23.844       11.177      215.990      568.550      124.918        0.341        0.045       75.856       10.004        0.017      339.690       13.196      855.904
10/31/2014  06:03:00       62.877       51.492        4.656       31.379       18.529       15.024      984.651      343.330      225.717        0.409        0.078       81.271       16.198        0.040      339.557       12.973      855.908
10/31/2014  06:04:00       67.485       35.270       12.061       29.977       27.325       15.220      898.597      746.633      231.648        0.391        0.094       76.146        5.903        0.006      339.435       12.765      855.922
10/31/2014  06:05:00       17.423       -0.102        7.345       13.225       15.661       10.241      174.890      245.271      104.875        0.044        0.026       17.424        7.954        0.208      339.178       12.333      855.929
10/31/2014  06:06:00       17.486       26.136       27.913       13.226       15.469       17.190      174.916      239.288      295.505        0.124        0.035       31.446       12.578        0.160      339.015       12.060      855.918
10/31/2014  06:07:00       54.763       43.171       19.725       23.753       19.192       25.683      564.183      368.348      659.600        0.342        0.080       69.733        9.240        0.018      338.991       12.018      855.906
10/31/2014  06:08:00       43.416       11.658        9.605       42.777       26.492       18.892     1829.829      701.838      356.916        0.250        0.144       44.954       10.696        0.057      339.415       12.733      855.899
10/31/2014  06:09:00      -81.529      -11.046       -9.879       29.159       17.870       13.672      850.229      319.338      186.927        0.411        0.068       82.274       15.944        0.038      338.798       11.694      855.918
10/31/2014  06:10:00      -99.913      -43.711       -8.259       22.375       20.153        9.632      500.640      406.130       92.767        0.648        0.050      109.056        8.937        0.007      338.921       11.903      855.922
10/31/2014  06:11:00      -39.919      -13.198      -10.474       17.926        8.569        6.321      321.357       73.424       39.952        0.116        0.022       42.044        4.994        0.014      339.300       12.539      855.909
10/31/2014  06:12:00      -58.601       -5.994      -10.275        8.894        8.815        3.768       79.105       77.700       14.200        0.187        0.009       58.907        3.048        0.003      339.373       12.662      855.912
10/31/2014  06:13:00      -68.722       -7.464      -11.203        7.428        9.271        5.350       55.178       85.959       28.618        0.254        0.008       69.126        4.096        0.004      339.228       12.417      855.938
10/31/2014  06:14:00       -6.152       31.639        4.346       34.539       27.641       14.534     1192.944      764.004      211.243        0.161        0.108       32.232       20.329        0.398      339.383       12.678      855.934
10/31/2014  06:15:00       68.546       43.151       10.621       28.064       25.757       17.454      787.572      663.415      304.638        0.421        0.088       80.998        9.716        0.014      339.539       12.941      855.896
10/31/2014  06:16:00       62.725        4.185       13.658       23.454       20.327       17.839      550.084      413.204      318.231        0.271        0.064       62.865       12.366        0.039      339.157       12.296      855.882
10/31/2014  06:17:00        4.001       45.604       62.742       28.521       35.964       25.893      813.450     1293.404      670.462        0.440        0.139       45.779       28.357        0.384      339.357       12.636      855.876
10/31/2014  06:18:00      -38.827       11.902       17.706       42.316       41.482       34.882     1790.613     1720.772     1216.754        0.334        0.236       40.611       34.097        0.705      339.174       12.327      855.902
10/31/2014  06:19:00     -147.373      -72.522      -15.432       16.598       29.519       12.378      275.499      871.343      153.221        1.426        0.065      164.250        6.260        0.001      338.889       11.847      855.932
10/31/2014  06:20:00      -56.703        6.259        3.422       74.768       47.792       35.404     5590.319     2284.117     1253.467        0.620        0.456       57.048       39.669        0.484      339.154       12.295      855.959
10/31/2014  06:21:00       28.283        9.608        8.185       33.788       32.771       21.747     1141.619     1073.923      472.933        0.182        0.134       29.871       19.955        0.446      339.329       12.588      855.890
10/31/2014  06:22:00      -58.283        2.034       -3.664       31.310       29.042       15.939      980.307      843.433      254.056        0.275        0.104       58.319       18.476        0.100      339.400       12.706      855.877
10/31/2014  06:23:00     -123.151      -86.808        7.299      118.170       70.174       69.492    13964.164     4924.407     4829.089        2.323        1.186      150.672       75.329        0.250      339.362       12.642      855.874
10/31/2014  06:24:00     -162.979      -77.047       -1.295      121.825       77.187       50.477    14841.305     5957.872     2547.934        2.792        1.167      180.273       59.949        0.111      339.631       13.093      855.899
10/31/2014  06:25:00      -89.032      -61.575        3.032       48.366       59.937       31.678     2339.284     3592.433     1003.469        0.933        0.347      108.250       29.648        0.075      339.522       12.914      855.947
10/31/2014  06:26:00     -178.856     -134.795       -5.411      143.999       67.489       45.010    20735.700     4554.762     2025.862        3.875        1.366      223.963       58.397        0.068      339.759       13.312      855.976
10/31/2014  06:27:00     -261.159     -100.385      -22.933       99.101       71.285       46.886     9820.959     5081.535     2198.289        4.795        0.855      279.788       45.001        0.026      339.855       13.471      855.949
10/31/2014  06:28:00      -72.397      -51.915        5.897       57.892       49.824       29.949     3351.504     2482.473      896.944        0.735        0.337       89.087       25.246        0.080      339.642       13.117      855.953
10/31/2014  06:29:00      -51.185      -72.436       -3.393       58.333       44.142       26.591     3402.750     1948.554      707.076        0.697        0.303       88.696       14.650        0.027      339.682       13.183      855.952
10/31/2014  06:30:00      -21.605     -106.362        6.031       63.174       56.238       41.315     3990.925     3162.713     1706.899        1.034        0.443      108.534       37.149        0.117      339.748       13.295      855.984
10/31/2014  06:31:00      -43.110      -44.222       10.591       57.603       44.098       27.309     3318.161     1944.619      745.777        0.497        0.300       61.758       32.121        0.271      339.650       13.128      855.995
10/31/2014  06:32:00      -39.840        1.043       19.055       36.970       40.795       19.208     1366.756     1664.256      368.938        0.267        0.170       39.854       24.555        0.380      339.491       12.860      855.994
10/31/2014  06:33:00       32.147      -31.605       18.916       47.258       33.019       25.376     2233.277     1090.239      643.956        0.318        0.198       45.081       27.620        0.375      339.621       13.081      855.966
10/31/2014  06:34:00      -90.173     -134.691        5.175       67.888       77.620       42.475     4608.717     6024.802     1804.115        1.937        0.622      162.089       27.448        0.029      339.629       13.092      855.963
10/31/2014  06:35:00      -87.043       -3.649       -8.221       58.301       52.602       31.553     3399.022     2766.940      995.599        0.741        0.358       87.120       28.908        0.110      339.598       13.042      855.981
10/31/2014  06:36:00      -78.021      -26.926       -1.833       60.042       41.399       24.234     3605.080     1713.840      587.300        0.636        0.295       82.536       20.939        0.064      339.582       13.014      855.989
10/31/2014  06:37:00     -155.489      -42.210       -4.174       79.149       69.799       31.463     6264.575     4871.856      989.902        1.905        0.606      161.116       28.773        0.032      339.635       13.103      855.995
10/31/2014  06:38:00     -161.148      -65.437       -9.716       71.300       56.552       30.616     5083.642     3198.185      937.340        1.978        0.461      173.927       21.715        0.016      339.638       13.107      855.974
10/31/2014  06:39:00     -110.384      -43.709       -8.760       53.793       44.538       29.024     2893.651     1983.652      842.380        0.994        0.286      118.723       31.833        0.072      339.727       13.258      855.955
10/31/2014  06:40:00      -37.921      -42.317       -2.683       41.248       23.548       25.250     1701.374      554.490      637.566        0.306        0.145       56.822       19.479        0.118      339.646       13.123      855.949
10/31/2014  06:41:00     -121.409      -66.797       -7.952       53.187       67.122       25.883     2828.853     4505.402      669.948        1.363        0.400      138.571       15.576        0.013      339.602       13.047      855.992
10/31/2014  06:42:00     -248.040      -99.734      -20.742       73.750       73.446       39.908     5439.125     5394.311     1592.659        4.216        0.621      267.341       29.846        0.012      339.638       13.104      856.031
10/31/2014  06:43:00     -182.017      -46.753      -18.089       92.145       83.986       37.141     8490.630     7053.617     1379.442        2.628        0.846      187.926       45.616        0.059      339.674       13.166      856.014
10/31/2014  06:44:00     -214.382       -9.051       -7.088      108.957       97.940       43.668    11871.543     9592.166     1906.893        3.473        1.169      214.573       44.937        0.044      339.810       13.397      855.977
10/31/2014  06:45:00     -202.330       14.457       -7.816      131.451       70.072       51.177    17279.288     4910.050     2619.073        3.300        1.240      202.845       65.884        0.105      339.612       13.061      855.964
10/31/2014  06:46:00     -264.683      -71.239       -1.087      116.564       72.463       49.967    13587.078     5250.941     2496.679        4.823        1.067      274.102       51.844        0.036      339.664       13.151      855.957
10/31/2014  06:47:00     -168.036      -27.508      -10.844       70.885       61.572       31.513     5024.618     3791.150      993.091        1.946        0.490      170.273       33.177        0.038      339.690       13.194      855.917
10/31/2014  06:48:00     -134.980      -39.238       -5.538       78.911       51.834       33.957     6226.913     2686.798     1153.104        1.493        0.503      140.567       41.591        0.088      339.604       13.049      855.918
10/31/2014  06:49:00     -183.782      -46.119        0.232       80.857       65.771       42.203     6537.786     4325.814     1781.105        2.427        0.632      189.481       28.587        0.023      339.673       13.165      855.893
10/31/2014  06:50:00     -258.032      -24.401      -11.868       81.332      122.111       41.613     6614.835    14911.141     1731.648        4.528        1.163      259.183       24.244        0.009      339.750       13.294      855.878
10/31/2014  06:51:00     -118.541      -79.477        1.642       91.157       73.836       47.655     8309.584     5451.706     2270.985        1.820        0.802      142.719       48.967        0.118      339.710       13.229      855.856
10/31/2014  06:52:00     -244.762        0.087       -8.594      171.154      110.078       57.027    29293.690    12117.249     3252.131        5.231        2.233      244.762       65.107        0.071      339.715       13.236      855.859
10/31/2014  06:53:00     -217.653      -57.511       -1.209      126.994      124.038       56.482    16127.560    15385.351     3190.188        4.269        1.735      225.123       56.315        0.063      339.729       13.259      855.849
10/31/2014  06:54:00     -244.849      -15.381      -13.836       89.467       75.162       49.063     8004.278     5649.340     2407.158        3.822        0.803      245.332       44.011        0.032      339.741       13.278      855.842
10/31/2014  06:55:00     -277.119      -92.714       -9.987      108.543       80.953       37.137    11781.499     6553.395     1379.129        5.260        0.986      292.217       45.867        0.025      339.730       13.261      855.846
10/31/2014  06:56:00     -182.567      -35.720       -3.165      102.591       60.534       35.774    10524.991     3664.407     1279.786        2.504        0.773      186.029       34.530        0.034      339.653       13.130      855.853
10/31/2014  06:57:00     -203.287      -44.107      -14.278       55.785       54.895       38.589     3111.925     3013.418     1489.123        2.554        0.381      208.017       26.839        0.017      339.703       13.216      855.867
10/31/2014  06:58:00     -118.058      -37.677       -0.233       52.572       54.482       31.765     2763.841     2968.272     1009.041        1.105        0.337      123.925       33.096        0.071      339.551       12.962      855.891
10/31/2014  06:59:00      -70.650      -47.517        6.467       83.958       67.736       38.230     7048.918     4588.191     1461.543        1.019        0.655       85.143       33.037        0.151      339.556       12.970      855.900
10/31/2014  07:00:00     -199.920      -27.680       -8.171      128.086       74.114       49.784    16406.109     5492.871     2478.478        3.258        1.219      201.827       51.031        0.064      339.642       13.113      855.892
10/31/2014  07:01:00     -251.854     -105.908      -17.183      109.551      104.094       57.826    12001.330    10835.622     3343.817        5.056        1.309      273.216       43.494        0.025      339.730       13.260      855.884
10/31/2014  07:02:00     -238.330       22.610      -16.123      144.604      105.109       65.968    20910.361    11047.824     4351.819        4.693        1.816      239.400       71.819        0.090      339.721       13.246      855.850
10/31/2014  07:03:00     -246.861      -79.764        3.559      154.862      110.897       70.868    23982.255    12298.210     5022.332        5.430        2.065      259.428       79.458        0.094      339.746       13.288      855.815
10/31/2014  07:04:00     -322.610      -63.797        2.237      156.606      105.509       60.913    24525.332    11132.153     3710.416        7.375        1.968      328.858       70.723        0.046      339.809       13.393      855.802
10/31/2014  07:05:00     -284.620      -82.308       -3.793      113.530       82.549       46.672    12889.145     6814.359     2178.306        5.484        1.094      296.282       44.512        0.023      339.765       13.318      855.806
10/31/2014  07:06:00     -281.395      -62.627       -6.312      140.831      115.694       60.954    19833.361    13385.190     3715.372        6.003        1.847      288.280       62.782        0.047      339.750       13.295      855.828
10/31/2014  07:07:00     -324.330      -45.118       -4.406      143.232      103.230       69.111    20515.376    10656.532     4776.368        7.159        1.797      327.453       74.387        0.052      339.840       13.446      855.855
10/31/2014  07:08:00     -252.232      -30.065       -4.829      123.518       81.861       50.360    15256.793     6701.245     2536.088        4.452        1.225      254.018       58.873        0.054      339.807       13.391      855.868
10/31/2014  07:09:00     -209.381      -74.359        3.759      131.875      109.159       58.606    17391.010    11915.744     3434.690        4.106        1.637      222.193       57.687        0.067      339.792       13.366      855.860
10/31/2014  07:10:00     -205.959      -21.358        7.874      104.963       99.974       55.647    11017.270     9994.734     3096.631        3.352        1.205      207.063       60.083        0.084      339.765       13.319      855.840
10/31/2014  07:11:00     -143.584      -61.842       -1.899       68.618       49.668       37.157     4708.429     2466.906     1380.635        1.650        0.428      156.336       25.458        0.027      339.764       13.321      855.855
10/31/2014  07:12:00      -54.292      -54.115        5.980       54.034       61.502       25.478     2919.723     3782.516      649.147        0.663        0.368       76.655       27.105        0.125      339.775       13.340      855.866
10/31/2014  07:13:00     -169.658     -118.923       -4.214       75.306       67.812       43.942     5671.012     4598.478     1930.861        2.757        0.610      207.187       40.341        0.038      339.780       13.344      855.896
10/31/2014  07:14:00     -155.596      -80.618      -13.203       68.298       69.732       40.235     4664.582     4862.607     1618.825        2.101        0.557      175.241       35.469        0.041      339.730       13.264      855.896
10/31/2014  07:15:00     -140.564     -116.995      -20.133      107.303       97.133       58.082    11513.943     9434.867     3373.554        2.908        1.216      182.883       63.483        0.120      339.789       13.361      855.841
10/31/2014  07:16:00     -186.277       -0.951      -19.251       74.505       66.946       43.658     5550.958     4481.830     1906.062        2.350        0.597      186.280       40.483        0.047      339.694       13.201      855.777
10/31/2014  07:17:00     -290.724      -64.722      -10.135      108.885      105.647       53.413    11856.003    11161.219     2852.978        5.734        1.294      297.841       48.274        0.026      339.743       13.282      855.732
10/31/2014  07:18:00     -190.115      -52.574       -1.161       88.922       97.562       46.979     7907.124     9518.249     2207.019        2.927        0.982      197.251       46.532        0.056      339.697       13.206      855.697
10/31/2014  07:19:00     -240.781      -87.857      -10.079       99.974       86.530       50.457     9994.752     7487.445     2545.865        4.291        1.001      256.309       52.968        0.043      339.734       13.266      855.662
10/31/2014  07:20:00     -115.793      -70.257        7.265       65.927       74.308       40.607     4346.385     5521.690     1648.934        1.495        0.576      135.440       37.245        0.076      339.680       13.180      855.648
10/31/2014  07:21:00     -155.391      -68.028      -16.287       97.244       66.364       40.844     9456.454     4404.203     1668.255        2.228        0.776      169.630       49.388        0.085      339.701       13.213      855.658
10/31/2014  07:22:00     -182.513     -117.697        2.022       57.413       50.478       37.889     3296.304     2548.012     1435.564        2.722        0.364      217.172       34.280        0.025      339.735       13.269      855.668
10/31/2014  07:23:00     -108.380      -33.192        2.394       77.063       69.981       43.662     5938.675     4897.313     1906.354        1.280        0.637      113.349       51.313        0.205      339.643       13.116      855.691
10/31/2014  07:24:00      -66.559       -6.769        1.750       72.398       35.485       31.442     5241.513     1259.178      988.579        0.598        0.374       66.903       39.794        0.354      339.608       13.058      855.693
10/31/2014  07:25:00       42.472      -30.088      -15.213       26.605       21.366       24.627      707.815      456.525      606.468        0.236        0.089       52.049       11.220        0.046      339.618       13.076      855.677
10/31/2014  07:26:00       28.367      -12.475        8.981       38.694       37.571       30.143     1497.230     1411.562      908.612        0.243        0.191       30.989       23.088        0.555      339.465       12.817      855.694
10/31/2014  07:27:00       42.296       65.903       63.254       67.051       65.813       47.057     4495.873     4331.337     2214.374        1.059        0.552       78.308       46.140        0.347      339.342       12.609      855.750
10/31/2014  07:28:00      139.527       72.473       52.070       79.304       51.014       51.033     6289.128     2602.446     2604.402        1.946        0.575      157.226       39.247        0.062      339.131       12.254      855.769
10/31/2014  07:29:00      167.473      122.316       73.827       63.993       46.481       55.041     4095.135     2160.451     3029.468        2.887        0.464      207.385       35.185        0.029      339.089       12.181      855.753
10/31/2014  07:30:00      141.752       84.647       37.054       65.820       47.058       52.499     4332.218     2214.491     2756.168        1.897        0.465      165.102       36.888        0.050      338.989       12.014      855.711
10/31/2014  07:31:00      144.278       61.527       15.441       58.867       45.864       37.440     3465.381     2103.537     1401.771        1.590        0.349      156.849       28.700        0.033      338.809       11.712      855.692
10/31/2014  07:32:00      134.922       51.789        8.838       61.321       46.883       42.292     3760.235     2198.033     1788.596        1.435        0.387      144.520       28.627        0.039      338.786       11.673      855.687
10/31/2014  07:33:00       92.760       64.121       29.357       47.012       44.912       31.020     2210.174     2017.118      962.260        0.938        0.259      112.765       22.620        0.040      338.678       11.493      855.691
10/31/2014  07:34:00       44.969       21.044        8.871       28.214       30.890       20.444      796.002      954.171      417.967        0.236        0.108       49.649       13.068        0.069      338.637       11.424      855.686
10/31/2014  07:35:00       51.278       42.875       38.271       29.348       21.539       22.927      861.289      463.922      525.654        0.389        0.093       66.840       14.299        0.046      338.577       11.323      855.680
10/31/2014  07:36:00        1.509       24.329       53.212       19.330       33.203       16.791      373.654     1102.458      281.926        0.259        0.088       24.376       16.418        0.454      338.538       11.257      855.681
10/31/2014  07:37:00       36.796      -74.313        0.258       39.705       22.945       21.646     1576.451      526.475      468.565        0.472        0.129       82.924       22.626        0.074      338.704       11.537      855.691
10/31/2014  07:38:00       17.155      -48.369        0.504       34.307       27.527       17.302     1176.958      757.726      299.348        0.243        0.112       51.321       10.118        0.039      338.795       11.690      855.696
10/31/2014  07:39:00      -19.119      -47.450        2.862       27.430       15.098       14.651      752.396      227.939      214.655        0.191        0.060       51.157       15.972        0.097      338.687       11.509      855.692
10/31/2014  07:40:00      -28.361      -27.729      -12.540       21.131       13.534       14.983      446.530      183.162      224.482        0.129        0.043       39.664        9.486        0.057      338.800       11.697      855.693
10/31/2014  07:41:00       58.282        1.177       19.248       28.399       39.772       26.566      806.520     1581.809      705.764        0.343        0.155       58.294       29.329        0.253      338.914       11.890      855.672
10/31/2014  07:42:00       81.138       27.454       37.279       41.194       28.980       28.890     1696.915      839.856      834.629        0.605        0.169       85.657       20.698        0.058      338.899       11.863      855.642
10/31/2014  07:43:00      111.939       46.424       13.958       56.677       42.615       39.046     3212.275     1816.045     1524.599        1.072        0.328      121.184       29.221        0.058      338.885       11.840      855.634
10/31/2014  07:44:00      120.321       86.422       15.470       42.612       31.627       33.559     1815.770     1000.269     1126.196        1.306        0.197      148.142       23.382        0.025      338.829       11.748      855.663
10/31/2014  07:45:00       88.298       53.829       -2.064       24.107       24.239       22.914      581.141      587.514      525.043        0.620        0.085      103.412       13.051        0.016      338.684       11.502      855.665
10/31/2014  07:46:00      108.309       40.727       11.462       39.684       30.585       22.782     1574.837      935.460      519.016        0.827        0.151      115.713       16.328        0.020      338.719       11.560      855.660
10/31/2014  07:47:00       66.088       36.591       22.765       38.712       35.099       38.753     1498.634     1231.924     1501.757        0.523        0.212       75.542       32.227        0.182      338.655       11.453      855.662
10/31/2014  07:48:00       27.984       80.158       71.512       40.315       37.887       27.342     1625.259     1435.450      747.583        0.806        0.190       84.903       22.182        0.068      338.672       11.482      855.689
10/31/2014  07:49:00       83.715       98.138       63.431       33.755       25.040       29.902     1139.418      627.008      894.102        1.166        0.133      128.994       17.987        0.019      338.771       11.648      855.707
10/31/2014  07:50:00       50.601       35.829       24.410       22.774       18.800       21.406      518.659      353.427      458.202        0.288        0.067       62.001       15.211        0.060      338.655       11.455      855.711
10/31/2014  07:51:00       99.921       52.062        7.614       27.869       22.107       18.899      776.704      488.729      357.154        0.719        0.081      112.670       13.519        0.014      338.625       11.404      855.686
10/31/2014  07:52:00      103.092       52.902        3.655       34.732       26.158       19.539     1206.291      684.251      381.782        0.786        0.114      115.874       13.477        0.014      338.567       11.306      855.645
10/31/2014  07:53:00      100.405       65.264        8.200       36.560       29.822       26.278     1336.648      889.346      690.527        0.866        0.146      119.752       19.556        0.027      338.490       11.176      855.646
10/31/2014  07:54:00       61.382       50.921       12.560       38.461       20.295       22.513     1479.264      411.902      506.856        0.446        0.120       79.754       12.031        0.023      338.533       11.250      855.657
10/31/2014  07:55:00       24.448       75.146       -5.384       32.372       39.183       25.886     1047.932     1535.333      670.067        0.476        0.163       79.023       21.744        0.076      338.517       11.223      855.637
10/31/2014  07:56:00       20.376       86.229      -14.325       17.537       29.122       15.681      307.559      848.105      245.893        0.473        0.070       88.604       16.770        0.036      338.576       11.322      855.605
10/31/2014  07:57:00       22.941       22.719        2.693       20.186       32.218       13.917      407.493     1038.021      193.679        0.134        0.082       32.287       13.836        0.184      338.603       11.367      855.625
10/31/2014  07:58:00        1.505       -3.140       32.419       17.762       27.764       28.246      315.476      770.849      797.832        0.147        0.094        3.482       22.005       39.937      338.576       11.322      855.670
10/31/2014  07:59:00       21.057       46.409       93.033       45.711       50.826       41.246     2089.488     2583.269     1701.217        0.881        0.319       50.962       33.229        0.425      338.388       11.005      855.687
10/31/2014  08:00:00      112.852       -1.379       62.357      108.295       76.230       65.218    11727.757     5811.030     4253.427        1.920        1.090      112.860       70.495        0.390      338.237       10.751      855.685
10/31/2014  08:01:00       71.705       26.977        1.135       62.032       43.548       37.871     3848.008     1896.429     1434.236        0.652        0.359       76.612       39.178        0.262      338.321       10.893      855.679
10/31/2014  08:02:00       54.302       41.388        2.151       46.081       26.212       19.382     2123.438      687.062      375.672        0.393        0.159       68.277       18.641        0.075      338.358       10.954      855.652
10/31/2014  08:03:00       88.059       32.138       19.132       43.458       28.961       26.497     1888.590      838.728      702.087        0.629        0.171       93.741       26.269        0.079      338.228       10.738      855.651
10/31/2014  08:04:00       81.520       72.699       43.145       38.721       30.928       41.910     1499.307      956.516     1756.437        0.900        0.211      109.228       30.609        0.079      338.169       10.638      855.655
10/31/2014  08:05:00      101.141       35.773       11.640       62.309       37.022       34.152     3882.364     1370.602     1166.349        0.903        0.321      107.281       21.955        0.042      338.167       10.635      855.648
10/31/2014  08:06:00       27.904       23.173        3.630       29.775       20.813       17.125      886.528      433.169      293.260        0.147        0.081       36.271       17.082        0.222      338.161       10.625      855.642
10/31/2014  08:07:00       47.011       27.436        2.186       36.474       20.990       21.694     1330.331      440.572      470.617        0.260        0.112       54.432       15.798        0.084      338.216       10.715      855.667
10/31/2014  08:08:00       39.643       60.314       10.542       33.745       34.383       25.613     1138.734     1182.191      656.011        0.415        0.149       72.176       25.262        0.123      338.252       10.777      855.672
10/31/2014  08:09:00       16.750      137.941      -14.384       25.782       51.757       22.632      664.691     2678.776      512.190        1.168        0.193      138.954       26.625        0.037      338.181       10.659      855.658
10/31/2014  08:10:00       10.032      188.466      -27.455       25.003       21.009       13.934      625.130      441.361      194.145        1.882        0.063      188.732       10.234        0.003      338.112       10.544      855.646
10/31/2014  08:11:00       38.268      130.297      -16.030       37.417       55.520       35.778     1400.058     3082.521     1280.083        1.223        0.288      135.800       30.503        0.050      338.202       10.694      855.670
10/31/2014  08:12:00       78.889       59.281        0.760       46.214       35.000       21.852     2135.771     1225.016      477.509        0.679        0.192       98.680       16.831        0.029      338.244       10.764      855.700
10/31/2014  08:13:00       25.043       22.641       14.028       28.424       23.167       23.992      807.939      536.692      575.599        0.163        0.096       33.760       18.076        0.287      338.282       10.828      855.724
10/31/2014  08:14:00       17.910       33.923       44.725       31.844       29.905       24.243     1014.040      894.313      587.718        0.298        0.125       38.361       24.446        0.406      338.355       10.950      855.757
10/31/2014  08:15:00       17.312       33.939       42.807       28.616       29.165       22.883      818.874      850.606      523.634        0.274        0.110       38.099       18.555        0.237      338.403       11.030      855.800
10/31/2014  08:16:00       57.058       28.449        7.220       25.803       22.195       26.218      665.805      492.602      687.389        0.298        0.092       63.757        4.490        0.005      338.424       11.066      855.808
10/31/2014  08:17:00       14.306       44.081      -10.398       29.982       21.676       14.469      898.913      469.849      209.345        0.192        0.079       46.344        4.150        0.008      338.516       11.221      855.772
10/31/2014  08:18:00      -59.301       46.933      -17.732       35.840       45.328       14.625     1284.497     2054.637      213.886        0.479        0.178       75.626       14.414        0.036      338.358       10.955      855.779
10/31/2014  08:19:00      -90.694      -26.299      -13.984       16.404       15.129       12.925      269.101      228.873      167.048        0.489        0.033       94.430        8.335        0.008      338.276       10.817      855.809
10/31/2014  08:20:00      -57.142      -42.068       -4.238       27.151       15.899       18.721      737.198      252.781      350.473        0.320        0.067       70.957        7.084        0.010      338.378       10.989      855.809
10/31/2014  08:21:00      -35.833      -30.041        4.816       18.873       16.924       15.037      356.176      286.427      226.111        0.154        0.043       46.759       12.060        0.067      338.427       11.073      855.803
10/31/2014  08:22:00      -72.485      -32.120       -3.562       16.165        8.717        8.402      261.296       75.992       70.592        0.335        0.020       79.283        7.274        0.008      338.481       11.163      855.773
10/31/2014  08:23:00      -77.030      -27.171       -4.206       15.039       17.503        8.665      226.172      306.367       75.080        0.365        0.030       81.682        8.446        0.011      338.499       11.191      855.765
10/31/2014  08:24:00      -94.396      -37.167      -10.749       12.447       13.643        6.196      154.928      186.122       38.386        0.539        0.019      101.449        5.301        0.003      338.608       11.376      855.733
10/31/2014  08:25:00      -96.319      -15.502       -9.106       30.973       28.971       17.496      959.305      839.296      306.119        0.585        0.105       97.559       13.767        0.020      338.461       11.129      855.707
10/31/2014  08:26:00     -117.631       -4.206      -14.208       31.562       25.714       19.817      996.150      661.235      392.706        0.805        0.103      117.706       15.996        0.018      338.497       11.189      855.721
10/31/2014  08:27:00     -146.016       14.522      -13.902       27.183       19.925       16.672      738.896      397.004      277.949        1.157        0.071      146.737       13.528        0.008      338.582       11.332      855.731
10/31/2014  08:28:00     -155.432       20.096      -14.119       19.066       18.560       11.381      363.508      344.477      129.525        1.280        0.042      156.726        8.920        0.003      338.623       11.401      855.700
10/31/2014  08:29:00     -161.659       47.508      -16.022       41.821       26.153       19.730     1749.021      683.999      389.286        1.573        0.141      168.496       18.889        0.013      338.654       11.452      855.654
10/31/2014  08:30:00     -159.867       59.254      -16.375       46.727       29.661       21.017     2183.415      879.747      441.697        1.642        0.175      170.495       17.668        0.011      338.740       11.597      855.624
10/31/2014  08:31:00     -188.952       61.348      -17.192       36.476       28.713       23.152     1330.493      824.412      536.037        2.123        0.135      198.661       15.092        0.006      338.761       11.630      855.605
10/31/2014  08:32:00     -137.702       68.589      -19.842       40.431       54.794       26.632     1634.629     3002.412      709.264        1.470        0.267      153.839       23.233        0.023      338.865       11.806      855.605
10/31/2014  08:33:00      -91.494       71.010      -18.529       36.537       31.384       25.278     1334.977      984.973      638.985        0.836        0.148      115.817       21.776        0.035      339.006       12.043      855.602
10/31/2014  08:34:00      -49.498       79.524       -7.101       32.208       34.084       16.335     1037.345     1161.727      266.819        0.564        0.123       93.670       14.440        0.024      339.226       12.414      855.615
10/31/2014  08:35:00      -56.883       75.532      -12.144       24.836       22.103       20.196      616.834      488.562      407.893        0.530        0.076       94.556       15.032        0.025      339.227       12.416      855.650
10/31/2014  08:36:00      -59.491       -3.157       -5.587       29.436       23.512       15.815      866.486      552.819      250.116        0.262        0.083       59.574       14.917        0.063      339.006       12.044      855.663
10/31/2014  08:37:00     -116.991      -31.431       -9.999       46.830       28.048       21.743     2193.038      786.703      472.770        0.911        0.173      121.140       23.672        0.038      338.827       11.743      855.677
10/31/2014  08:38:00     -111.545      -55.116       -4.034       26.324       40.413       21.347      692.938     1633.219      455.682        0.914        0.139      124.419       15.314        0.015      338.839       11.764      855.692
10/31/2014  08:39:00      -87.399      -50.629        2.970       51.648       42.882       22.689     2667.495     1838.849      514.769        0.761        0.251      101.004       22.899        0.051      338.867       11.810      855.722
10/31/2014  08:40:00      -57.983       -6.197       -1.970       31.143       33.901       19.587      969.858     1149.268      383.638        0.295        0.125       58.313       20.118        0.119      338.911       11.884      855.730
10/31/2014  08:41:00      -24.505      -27.493        0.103       22.087       15.213       11.006      487.830      231.446      121.124        0.110        0.042       36.829        9.873        0.072      338.996       12.026      855.744
10/31/2014  08:42:00      -14.927      -28.251       -7.661       11.971        6.266        7.675      143.294       39.267       58.901        0.066        0.012       31.952        6.336        0.039      339.076       12.161      855.770
10/31/2014  08:43:00      -28.680      -17.542      -11.317        9.503        8.003        4.267       90.312       64.047       18.211        0.072        0.009       33.619        4.054        0.015      339.165       12.312      855.772
10/31/2014  08:44:00      -62.691      -11.863       -7.247        9.853        9.136        6.838       97.073       83.460       46.760        0.218        0.011       63.803        5.536        0.008      339.174       12.326      855.769
10/31/2014  08:45:00      -55.959       10.765       -6.345       17.607        9.575        7.781      310.005       91.683       60.547        0.187        0.023       56.985        5.971        0.011      339.184       12.345      855.773
10/31/2014  08:46:00      -97.707       12.462      -11.812       15.414       14.765       11.370      237.578      218.018      129.273        0.521        0.029       98.498        5.504        0.003      339.249       12.453      855.775
10/31/2014  08:47:00      -68.411       -6.953       -6.628       13.959       12.171        9.286      194.854      148.143       86.234        0.260        0.021       68.764        8.331        0.015      339.238       12.433      855.778
10/31/2014  08:48:00      -59.591       12.744       -9.129       19.605        9.193        7.251      384.362       84.508       52.570        0.216        0.026       60.938        3.175        0.003      339.247       12.449      855.767
10/31/2014  08:49:00      -48.954       14.969       -9.499       27.807       14.618       13.047      773.228      213.686      170.237        0.193        0.058       51.191        6.614        0.017      339.407       12.717      855.749
10/31/2014  08:50:00      -14.023       -9.666       -4.600       10.335       11.551        5.941      106.821      133.428       35.301        0.029        0.014       17.031        3.114        0.033      339.423       12.746      855.750
10/31/2014  08:51:00       -1.039        7.258        7.968        6.771       11.704       10.715       45.846      136.994      114.815        0.021        0.015        7.332        6.424        0.768      339.834       13.440      855.761
10/31/2014  08:52:00       -1.855       15.209       24.721        7.435       15.949        7.817       55.279      254.379       61.099        0.061        0.019       15.322        7.377        0.232      340.017       13.747      855.755
10/31/2014  08:53:00       50.541       21.730       19.357       23.033       15.384       22.290      530.503      236.674      496.849        0.233        0.063       55.014       14.254        0.067      339.684       13.186      855.751
10/31/2014  08:54:00       52.356       40.498       20.198       25.282       24.594       25.852      639.202      604.886      668.339        0.335        0.096       66.191       18.064        0.074      339.709       13.228      855.764
10/31/2014  08:55:00       -6.652       15.176       34.272       18.182       25.812       20.217      330.580      666.277      408.740        0.143        0.070       16.570       13.255        0.640      339.956       13.646      855.804
10/31/2014  08:56:00       -3.076       20.156       42.339       13.328       18.956       13.816      177.643      359.344      190.888        0.147        0.036       20.389       12.404        0.370      340.042       13.789      855.834
10/31/2014  08:57:00       15.149       33.839       24.788       17.833       21.751       17.450      318.023      473.120      304.496        0.154        0.055       37.076        9.107        0.060      339.817       13.412      855.834
10/31/2014  08:58:00       -2.465       15.049       25.764       18.441       14.406       13.374      340.070      207.541      178.857        0.081        0.036       15.250       11.747        0.593      340.049       13.801      855.827
10/31/2014  08:59:00        5.926       18.111       16.872       16.891       17.040       11.256      285.297      290.367      126.698        0.067        0.035       19.056        8.377        0.193      340.031       13.770      855.833
10/31/2014  09:00:00      -19.400      -16.143       -6.648       15.769       14.674       11.586      248.672      215.334      134.236        0.064        0.030       25.238        8.957        0.126      339.830       13.432      855.859
10/31/2014  09:01:00       -9.497        3.530        9.037        7.642        8.741       14.471       58.397       76.404      209.416        0.026        0.017       10.132        7.577        0.559      340.140       13.956      855.867
10/31/2014  09:02:00       18.806       23.881       17.300       22.469       19.675       13.213      504.860      387.117      174.576        0.114        0.053       30.396       13.055        0.184      340.093       13.877      855.852
10/31/2014  09:03:00       12.682       26.353       25.362       19.028       17.762       11.636      362.080      315.498      135.401        0.116        0.041       29.245       11.457        0.153      340.125       13.929      855.843
10/31/2014  09:04:00       -6.113        1.692       21.151        7.482       13.242        7.204       55.983      175.347       51.900        0.039        0.014        6.343        4.785        0.569      340.445       14.471      855.829
10/31/2014  09:05:00       11.326       38.738       -6.648       14.628       17.373       14.994      213.964      301.814      224.816        0.121        0.037       40.360       10.227        0.064      340.069       13.834      855.805
10/31/2014  09:06:00       22.665       47.768       -3.204       18.860       23.087       21.109      355.703      533.027      445.599        0.207        0.067       52.872       17.896        0.115      340.155       13.980      855.778
10/31/2014  09:07:00       22.123       55.678       -5.185       25.383       30.678       26.593      644.295      941.120      707.166        0.295        0.115       59.912       25.238        0.177      340.237       14.119      855.773
10/31/2014  09:08:00       -1.019       64.609       -5.396       13.463       26.174       16.546      181.263      685.057      273.780        0.267        0.057       64.617       14.182        0.048      340.210       14.073      855.779
10/31/2014  09:09:00       14.088       50.566        5.726       29.755       31.670       24.619      885.366     1003.000      606.108        0.264        0.125       52.492       22.590        0.185      340.339       14.291      855.799
10/31/2014  09:10:00       22.181       62.618       -2.461       17.534       34.637       27.027      307.437     1199.693      730.453        0.333        0.112       66.431       25.482        0.147      340.280       14.192      855.812
10/31/2014  09:11:00       44.369       40.285       15.764       25.580       30.425       29.610      654.333      925.680      876.779        0.315        0.123       59.929       24.147        0.162      340.320       14.259      855.800
10/31/2014  09:12:00       16.069       22.343        0.761       13.551       24.393       18.775      183.617      595.040      352.519        0.094        0.057       27.521       16.639        0.366      340.509       14.578      855.778
10/31/2014  09:13:00       33.205       24.294       -1.391       45.117       26.773       18.982     2035.569      716.799      360.335        0.240        0.156       41.143       17.766        0.186      340.499       14.563      855.760
10/31/2014  09:14:00       36.786       63.724        4.290       36.677       34.762       23.370     1345.186     1208.420      546.169        0.427        0.155       73.579       21.104        0.082      340.478       14.527      855.762
10/31/2014  09:15:00       95.905       32.432       32.325       68.442       35.400       36.762     4684.342     1253.126     1351.447        0.929        0.364      101.240       28.258        0.078      340.419       14.428      855.761
10/31/2014  09:16:00       65.415       25.072       19.817       53.702       32.128       32.473     2883.906     1032.217     1054.507        0.513        0.249       70.055       27.647        0.156      340.414       14.418      855.759
10/31/2014  09:17:00       23.440       32.214       -0.951       23.350       21.356       20.279      545.220      456.091      411.250        0.150        0.071       39.840        9.445        0.056      340.580       14.699      855.750
10/31/2014  09:18:00       28.148       18.206       18.339       29.941       21.031       21.071      896.473      442.304      443.988        0.162        0.089       33.522       17.748        0.280      340.706       14.911      855.747
10/31/2014  09:19:00       35.358       26.147      -21.844       22.173       35.866       17.728      491.639     1286.379      314.300        0.225        0.105       43.975       15.444        0.123      340.446       14.473      855.762
10/31/2014  09:20:00      -26.708       -7.558        0.905        9.505       15.489       11.523       90.338      239.900      132.770        0.062        0.023       27.756        6.175        0.049      340.479       14.528      855.756
10/31/2014  09:21:00      -38.075        4.506        1.857       12.595       10.761       12.686      158.641      115.808      160.944        0.095        0.022       38.340        2.917        0.006      340.459       14.494      855.742
10/31/2014  09:22:00      -21.862       10.789       23.637       12.312       20.820       22.521      151.590      433.489      507.185        0.112        0.055       24.380       19.023        0.609      340.885       15.215      855.722
10/31/2014  09:23:00       23.615       40.120       43.403       38.062       27.273       32.902     1448.722      743.835     1082.513        0.366        0.164       46.554       28.168        0.366      340.855       15.164      855.698
10/31/2014  09:24:00       15.792       52.244       60.320       33.788       35.047       21.683     1141.614     1228.300      470.174        0.473        0.142       54.579       18.374        0.113      340.969       15.356      855.676
10/31/2014  09:25:00       67.371       67.356       36.539       48.505       38.536       37.526     2352.690     1485.026     1408.200        0.783        0.262       95.266       34.138        0.128      340.815       15.097      855.654
10/31/2014  09:26:00       52.231       69.979       40.033       55.595       28.803       33.244     3090.844      829.611     1105.146        0.713        0.251       87.322       33.887        0.151      340.887       15.218      855.647
10/31/2014  09:27:00       62.103       47.343       63.038       69.006       50.357       54.601     4761.883     2535.845     2981.274        1.017        0.514       78.091       45.587        0.341      340.842       15.141      855.659
10/31/2014  09:28:00       63.157       16.283       36.226       49.790       30.200       31.448     2479.035      912.040      988.987        0.497        0.219       65.223        9.597        0.022      340.694       14.893      855.676
10/31/2014  09:29:00       89.993       53.690       31.527       51.642       28.383       31.658     2666.896      805.594     1002.200        0.822        0.224      104.792       10.182        0.009      340.642       14.804      855.651
10/31/2014  09:30:00      111.267       70.171       11.889       67.365       48.193       42.702     4538.100     2322.522     1823.496        1.306        0.434      131.546       32.326        0.060      340.670       14.851      855.628
10/31/2014  09:31:00       85.981       41.174       16.128       39.517       32.286       36.269     1561.606     1042.379     1315.460        0.663        0.196       95.331       21.448        0.051      340.649       14.817      855.613
10/31/2014  09:32:00       63.235       33.228        2.895       22.636       21.378       20.754      512.388      457.011      430.718        0.326        0.070       71.433       11.400        0.025      340.492       14.549      855.620
10/31/2014  09:33:00       49.823       33.708       14.191       31.160       20.993       19.330      970.922      440.712      373.632        0.280        0.089       60.154       11.260        0.035      340.737       14.964      855.629
10/31/2014  09:34:00       41.340       45.873        9.608       33.327       25.193       28.423     1110.702      634.671      807.841        0.323        0.128       61.752       16.299        0.070      340.854       15.163      855.619
10/31/2014  09:35:00       -2.626       26.382       11.917       15.417       26.056       15.431      237.676      678.916      238.116        0.100        0.058       26.513       11.079        0.175      341.251       15.833      855.599
10/31/2014  09:36:00       52.208       52.700       38.466       65.207       32.170       31.758     4252.013     1034.879     1008.550        0.664        0.315       74.182       30.144        0.165      341.093       15.566      855.578
10/31/2014  09:37:00      129.985       49.746        7.228       51.511       37.260       34.921     2653.366     1388.334     1219.477        1.234        0.263      139.179       20.167        0.021      340.630       14.782      855.565
10/31/2014  09:38:00       62.893      108.277       77.994       61.116       37.559       44.839     3735.173     1410.714     2010.510        1.446        0.358      125.217       39.871        0.101      340.817       15.100      855.548
10/31/2014  09:39:00       -1.120       48.084       69.933       27.803       50.006       33.596      772.984     2500.614     1128.659        0.580        0.220       48.097       29.345        0.372      341.185       15.723      855.550
10/31/2014  09:40:00       12.609       41.585       67.184       30.325       47.378       28.312      919.596     2244.654      801.553        0.518        0.198       43.455       29.233        0.453      341.287       15.895      855.562
10/31/2014  09:41:00       94.563       70.984       33.953       31.778       21.648       29.183     1009.856      468.641      851.644        0.873        0.117      118.241       18.112        0.023      340.582       14.702      855.550
10/31/2014  09:42:00       57.080       50.990       35.529       36.089       30.020       27.942     1302.396      901.227      780.742        0.505        0.149       76.538       21.556        0.079      340.819       15.102      855.525
10/31/2014  09:43:00       68.479       67.064       25.810       77.531       39.945       33.802     6011.058     1595.614     1142.565        0.930        0.437       95.848       28.514        0.089      341.008       15.422      855.521
10/31/2014  09:44:00      100.326       77.308       21.573       44.990       29.908       25.489     2024.145      894.510      649.669        1.004        0.178      126.656        6.961        0.003      340.769       15.018      855.522
10/31/2014  09:45:00       27.680       40.997       54.128       38.564       29.551       33.731     1487.177      873.257     1137.772        0.444        0.175       49.466       14.512        0.086      341.309       15.934      855.508
10/31/2014  09:46:00       55.205       16.780       54.012       54.812       29.958       26.660     3004.318      897.470      710.770        0.543        0.231       57.699       25.148        0.190      340.967       15.354      855.498
10/31/2014  09:47:00       -6.163       33.949       36.461       16.034       20.461       25.678      257.082      418.650      659.358        0.193        0.067       34.504       17.467        0.256      341.047       15.489      855.490
10/31/2014  09:48:00       31.253       62.932       16.220       30.390       39.776       27.885      923.544     1582.113      777.565        0.424        0.164       70.265       18.539        0.070      341.041       15.478      855.485
10/31/2014  09:49:00       46.974       69.429        9.617       38.587       36.205       26.028     1488.947     1310.827      677.445        0.530        0.174       83.827       12.505        0.022      341.226       15.791      855.477
10/31/2014  09:50:00      -12.635       11.570       47.504       19.870       52.967       23.548      394.803     2805.488      554.519        0.315        0.188       17.132       30.119        3.091      341.504       16.262      855.470
10/31/2014  09:51:00       31.013      -24.108       40.951       49.261       55.016       33.219     2426.611     3026.706     1103.530        0.489        0.328       39.281       25.146        0.410      341.131       15.632      855.480
10/31/2014  09:52:00       17.557       84.399       87.445       34.243       33.802       25.604     1172.601     1142.596      655.581        0.902        0.149       86.206       17.868        0.043      341.111       15.596      855.494
10/31/2014  09:53:00       54.893       48.578       63.943       24.782       47.111       25.077      614.142     2219.463      628.855        0.646        0.173       73.301        7.340        0.010      340.929       15.290      855.504
10/31/2014  09:54:00       35.369        6.365       31.102       29.892       25.121       30.478      893.513      631.052      928.888        0.236        0.123       35.937       20.841        0.336      341.011       15.428      855.497
10/31/2014  09:55:00       26.485       38.508       46.901       32.670       27.021       28.171     1067.327      730.150      793.607        0.349        0.130       46.737       21.576        0.213      341.159       15.678      855.477
10/31/2014  09:56:00        3.237       21.015       65.909       22.879       29.238       13.602      523.443      854.855      185.003        0.318        0.078       21.262       11.427        0.289      341.392       16.074      855.457
10/31/2014  09:57:00      113.288       79.095       19.036       64.005       33.282       39.491     4096.617     1107.689     1559.522        1.311        0.338      138.167       40.971        0.088      340.880       15.205      855.444
10/31/2014  09:58:00      106.572       48.592       -3.783       30.337       37.042       21.122      920.341     1372.086      446.142        0.824        0.137      117.127        8.604        0.005      340.806       15.081      855.449
10/31/2014  09:59:00       66.122       18.800       -3.276       24.833       26.124       17.849      616.673      682.461      318.602        0.318        0.081       68.742       11.855        0.030      340.838       15.137      855.440
10/31/2014  10:00:00       21.157       17.814        3.096       21.127       15.007       15.388      446.363      225.216      236.792        0.084        0.045       27.658       12.568        0.206      341.230       15.799      855.404
10/31/2014  10:01:00       34.479       45.511       28.503       41.544       32.837       25.911     1725.898     1078.270      671.368        0.377        0.174       57.097       15.193        0.071      341.445       16.163      855.377
10/31/2014  10:02:00      135.876       82.682       33.525       82.409       51.646       44.782     6791.258     2667.313     2005.407        1.894        0.573      159.056       22.618        0.020      341.115       15.601      855.339
10/31/2014  10:03:00      159.275       86.162       35.839       57.303       37.613       46.465     3283.654     1414.722     2159.010        2.047        0.343      181.087       34.341        0.036      341.014       15.431      855.330
10/31/2014  10:04:00       63.143       33.487       45.111       87.579       44.565       49.082     7670.004     1986.049     2409.022        0.960        0.603       71.474       49.683        0.483      341.318       15.947      855.320
10/31/2014  10:05:00       19.820      -21.339       20.152       35.721       32.498       23.555     1275.971     1056.114      554.828        0.207        0.144       29.124       14.587        0.251      341.262       15.852      855.321
10/31/2014  10:06:00       13.582       32.479        6.485       35.414       29.188       28.240     1254.171      851.966      797.473        0.209        0.145       35.204       20.625        0.343      341.318       15.947      855.319
10/31/2014  10:07:00       -8.927        6.084       21.344        7.838       10.615       11.564       61.435      112.677      133.716        0.044        0.015       10.804        8.982        0.691      341.845       16.841      855.316
10/31/2014  10:08:00      -17.415       27.291       22.543       32.561       15.627       19.867     1060.245      244.206      394.685        0.163        0.085       32.374       12.298        0.144      341.190       15.732      855.305
10/31/2014  10:09:00       -8.547       -3.140        0.565       17.831       10.738       18.112      317.927      115.305      328.029        0.042        0.038        9.105       14.671        2.596      341.406       16.097      855.287
10/31/2014  10:10:00      -13.186       -8.983       -3.240        8.830       11.296       10.901       77.971      127.591      118.831        0.029        0.016       15.955        6.224        0.152      341.322       15.954      855.280
10/31/2014  10:11:00       23.241       15.941       16.813       28.466       20.669       15.646      810.318      427.189      244.811        0.128        0.074       28.183       10.607        0.142      341.797       16.759      855.254
10/31/2014  10:12:00       -1.173       36.069       13.228       18.637       32.273       21.472      347.354     1041.515      461.055        0.166        0.092       36.088       18.198        0.254      341.904       16.942      855.234
10/31/2014  10:13:00      -18.736       35.766       -3.967       28.743       35.283       20.030      826.186     1244.880      401.217        0.206        0.124       40.376       16.740        0.172      341.477       16.216      855.201
10/31/2014  10:14:00       71.423       46.704        3.801       73.489       39.975       33.159     5400.677     1597.992     1099.504        0.770        0.405       85.337       18.119        0.045      341.635       16.485      855.195
10/31/2014  10:15:00      100.280       75.084        9.867       64.615       51.875       33.519     4175.060     2690.989     1123.491        1.189        0.399      125.274       21.985        0.031      341.163       15.685      855.190
10/31/2014  10:16:00       44.147       53.220       -5.846       24.112       23.567       23.231      581.380      555.385      539.672        0.325        0.084       69.147       14.994        0.047      341.391       16.072      855.194
10/31/2014  10:17:00       70.249       52.204       19.615       47.060       33.602       34.964     2214.647     1129.102     1222.476        0.630        0.228       87.522       21.319        0.059      341.601       16.426      855.182
10/31/2014  10:18:00       19.033       20.990       29.465       36.367       29.601       19.707     1322.592      876.248      388.366        0.213        0.129       28.334       13.351        0.222      341.991       17.089      855.179
10/31/2014  10:19:00       43.822       47.342       37.979       35.633       54.901       38.440     1269.730     3014.120     1477.633        0.568        0.288       64.511       27.324        0.179      341.646       16.504      855.173
10/31/2014  10:20:00       48.900       23.284       22.037       51.792       47.119       31.827     2682.455     2220.206     1012.968        0.467        0.296       54.161       17.526        0.105      341.541       16.325      855.162
10/31/2014  10:21:00       69.353       60.655       21.497       44.367       30.222       30.049     1968.425      913.349      902.944        0.637        0.189       92.135       26.497        0.083      341.505       16.266      855.168
10/31/2014  10:22:00       16.570       68.375       86.271       35.255       47.631       27.255     1242.896     2268.745      742.809        0.832        0.213       70.354       29.603        0.177      341.892       16.922      855.171
10/31/2014  10:23:00       67.573       85.803       69.223       41.715       40.452       40.852     1740.164     1636.339     1668.861        1.088        0.252      109.217       34.659        0.101      341.453       16.175      855.173
10/31/2014  10:24:00      129.223       78.074       51.542       67.147       46.084       47.110     4508.754     2123.726     2219.307        1.715        0.443      150.977       40.058        0.070      341.395       16.077      855.160
10/31/2014  10:25:00       47.186      124.999      125.545       52.513       47.101       24.377     2757.580     2218.504      594.221        1.959        0.279      133.609       20.219        0.023      341.380       16.052      855.151
10/31/2014  10:26:00       50.451      100.498       87.315       38.396       40.927       45.136     1474.225     1675.041     2037.229        1.273        0.259      112.451       32.757        0.085      341.431       16.139      855.150
10/31/2014  10:27:00      101.095       76.183       26.211       31.174       39.298       37.468      971.827     1544.346     1403.877        1.031        0.196      126.586       24.789        0.038      341.234       15.805      855.145
10/31/2014  10:28:00       69.697       69.998       36.428       45.330       37.497       38.661     2054.843     1406.042     1494.699        0.802        0.248       98.779       28.533        0.083      341.557       16.352      855.134
10/31/2014  10:29:00       80.704       61.499       11.193       46.506       44.216       29.867     2162.807     1955.035      892.047        0.771        0.250      101.466       24.914        0.060      341.381       16.055      855.123
10/31/2014  10:30:00       92.717       84.735       13.304       44.450       23.465       37.679     1975.824      550.595     1419.690        0.995        0.197      125.604       28.679        0.052      341.269       15.863      855.113
10/31/2014  10:31:00       75.848       54.359       10.526       24.672       17.829       28.026      608.683      317.883      785.471        0.526        0.086       93.316       10.622        0.013      341.209       15.763      855.104
10/31/2014  10:32:00       22.526       40.908       -0.266       22.452       20.871       14.457      504.077      435.618      209.002        0.166        0.057       46.700        6.024        0.017      341.339       15.984      855.089
10/31/2014  10:33:00      -17.105        7.329       34.192       18.484       23.636       25.455      341.655      558.678      647.948        0.153        0.077       18.609       17.059        0.840      341.963       17.041      855.077
10/31/2014  10:34:00       18.594       47.168       56.236       25.149       38.748       16.905      632.454     1501.437      285.785        0.408        0.121       50.700        7.158        0.020      341.949       17.017      855.051
10/31/2014  10:35:00       45.678       55.493       33.460       46.251       33.973       40.564     2139.180     1154.189     1645.447        0.561        0.247       71.875       33.231        0.214      341.780       16.731      855.036
10/31/2014  10:36:00       92.752       85.696       38.956       76.534       47.180       55.248     5857.491     2225.944     3052.287        1.430        0.557      126.280       47.906        0.144      341.671       16.545      855.004
10/31/2014  10:37:00       75.712       66.125       12.739       51.214       40.534       38.878     2622.923     1642.983     1511.513        0.802        0.289      100.523       19.847        0.039      341.761       16.698      854.981
10/31/2014  10:38:00       41.563       61.128       17.582       31.826       27.521       32.024     1012.900      757.410     1025.564        0.428        0.140       73.920       18.714        0.064      341.910       16.949      854.947
10/31/2014  10:39:00        1.533        2.938       18.635       25.489       45.849       25.707      649.675     2102.157      660.842        0.188        0.171        3.313       15.911       23.059      342.036       17.164      854.938
10/31/2014  10:40:00       44.542      -14.176       44.601       45.549       89.423       46.478     2074.685     7996.550     2160.175        0.820        0.612       46.743       53.428        1.306      341.880       16.900      854.905
10/31/2014  10:41:00      137.295       97.446       33.321       46.067       33.882       37.615     2122.195     1147.979     1414.869        1.707        0.234      168.362       18.392        0.012      341.649       16.508      854.895
10/31/2014  10:42:00       91.949       80.872        7.574       27.458       30.507       33.185      753.931      930.700     1101.222        0.892        0.139      122.453       16.425        0.018      341.788       16.744      854.894
10/31/2014  10:43:00       46.795       47.124        6.950       47.043       37.585       30.740     2213.073     1412.627      944.950        0.451        0.229       66.411       24.672        0.138      342.032       17.157      854.886
10/31/2014  10:44:00       29.978       49.012       14.386       30.294       40.204       27.002      917.756     1616.323      729.104        0.338        0.163       57.453       20.172        0.123      342.082       17.242      854.866
10/31/2014  10:45:00       -3.691       26.712       11.374       14.911       30.466       22.797      222.348      928.196      519.714        0.126        0.084       26.966       18.574        0.474      342.122       17.311      854.854
10/31/2014  10:46:00      -33.624       31.414      -19.697       16.593       26.593       14.217      275.318      707.168      202.113        0.184        0.059       46.016        9.487        0.043      341.602       16.430      854.841
10/31/2014  10:47:00      -67.975       16.680      -14.944       16.291       13.219       11.245      265.400      174.743      126.450        0.284        0.028       69.992        6.860        0.010      341.505       16.264      854.815
10/31/2014  10:48:00      -32.749       13.387       -8.008       11.571       22.228       15.190      133.889      494.083      230.731        0.109        0.043       35.379        1.746        0.002      341.706       16.604      854.801
10/31/2014  10:49:00      -22.705       70.713      -28.968       42.809       58.034       19.127     1832.614     3367.974      365.830        0.596        0.278       74.268       13.887        0.035      341.625       16.467      854.786
10/31/2014  10:50:00      -14.863       -4.839      -16.718       47.250       27.745       17.171     2232.518      769.777      294.838        0.191        0.165       15.631       22.159        2.010      341.734       16.650      854.784
10/31/2014  10:51:00        3.233       52.738        2.238       24.149       38.460       21.146      583.175     1479.192      447.146        0.265        0.125       52.837       23.119        0.191      342.193       17.430      854.770
10/31/2014  10:52:00      -15.423       77.079       -4.445       25.380       46.024       28.338      644.164     2118.250      803.052        0.488        0.178       78.607       25.301        0.104      342.108       17.288      854.771
10/31/2014  10:53:00      -14.575      107.536       -4.080       23.557       63.227       28.753      554.955     3997.620      826.709        0.859        0.269      108.519       34.327        0.100      342.051       17.191      854.755
10/31/2014  10:54:00      -11.942       69.617       19.387       28.702       66.082       33.602      823.782     4366.778     1129.112        0.584        0.316       70.634       37.695        0.285      342.437       17.847      854.757
10/31/2014  10:55:00      -65.220       49.718       -8.460       40.286       33.914       32.131     1622.982     1150.193     1032.418        0.530        0.190       82.009       32.855        0.161      342.034       17.161      854.759
10/31/2014  10:56:00      -26.841       39.468       -0.289       30.484       38.892       27.021      929.270     1512.565      730.132        0.272        0.159       47.730       24.142        0.256      342.261       17.546      854.767
10/31/2014  10:57:00      -12.201       75.205       10.423       28.005       58.590       33.804      784.276     3432.760     1142.723        0.564        0.268       76.188       36.414        0.228      342.482       17.924      854.764
10/31/2014  10:58:00       11.127       94.116       -9.368       47.603       39.432       39.971     2266.012     1554.899     1597.664        0.724        0.271       94.771       26.662        0.079      342.163       17.381      854.769
10/31/2014  10:59:00       75.573      106.912      -11.112       71.431       55.204       40.105     5102.454     3047.531     1608.412        1.351        0.488      130.925       32.453        0.061      342.075       17.229      854.762
10/31/2014  11:00:00       36.378       58.440        6.422       34.286       65.652       39.232     1175.498     4310.171     1539.130        0.590        0.351       68.838       45.761        0.442      342.211       17.461      854.777
10/31/2014  11:01:00       56.729       78.814       17.807       43.049       39.965       45.578     1853.213     1597.232     2077.328        0.764        0.276       97.107       23.400        0.058      342.389       17.764      854.772
10/31/2014  11:02:00       35.694       74.185       76.683       50.301       42.013       44.500     2530.147     1765.064     1980.290        0.947        0.314       82.326       27.366        0.110      342.190       17.427      854.766
10/31/2014  11:03:00       38.118       73.884       89.912       39.413       47.913       29.385     1553.367     2295.669      863.497        0.985        0.236       83.137       25.399        0.093      342.062       17.208      854.740
10/31/2014  11:04:00        3.876       68.608       88.965       21.945       43.497       21.375      481.569     1891.978      456.895        0.773        0.142       68.717       25.723        0.140      342.411       17.803      854.721
10/31/2014  11:05:00       22.768       13.876       36.931       34.590       59.946       39.191     1196.489     3593.530     1535.901        0.420        0.316       26.663       36.521        1.876      342.337       17.675      854.701
10/31/2014  11:06:00       22.014       -0.911       24.337       30.270       30.217       28.012      916.272      913.039      784.655        0.185        0.131       22.033       23.461        1.134      342.471       17.903      854.699
10/31/2014  11:07:00       29.558       36.417       29.580       33.859       44.112       31.029     1146.421     1945.846      962.821        0.356        0.203       46.903        5.877        0.016      342.581       18.092      854.702
10/31/2014  11:08:00        7.519       84.123        8.960       28.828       53.880       31.108      831.063     2903.086      967.717        0.596        0.235       84.458       33.068        0.153      342.304       17.619      854.703
10/31/2014  11:09:00       -4.697       25.860       20.704       33.143       35.174       22.709     1098.480     1237.204      515.678        0.198        0.143       26.283       17.607        0.449      342.679       18.257      854.704
10/31/2014  11:10:00      -24.798       79.422        4.876       37.950       44.878       28.430     1440.183     2014.030      808.241        0.560        0.213       83.203       15.910        0.037      342.272       17.566      854.693
10/31/2014  11:11:00       -1.682       69.164        1.781       39.164       40.160       25.668     1533.813     1612.788      658.848        0.430        0.190       69.185        9.546        0.019      342.415       17.809      854.673
10/31/2014  11:12:00        7.344      136.890       -6.286       24.890       69.635       34.514      619.521     4848.981     1191.221        1.274        0.333      137.087       37.381        0.074      342.138       17.338      854.655
10/31/2014  11:13:00        4.967       87.231       10.106       32.816       54.429       40.574     1076.914     2962.525     1646.262        0.671        0.284       87.373       36.989        0.179      342.377       17.745      854.649
10/31/2014  11:14:00       14.030       95.874       -9.203       32.059       36.091       29.333     1027.760     1302.534      860.424        0.633        0.160       96.895       26.061        0.072      342.280       17.579      854.643
10/31/2014  11:15:00      -30.431      102.012       -4.564       27.972       45.551       31.480      782.425     2074.898      991.019        0.760        0.192      106.454       22.641        0.045      342.252       17.533      854.632
10/31/2014  11:16:00      -44.619      102.831       -6.639       34.164       58.318       27.720     1167.180     3401.007      768.384        0.897        0.267      112.094       29.246        0.068      342.348       17.697      854.629
10/31/2014  11:17:00      -37.429      124.762      -27.099       50.576       43.896       29.740     2557.979     1926.849      884.445        1.153        0.268      130.255       20.851        0.026      342.022       17.140      854.624
10/31/2014  11:18:00       53.760       -9.421       18.418       46.334       39.470       35.772     2146.841     1557.878     1279.603        0.415        0.249       54.580       24.496        0.201      342.273       17.567      854.623
10/31/2014  11:19:00       -5.701       19.850       20.728       20.357       72.863       33.160      414.423     5309.029     1099.557        0.384        0.341       20.653       40.021        3.755      342.635       18.182      854.599
10/31/2014  11:20:00      -14.327      155.533      -10.148       41.301       47.240       37.908     1705.796     2231.594     1436.989        1.494        0.269      156.192       31.824        0.042      342.198       17.441      854.590
10/31/2014  11:21:00      -18.577      109.503       -3.427       33.463       44.988       32.479     1119.757     2023.893     1054.907        0.827        0.210      111.068       29.568        0.071      342.295       17.604      854.569
10/31/2014  11:22:00       15.201      128.624      -13.647       38.633       72.519       37.569     1492.524     5259.064     1411.447        1.256        0.408      129.520       39.065        0.091      342.179       17.408      854.542
10/31/2014  11:23:00        0.736      135.059       -7.564       22.987       60.731       28.692      528.417     3688.267      823.250        1.167        0.252      135.061       32.394        0.058      342.160       17.376      854.537
10/31/2014  11:24:00        3.945      116.718       -1.378       73.832       58.957       36.403     5451.103     3475.890     1325.162        1.194        0.513      116.785       34.765        0.089      342.204       17.450      854.519
10/31/2014  11:25:00       -8.585       59.921       11.897       43.355       58.582       34.219     1879.616     3431.799     1170.972        0.514        0.324       60.533       39.104        0.417      342.583       18.094      854.507
10/31/2014  11:26:00        8.444       64.113        3.573       41.430       51.679       31.193     1716.408     2670.739      973.025        0.478        0.268       64.667       24.175        0.140      342.353       17.703      854.468
10/31/2014  11:27:00       -3.383       57.136       10.751       26.001       45.917       34.277      676.070     2108.414     1174.940        0.367        0.198       57.236       31.273        0.299      342.594       18.113      854.446
10/31/2014  11:28:00      -13.337       96.555        4.476       32.391       56.450       37.148     1049.205     3186.582     1379.946        0.757        0.281       97.471       33.430        0.118      342.524       17.994      854.442
10/31/2014  11:29:00      -14.820       81.533       -4.358       25.065       41.774       26.750      628.270     1745.107      715.569        0.499        0.154       82.869       24.136        0.085      342.322       17.651      854.443
10/31/2014  11:30:00      -52.285       64.679      -14.110       36.567       39.423       26.649     1337.131     1554.153      710.166        0.536        0.180       83.169       22.066        0.070      342.214       17.468      854.446
10/31/2014  11:31:00      -45.993       13.260       -2.081       43.430       23.497       23.348     1886.136      552.109      545.110        0.264        0.149       47.866       20.456        0.183      342.153       17.363      854.441
10/31/2014  11:32:00      147.821      107.682        8.403       64.427       63.730       40.727     4150.877     4061.551     1658.661        2.169        0.494      182.884       22.415        0.015      342.059       17.201      854.445
10/31/2014  11:33:00      125.634       78.902       19.189       40.221       38.298       35.483     1617.743     1466.744     1259.064        1.336        0.217      148.356       23.466        0.025      341.912       16.955      854.425
10/31/2014  11:34:00       93.330       79.950       56.321       54.795       46.751       48.680     3002.469     2185.634     2369.790        1.291        0.378      122.893       35.705        0.084      342.172       17.396      854.384
10/31/2014  11:35:00       49.898       52.212       57.832       73.026       58.804       48.998     5332.821     3457.935     2400.810        0.987        0.560       72.221       37.664        0.272      342.445       17.858      854.364
10/31/2014  11:36:00       60.439      134.134      -10.124       45.058       76.385       46.619     2030.194     5834.650     2173.349        1.589        0.502      147.122       46.252        0.099      342.347       17.691      854.366
10/31/2014  11:37:00       69.469       93.807        3.776       62.262       51.379       40.443     3876.544     2639.848     1635.669        1.089        0.408      116.729       30.677        0.069      342.458       17.883      854.364
10/31/2014  11:38:00       58.404       98.835       -4.523       49.530       63.930       39.934     2453.254     4087.015     1594.732        1.067        0.407      114.802       38.251        0.111      342.496       17.947      854.344
10/31/2014  11:39:00       41.432      154.791      -10.521       49.205       92.279       47.843     2421.151     8515.472     2288.914        1.950        0.661      160.240       49.196        0.094      342.477       17.912      854.323
10/31/2014  11:40:00       -7.614      246.496      -32.432       37.612       76.134       28.575     1414.697     5796.395      816.535        3.495        0.401      246.613       32.146        0.017      342.032       17.155      854.310
10/31/2014  11:41:00       17.985      154.157       -6.160       47.083       75.196       44.100     2216.849     5654.425     1944.845        1.697        0.491      155.203       47.291        0.093      342.435       17.840      854.293
10/31/2014  11:42:00       37.896       71.330        0.768       31.948       30.433       32.759     1020.663      926.158     1073.125        0.477        0.151       80.772       25.805        0.102      342.401       17.786      854.293
10/31/2014  11:43:00       23.483       28.460        5.968       30.490       25.877       25.718      929.622      669.627      661.403        0.183        0.113       36.897       13.729        0.138      342.526       17.998      854.296
10/31/2014  11:44:00       20.314       47.441       29.847       76.161       53.737       41.265     5800.459     2887.618     1702.823        0.697        0.520       51.607       33.204        0.414      342.480       17.919      854.280
10/31/2014  11:45:00      -98.245       74.009      -20.216       51.144       55.330       30.532     2615.703     3061.463      932.230        1.107        0.330      123.002       25.532        0.043      342.292       17.599      854.274
10/31/2014  11:46:00     -123.144       44.050      -12.247       70.248       46.713       33.401     4934.774     2182.123     1115.647        1.274        0.412      130.785       40.073        0.094      342.413       17.804      854.265
10/31/2014  11:47:00     -202.076       -1.970      -43.110       69.993       74.090       39.047     4899.063     5489.267     1524.692        2.730        0.596      202.085       34.133        0.029      342.173       17.394      854.250
10/31/2014  11:48:00     -184.418      -61.261      -13.202       63.341       54.995       34.225     4012.038     3024.465     1171.340        2.307        0.410      194.327       33.568        0.030      342.017       17.132      854.233
10/31/2014  11:49:00      -95.100      -45.837       16.446       75.232       47.104       36.324     5659.868     2218.824     1319.432        1.031        0.460      105.571       37.817        0.128      342.273       17.566      854.190
10/31/2014  11:50:00       37.220      -45.410       -3.214       38.534       49.385       28.984     1484.866     2438.889      840.052        0.411        0.238       58.714       23.473        0.160      342.438       17.849      854.141
10/31/2014  11:51:00       15.286       12.586       26.775       31.811       29.852       21.633     1011.950      891.132      467.983        0.174        0.119       19.800       14.111        0.508      342.792       18.450      854.086
10/31/2014  11:52:00      -10.328      130.558        8.695       41.317       62.550       35.700     1707.128     3912.464     1274.509        1.206        0.345      130.966       35.332        0.073      342.800       18.464      854.053
10/31/2014  11:53:00      -51.934      190.621      -18.463       39.194       73.873       32.476     1536.200     5457.289     1054.675        2.371        0.402      197.569       32.878        0.028      342.387       17.758      854.054
10/31/2014  11:54:00      -28.838      108.262        0.059       34.338       56.461       35.733     1179.120     3187.893     1276.858        0.910        0.282      112.037       34.531        0.095      342.806       18.474      854.059
10/31/2014  11:55:00      -11.964      185.255      -19.146       25.999       39.618       27.168      675.956     1569.595      738.097        1.891        0.149      185.641       22.094        0.014      342.290       17.596      854.042
10/31/2014  11:56:00       11.736       94.715       -6.639       44.546       56.622       29.100     1984.372     3206.069      846.783        0.759        0.302       95.439       27.848        0.085      342.542       18.024      854.009
10/31/2014  11:57:00       69.564       37.641       32.592       43.915       38.791       36.144     1928.498     1504.731     1306.367        0.603        0.237       79.095       25.217        0.102      342.479       17.916      853.994
10/31/2014  11:58:00      -34.250      120.155      -17.581       63.441       51.245       31.894     4024.782     2626.054     1017.218        1.179        0.383      124.941       35.951        0.083      342.449       17.867      853.999
10/31/2014  11:59:00      -15.193       40.220       19.629       30.623       50.337       31.413      937.752     2533.832      986.764        0.335        0.223       42.994       20.007        0.217      343.063       18.912      853.975
10/31/2014  12:00:00      -27.229      -11.704        5.096       37.915       20.615       19.925     1437.562      424.990      396.997        0.158        0.113       29.637       16.560        0.312      342.820       18.498      853.959
10/31/2014  12:01:00      -67.006      -14.654       20.725       66.042       58.850       29.400     4361.569     3463.325      864.366        0.691        0.434       68.589       34.845        0.258      342.988       18.783      853.954
10/31/2014  12:02:00      -99.864      -77.710        3.789       77.690       66.763       46.130     6035.704     4457.346     2127.986        1.432        0.631      126.537       50.892        0.162      342.659       18.223      853.931
10/31/2014  12:03:00     -109.114      -21.770       -0.822       32.762       39.198       19.107     1073.353     1536.479      365.059        0.768        0.149      111.264       12.162        0.012      342.272       17.567      853.898
10/31/2014  12:04:00      -21.368        7.665       13.038       48.353       22.552       17.373     2338.025      508.586      301.824        0.192        0.157       22.701       16.778        0.546      342.615       18.149      853.830
10/31/2014  12:05:00       55.008       13.637       10.564       23.656       16.982       21.778      559.600      288.393      474.282        0.232        0.066       56.673        7.921        0.020      342.938       18.699      853.764
10/31/2014  12:06:00       11.420       25.392        7.071       23.181       28.925       20.539      537.336      836.668      421.858        0.131        0.090       27.841       16.097        0.334      342.998       18.800      853.722
10/31/2014  12:07:00       14.376       48.199       -5.751       28.504       41.958       23.292      812.466     1760.498      542.531        0.284        0.156       50.297       24.792        0.243      342.804       18.471      853.678
10/31/2014  12:08:00      -23.313       -0.058      -11.674       58.620       85.533       29.453     3436.283     7315.946      867.452        0.615        0.581       23.313       23.430        1.010      342.685       18.269      853.703
10/31/2014  12:09:00     -211.223     -155.238      -10.180       83.532       61.666       44.593     6977.672     3802.735     1988.505        4.079        0.638      262.133       42.189        0.026      342.428       17.827      853.780
10/31/2014  12:10:00     -248.470     -168.541       -8.602      126.976       95.450       51.523    16122.922     9110.743     2654.583        5.905        1.394      300.239       60.667        0.041      342.465       17.890      853.782
10/31/2014  12:11:00       -6.335       26.084       32.415       56.944       54.045       46.909     3242.563     2920.828     2200.422        0.507        0.418       26.842       43.333        2.606      343.055       18.898      853.666
10/31/2014  12:12:00       72.480       23.879       18.536       57.686       89.393       43.679     3327.663     7991.182     1907.857        0.969        0.661       76.313       31.419        0.170      342.746       18.372      853.634
10/31/2014  12:13:00      -29.327      -60.480       -1.379      149.324       91.051       47.635    22297.756     8290.339     2269.089        1.868        1.643       67.215       40.200        0.358      342.663       18.229      853.670
10/31/2014  12:14:00     -162.259      -30.251      -20.360      154.562      124.668       50.434    23889.508    15542.136     2543.637        3.481        2.099      165.055       51.251        0.096      342.956       18.727      853.599
10/31/2014  12:15:00      -41.145      -95.586       18.096       90.450      132.056       64.029     8181.209    17438.682     4099.724        2.043        1.486      104.065       74.347        0.510      343.206       19.151      853.623
10/31/2014  12:16:00       89.515     -204.039       29.869      134.884      205.094       82.239    18193.637    42063.654     6763.281        5.877        3.351      222.811       88.321        0.157      343.214       19.166      853.597
10/31/2014  12:17:00        9.507     -304.803        4.430      189.201      287.266       72.274    35797.119    82521.537     5223.504       10.825        6.177      304.951       65.694        0.046      343.062       18.906      853.564
10/31/2014  12:18:00      -28.651      -66.779       22.041       89.674       96.804       52.212     8041.358     9370.940     2726.101        1.295        1.007       72.666       50.954        0.492      343.334       19.371      853.544
10/31/2014  12:19:00       52.692     -244.457       -7.391      130.525      120.440       76.276    17036.766    14505.778     5817.980        4.997        1.868      250.072       57.962        0.054      343.146       19.049      853.494
10/31/2014  12:20:00       57.811     -249.289      -26.267      129.817      120.650       75.531    16852.492    14556.395     5704.912        5.164        1.856      255.905       49.734        0.038      343.098       18.966      853.470
10/31/2014  12:21:00      -16.538     -141.177       24.535      120.624      133.363       82.403    14550.153    17785.806     6790.261        2.996        1.956      142.143       82.857        0.340      343.397       19.478      853.422
10/31/2014  12:22:00       92.324     -242.617      -12.554      146.711      180.988      105.247    21524.104    32756.619    11076.893        6.644        3.268      259.590      106.953        0.170      343.146       19.050      853.371
10/31/2014  12:23:00      151.227     -263.874      -20.505      190.646      224.544      111.491    36346.014    50420.058    12430.203        9.604        4.960      304.137      129.831        0.182      343.139       19.039      853.327
10/31/2014  12:24:00       99.254     -193.718      -14.341      134.042      156.900      111.934    17967.326    24617.583    12529.286        5.134        2.756      217.665      100.938        0.215      343.187       19.118      853.308
10/31/2014  12:25:00       30.526     -151.712        0.227       90.606      116.595       79.109     8209.534    13594.502     6258.161        2.600        1.403      154.753       69.792        0.203      343.393       19.469      853.317
10/31/2014  12:26:00       26.450     -189.608      -16.154      126.165      105.947       62.622    15917.664    11224.662     3921.510        3.398        1.553      191.444       51.581        0.073      343.315       19.336      853.291
10/31/2014  12:27:00       84.506     -200.300       24.041      112.517      162.895       90.411    12659.964    26534.695     8174.128        4.759        2.368      217.396       93.072        0.183      343.251       19.225      853.295
10/31/2014  12:28:00       -0.483     -169.069       25.666      147.076      132.486       67.113    21631.206    17552.586     4504.206        3.646        2.184      169.070       47.096        0.078      343.302       19.317      853.274
10/31/2014  12:29:00      -83.783     -162.453       -6.944      133.591      113.858       72.171    17846.465    12963.564     5208.589        3.473        1.801      182.786       69.703        0.145      343.139       19.038      853.282
10/31/2014  12:30:00        8.123     -147.681       21.413      128.461      114.056       53.220    16502.304    13008.781     2832.336        2.733        1.617      147.904       46.343        0.098      343.143       19.046      853.250
10/31/2014  12:31:00      -67.046     -171.010       30.240      139.499      163.627       92.006    19460.059    26773.643     8465.114        4.467        2.735      183.684       92.305        0.253      343.177       19.102      853.222
10/31/2014  12:32:00      -21.966     -199.370       -1.308      111.493      168.328       94.150    12430.754    28334.319     8864.161        4.492        2.481      200.576       66.189        0.109      343.208       19.155      853.154
10/31/2014  12:33:00      -94.297     -190.353        3.935      140.410      144.725       73.927    19714.932    20945.266     5465.260        4.562        2.306      212.429       57.919        0.074      343.247       19.223      853.197
10/31/2014  12:34:00      -15.719     -331.443      -26.447      224.417      160.138      102.033    50363.069    25644.129    10410.821        9.859        4.321      331.815       79.855        0.058      343.046       18.878      853.190
10/31/2014  12:35:00      -74.440     -192.562       -2.476      178.307      127.131       73.087    31793.403    16162.270     5341.740        4.795        2.665      206.449       55.286        0.072      343.160       19.072      853.123
10/31/2014  12:36:00      124.475     -140.035       15.767      153.186      132.472       65.839    23465.878    17548.724     4334.756        4.034        2.267      187.360       75.450        0.162      343.455       19.578      853.153
10/31/2014  12:37:00       16.205     -225.718       -1.637      110.650      139.152       83.776    12243.445    19363.283     7018.489        4.491        1.931      226.299       56.272        0.062      343.272       19.264      853.120
10/31/2014  12:38:00      132.484     -128.923       71.953      149.923      208.015      123.414    22476.898    43270.390    15231.098        6.015        4.049      184.860      131.396        0.505      343.335       19.373      853.065
10/31/2014  12:39:00      161.890     -247.822        3.888      142.810      212.718      125.814    20394.773    45248.943    15829.183        8.454        4.074      296.014      128.515        0.188      343.182       19.109      853.069
10/31/2014  12:40:00        8.836       31.500      160.182       83.906      110.439       79.948     7040.184    12196.767     6391.710        2.617        1.281       32.716       67.752        4.289      343.471       19.603      853.053
10/31/2014  12:41:00       78.746     -251.344        6.664      113.421      154.657       80.602    12864.369    23918.698     6496.698        5.634        2.164      263.391       66.903        0.065      343.218       19.173      853.112
10/31/2014  12:42:00      111.926     -125.337       54.513      125.671      218.513      126.361    15793.083    47747.940    15967.128        5.534        3.975      168.038      141.393        0.708      343.362       19.416      853.042
10/31/2014  12:43:00      161.472     -132.771        8.645      183.671      195.897      132.280    33734.904    38375.778    17497.963        6.667        4.480      209.049      136.299        0.425      343.283       19.283      853.041
10/31/2014  12:44:00       -6.724     -111.280       21.955      124.917      139.531       76.719    15604.326    19468.784     5885.849        2.693        2.048      111.483       71.058        0.406      343.381       19.450      853.109
10/31/2014  12:45:00       -3.290     -146.188       25.413      112.321      120.826       72.786    12615.922    14599.002     5297.740        2.726        1.626      146.225       71.804        0.241      343.355       19.407      853.018
10/31/2014  12:46:00      -81.924     -194.457        7.049      167.939      139.180       94.403    28203.606    19371.033     8911.991        5.052        2.824      211.009       84.085        0.159      343.292       19.298      853.047
10/31/2014  12:47:00       23.085      -97.839       63.161       96.431      206.435       94.367     9298.901    42615.563     8905.114        3.744        3.041      100.526      118.666        1.393      343.401       19.484      853.037
10/31/2014  12:48:00      -20.081     -115.509       -9.860       63.123       84.349       65.503     3984.481     7114.741     4290.596        1.461        0.769      117.241       58.614        0.250      343.411       19.503      853.046
10/31/2014  12:49:00      -12.515      -87.098        5.428      114.989       86.112       73.969    13222.475     7415.361     5471.342        1.694        1.305       87.992       58.275        0.439      343.432       19.537      852.977
10/31/2014  12:50:00     -127.192     -129.484       11.618      172.416       89.121       61.490    29727.262     7942.501     3781.055        3.726        2.073      181.504       56.437        0.097      343.444       19.559      852.938
10/31/2014  12:51:00       19.249     -112.336       26.345      107.033      145.090       82.780    11456.033    21051.015     6852.572        2.651        1.968      113.973       90.798        0.635      343.569       19.770      852.959
10/31/2014  12:52:00       -1.455     -255.910       15.948      133.267      192.241       85.441    17760.062    36956.547     7300.202        6.387        3.101      255.914       83.609        0.107      343.362       19.418      852.934
10/31/2014  12:53:00       54.195      -91.118       27.717      125.563      129.838       72.897    15766.129    16857.835     5313.926        2.497        1.897      106.017       82.305        0.603      343.520       19.688      852.896
10/31/2014  12:54:00        9.608     -188.014      -25.281      160.128      154.572       68.437    25641.068    23892.567     4683.631        4.514        2.711      188.260       72.226        0.147      343.399       19.479      852.898
10/31/2014  12:55:00      -43.231     -102.098       -6.048       94.338      117.728       72.645     8899.704    13859.816     5277.313        2.018        1.402      110.874       60.371        0.296      343.521       19.690      852.855
10/31/2014  12:56:00     -110.114     -176.412       -4.699      145.163      148.001      107.690    21072.262    21904.245    11597.045        4.891        2.729      207.957       79.835        0.147      343.581       19.791      852.806
10/31/2014  12:57:00      -40.078     -116.948        7.010      113.014       91.066       77.055    12772.110     8292.981     5937.437        2.116        1.350      123.625       20.986        0.029      343.461       19.588      852.858
10/31/2014  12:58:00      -24.469      -51.649        4.597       62.998      104.024       52.077     3968.718    10820.977     2712.001        1.039        0.875       57.152       39.506        0.478      343.562       19.761      852.826
10/31/2014  12:59:00      -18.559     -143.099       -7.117      101.356       90.059       48.661    10272.996     8110.655     2367.924        2.081        1.038      144.297       35.175        0.059      343.464       19.594      852.842
10/31/2014  13:00:00      -95.164     -213.116       -1.782      135.638      110.133       73.395    18397.663    12129.275     5386.831        4.519        1.796      233.398       27.327        0.014      343.269       19.259      852.849
10/31/2014  13:01:00       -5.176     -302.536      -25.263      186.495      152.068       84.371    34780.287    23124.593     7118.413        7.860        3.251      302.580       59.694        0.039      343.243       19.214      852.830
10/31/2014  13:02:00     -200.186     -138.398       25.394      208.709      175.430      109.319    43559.524    30775.800    11950.626        7.306        4.314      243.369      109.610        0.203      343.208       19.155      852.802
10/31/2014  13:03:00        4.840     -256.574       -5.053      134.262      150.577       57.851    18026.312    22673.380     3346.695        5.495        2.202      256.619       53.155        0.043      343.229       19.191      852.769
10/31/2014  13:04:00     -238.229     -199.518       18.112      251.741      182.386      114.721    63373.696    33264.508    13160.881       10.332        5.490      310.742      117.529        0.143      343.382       19.450      852.726
10/31/2014  13:05:00       43.023     -277.650      -36.352      254.476      196.899      112.690    64757.971    38769.150    12698.995        9.822        5.811      280.964      100.212        0.127      343.478       19.616      852.686
10/31/2014  13:06:00     -256.343     -290.436      -18.876      160.467      122.217       72.236    25749.613    14936.898     5218.060        9.815        2.295      387.382       63.524        0.027      343.357       19.408      852.768
10/31/2014  13:07:00     -293.132     -268.166      -26.830      199.772      172.811       89.927    39908.743    29863.633     8086.932       11.819        3.893      397.290       90.204        0.052      343.292       19.297      852.788
10/31/2014  13:08:00     -173.488     -243.511       -6.966      154.857      169.652       82.803    23980.755    28781.691     6856.387        7.452        2.981      298.991       67.313        0.051      343.185       19.116      852.795
10/31/2014  13:09:00     -153.742     -132.228        8.659      139.457      133.536       71.585    19448.378    17831.809     5124.474        4.179        2.120      202.782       65.655        0.105      343.281       19.281      852.739
10/31/2014  13:10:00      -46.878     -162.648       -9.657      118.434       99.849       69.733    14026.630     9969.786     4862.685        2.880        1.443      169.269       50.151        0.088      343.402       19.485      852.720
10/31/2014  13:11:00      -99.013     -121.424        2.913      107.195      113.903       65.782    11490.813    12973.942     4327.247        2.667        1.440      156.676       58.142        0.138      343.551       19.740      852.699
10/31/2014  13:12:00     -114.111     -302.845      -23.089      161.811      154.288       94.080    26182.811    23804.854     8851.042        8.204        2.942      323.630       71.921        0.049      343.465       19.592      852.708
10/31/2014  13:13:00     -102.981     -240.784      -19.469      182.984      130.887       99.368    33483.177    17131.341     9873.969        6.471        3.024      261.882       81.735        0.097      343.410       19.498      852.666
10/31/2014  13:14:00      -98.445     -233.694        4.354      189.796      154.229       78.280    36022.696    23786.502     6127.799        6.512        3.297      253.583       57.058        0.051      343.463       19.590      852.631
10/31/2014  13:15:00     -247.286     -268.736      -25.720      167.470      131.016       87.057    28046.163    17165.078     7578.941        9.340        2.640      365.198       70.116        0.037      343.151       19.056      852.645
10/31/2014  13:16:00     -109.932     -184.789       -5.552      158.117      116.351       60.982    25000.940    13537.602     3718.834        4.425        2.113      215.017       47.387        0.049      343.310       19.329      852.658
10/31/2014  13:17:00      -23.936      -26.718       35.699      103.556      118.544       63.744    10723.848    14052.668     4063.240        1.569        1.442       35.872       60.685        2.862      343.527       19.701      852.647
10/31/2014  13:18:00      126.674     -179.469       24.060      116.845      154.291       84.017    13652.672    23805.691     7058.876        4.667        2.226      219.671       86.079        0.154      343.475       19.610      852.591
10/31/2014  13:19:00     -151.163     -192.924       -9.896      124.946      111.260       85.887    15611.405    12378.860     7376.653        4.776        1.768      245.092       42.166        0.030      343.646       19.901      852.524
10/31/2014  13:20:00        4.349      -47.284       21.791       94.936       87.022       59.290     9012.753     7572.817     3515.273        1.141        1.005       47.484       55.719        1.377      343.705       20.006      852.557
10/31/2014  13:21:00      -32.757     -161.548       11.883      151.493      130.440       74.896    22949.983    17014.713     5609.338        3.643        2.279      164.836       69.007        0.175      343.723       20.033      852.529
10/31/2014  13:22:00     -273.537     -215.198        7.237      173.002      137.978       77.564    29929.535    19037.812     6016.151        8.807        2.749      348.041       79.896        0.053      343.589       19.804      852.572
10/31/2014  13:23:00     -231.083     -294.923      -23.819      138.694      196.525       83.669    19236.119    38622.152     7000.488       10.289        3.243      374.672       74.254        0.039      343.393       19.470      852.546
10/31/2014  13:24:00     -208.231     -201.964        0.312      216.448      148.792       80.651    46849.531    22139.063     6504.626        7.981        3.775      290.085       72.133        0.062      343.264       19.249      852.450
10/31/2014  13:25:00     -249.699     -346.558        1.145      226.860      255.735      102.949    51465.367    65400.602    10598.518       15.493        6.373      427.144      114.199        0.071      343.259       19.241      852.490
10/31/2014  13:26:00     -115.425     -315.794      -26.260      208.229      180.964      103.398    43359.234    32747.912    10691.124       10.025        4.340      336.227       56.483        0.028      343.151       19.056      852.475
10/31/2014  13:27:00      -86.446     -131.270      -25.671      103.787      165.749       59.198    10771.651    27472.704     3504.395        3.355        2.087      157.177       26.155        0.028      343.257       19.240      852.415
10/31/2014  13:28:00      -52.589     -178.519        9.017      200.638      175.375       86.866    40255.462    30756.490     7545.769        5.662        3.928      186.104       84.052        0.204      343.412       19.501      852.366
10/31/2014  13:29:00     -204.105     -166.187       12.497      148.394      140.013       72.044    22020.666    19603.567     5190.372        5.811        2.341      263.206       85.383        0.105      343.369       19.430      852.381
10/31/2014  13:30:00     -183.708     -255.055       -1.835      142.074      200.189       75.867    20184.950    40075.754     5755.833        8.240        3.301      314.328       70.956        0.051      343.277       19.272      852.333
10/31/2014  13:31:00     -318.836     -226.882       12.823      269.237      215.384      119.133    72488.509    46390.310    14192.649       14.316        6.654      391.321      146.960        0.141      343.367       19.425      852.243
10/31/2014  13:32:00     -189.580      -93.633       -8.594      206.438      102.081       51.511    42616.563    10420.538     2653.402        5.023        2.785      211.442       60.527        0.082      343.527       19.699      852.292
10/31/2014  13:33:00     -273.564     -215.222        5.258      200.215      166.372       87.907    40086.143    27679.572     7727.611        9.832        3.775      348.078       91.028        0.068      343.568       19.767      852.272
10/31/2014  13:34:00     -270.165     -410.672      -21.573      204.448      223.155       95.195    41798.946    49798.233     9062.049       17.136        5.033      491.570      102.541        0.044      343.288       19.290      852.253
10/31/2014  13:35:00     -168.813     -334.898       -0.771      122.532      171.032       67.232    15014.155    29251.912     4520.119        9.471        2.439      375.039       56.847        0.023      343.379       19.446      852.281
10/31/2014  13:36:00     -120.242     -227.127       -1.079      104.554      101.558       57.800    10931.460    10314.046     3340.886        4.531        1.229      256.992       45.564        0.031      343.554       19.744      852.261
10/31/2014  13:37:00     -171.042     -338.042       -2.169      140.542      154.067       77.204    19752.052    23736.739     5960.420        9.648        2.472      378.851       82.567        0.047      343.332       19.365      852.271
10/31/2014  13:38:00      -73.849     -150.950       -9.224      152.521      104.045       79.770    23262.744    10825.401     6363.187        3.438        2.023      168.046       64.450        0.147      343.513       19.675      852.243
10/31/2014  13:39:00     -135.625     -112.838      -18.259      112.463       92.379       68.920    12648.024     8533.888     4749.999        2.869        1.297      176.427       41.524        0.055      343.420       19.515      852.177
10/31/2014  13:40:00     -229.502     -245.342        9.415      179.286      147.604       68.098    32143.586    21787.031     4637.315        8.575        2.928      335.952       49.427        0.022      343.349       19.394      852.199
10/31/2014  13:41:00     -278.533     -393.937      -15.263      208.845      244.787       93.640    43616.295    59920.677     8768.516       17.263        5.615      482.459       93.470        0.038      343.197       19.136      852.193
10/31/2014  13:42:00     -244.857     -390.320        0.625      234.575      196.670      108.335    55025.299    38679.190    11736.568       15.885        5.272      460.765       95.828        0.043      343.289       19.291      852.139
10/31/2014  13:43:00     -449.900     -360.527      -13.022      306.971      265.257      116.209    94231.457    70361.168    13504.626       25.529        8.905      576.533      142.571        0.061      343.162       19.077      852.115
10/31/2014  13:44:00     -248.467     -257.598        4.688      169.186      225.139      103.408    28624.048    50687.674    10693.196       10.904        4.500      357.901       95.921        0.072      343.188       19.120      852.111
10/31/2014  13:45:00     -370.043     -181.369      -15.156      226.253      200.056      107.014    51190.272    40022.248    11452.070       13.634        5.133      412.100      111.753        0.074      343.272       19.263      852.057
10/31/2014  13:46:00     -312.043     -292.809        6.477      256.375      203.429      109.651    65728.232    41383.359    12023.308       15.112        5.957      427.911      136.234        0.101      343.154       19.064      852.016
10/31/2014  13:47:00     -405.704     -225.045       -0.275      286.788      178.579       99.119    82247.432    31890.370     9824.635       16.958        6.198      463.941      123.459        0.071      343.349       19.395      851.984
10/31/2014  13:48:00     -165.310     -302.976      -25.137      201.540      156.425       82.666    40618.236    24468.667     6833.621        9.582        3.596      345.140       46.380        0.018      343.396       19.474      852.060
10/31/2014  13:49:00     -169.368     -143.892      -18.637      161.892      118.609       73.861    26209.102    14068.030     5455.521        4.773        2.287      222.239       57.191        0.066      343.434       19.540      852.023
10/31/2014  13:50:00     -215.471     -223.568       14.787      170.754      185.029       83.130    29157.077    34235.895     6910.520        8.345        3.515      310.501       91.313        0.086      343.501       19.654      851.985
10/31/2014  13:51:00     -146.615     -112.981       18.635      171.976      144.571       77.988    29575.759    20900.762     6082.124        4.557        2.828      185.096       97.092        0.275      343.525       19.695      851.912
10/31/2014  13:52:00     -474.753     -319.639       -0.452      289.561      233.187      118.596    83845.588    54376.237    14065.069       23.989        7.614      572.328      146.051        0.065      343.198       19.139      851.893
10/31/2014  13:53:00     -281.518     -191.935       -3.786      218.222      142.614       88.794    47620.669    20338.666     7884.380        9.596        3.792      340.722       94.707        0.077      343.206       19.153      851.923
10/31/2014  13:54:00     -407.289     -398.438      -15.252      214.447      195.865      105.443    45987.358    38362.915    11118.155       21.015        4.773      569.769      101.550        0.032      343.053       18.889      851.939
10/31/2014  13:55:00     -287.197     -429.659      -11.943      160.242      192.173       98.382    25677.601    36930.565     9678.922       16.974        3.614      516.806       95.432        0.034      343.102       18.973      851.947
10/31/2014  13:56:00     -333.466     -399.487      -12.878      159.684      224.706       96.526    25498.947    50492.816     9317.296       17.811        4.265      520.374       93.496        0.032      343.181       19.108      851.934
10/31/2014  13:57:00     -249.281     -455.094      -21.321      164.866      220.026       92.703    27180.765    48411.259     8593.852       17.693        4.209      518.895       87.337        0.028      343.184       19.114      851.914
10/31/2014  13:58:00     -178.916     -331.042       -4.522      126.295      166.770       69.306    15950.478    27812.174     4803.254        9.508        2.428      376.298       51.596        0.019      343.165       19.080      851.921
10/31/2014  13:59:00     -189.444     -133.950        9.404      114.636      120.642       60.786    13141.433    14554.417     3694.939        4.265        1.570      232.017       64.297        0.077      343.320       19.344      851.868
10/31/2014  14:00:00     -261.306     -192.646       -8.193      169.393      145.667       70.429    28693.981    21218.855     4960.178        8.016        2.744      324.644       58.613        0.033      343.367       19.427      851.849
10/31/2014  14:01:00     -284.406     -162.916       -3.567      162.878      178.286       72.157    26529.320    31785.740     5206.665        8.547        3.176      327.762       66.303        0.041      343.312       19.331      851.828
10/31/2014  14:02:00     -365.783     -231.056      -14.657      174.474      144.954       84.413    30441.311    21011.716     7125.600       12.298        2.929      432.647       91.293        0.045      343.204       19.149      851.865
10/31/2014  14:03:00     -284.107     -105.277        2.619      137.987      133.332       75.812    19040.384    17777.521     5747.524        6.718        2.128      302.985       57.936        0.037      343.162       19.076      851.901
10/31/2014  14:04:00     -255.136     -200.297       -3.650      123.650       72.358       55.070    15289.340     5235.707     3032.685        6.439        1.178      324.366       43.951        0.018      343.253       19.230      851.905
10/31/2014  14:05:00     -435.426     -239.684      -12.692      229.401      178.734       92.316    52625.012    31945.666     8522.224       17.013        4.655      497.035      103.973        0.044      343.096       18.964      851.919
10/31/2014  14:06:00     -463.467     -358.467      -11.349      203.171      186.820      112.328    41278.593    34901.721    12617.567       21.610        4.440      585.918      106.641        0.033      342.617       18.148      851.904
10/31/2014  14:07:00     -370.167     -242.302       10.027      158.184      118.227       79.491    25022.241    13977.732     6318.773       12.057        2.266      442.418       79.279        0.032      342.764       18.398      851.878
10/31/2014  14:08:00     -278.790      -70.783        1.098      213.913      110.333       68.322    45758.907    12173.300     4667.953        7.266        3.130      287.636       95.862        0.111      343.112       18.991      851.870
10/31/2014  14:09:00     -105.065      -90.958       14.866      130.396       91.209       71.609    17003.234     8319.079     5127.860        2.499        1.523      138.967       81.929        0.348      343.211       19.161      851.833
10/31/2014  14:10:00     -371.968     -293.785        4.570      246.720      193.993      102.171    60870.885    37633.317    10438.978       16.679        5.447      473.993      109.291        0.053      343.028       18.849      851.844
10/31/2014  14:11:00     -309.968     -174.718       31.942      257.588      177.757      104.395    66351.547    31597.586    10898.369       11.822        5.442      355.818      131.470        0.137      343.134       19.028      851.805
10/31/2014  14:12:00     -595.347     -417.131      -11.469      285.286      216.710      127.402    81387.839    46963.022    16231.232       33.655        7.229      726.936      136.452        0.035      342.819       18.491      851.789
10/31/2014  14:13:00     -531.650     -377.223       -9.549      311.567      188.005      129.336    97073.869    35345.964    16727.708       28.706        7.457      651.881      133.879        0.042      342.780       18.425      851.756
10/31/2014  14:14:00     -529.930     -243.495      -35.758      269.231      214.543      107.728    72485.416    46028.499    11605.384       23.573        6.506      583.195      133.216        0.052      342.769       18.407      851.750
10/31/2014  14:15:00     -383.321     -175.810      -21.029      193.453      159.861       95.206    37424.063    25555.561     9064.159       12.515        3.602      421.715       95.067        0.051      342.893       18.618      851.708
10/31/2014  14:16:00     -286.334     -212.807      -15.726      213.419      158.880       90.602    45547.620    25242.837     8208.741       10.324        3.950      356.755      104.275        0.085      342.981       18.767      851.695
10/31/2014  14:17:00     -395.192     -323.683       -9.110      243.856      215.881       94.016    59465.907    46604.638     8838.985       18.795        5.745      510.830      123.425        0.058      342.946       18.708      851.689
10/31/2014  14:18:00     -433.855     -296.280        0.711      254.098      212.899      116.894    64565.667    45326.100    13664.190       19.976        6.178      525.368      124.843        0.056      342.900       18.631      851.634
10/31/2014  14:19:00     -425.084     -201.250       -8.559      274.144      202.958       91.819    75154.793    41192.092     8430.672       17.300        6.239      470.317      124.266        0.070      342.956       18.725      851.647
10/31/2014  14:20:00     -403.302     -258.848      -12.679      258.251      178.373      119.428    66693.448    31817.084    14263.123       17.127        5.639      479.223      113.367        0.056      342.794       18.449      851.641
10/31/2014  14:21:00     -555.965     -304.106      -25.148      278.618      203.525      119.586    77628.051    41422.253    14300.695       26.775        6.668      633.701      130.175        0.042      342.672       18.241      851.576
10/31/2014  14:22:00     -318.818     -185.718       21.114      238.792      196.499       96.554    57021.822    38611.752     9322.758       12.075        5.248      368.966      103.131        0.078      342.866       18.573      851.564
10/31/2014  14:23:00     -467.673     -281.278        7.934      260.737      246.587      105.200    67983.883    60805.045    11067.082       21.885        6.993      545.743      121.358        0.049      342.786       18.435      851.553
10/31/2014  14:24:00     -459.643     -278.507       -2.894      309.480      224.905      143.231    95777.781    50582.404    20515.212       22.783        8.344      537.437      170.783        0.101      342.751       18.376      851.539
10/31/2014  14:25:00     -377.395     -156.357        2.029      275.797      214.185      100.142    76064.124    45875.067    10028.421       14.940        6.598      408.503      127.118        0.097      342.945       18.707      851.576
10/31/2014  14:26:00     -509.433     -288.085       -0.656      268.163      241.541      117.695    71911.219    58342.001    13852.077       24.328        7.205      585.248      129.370        0.049      342.694       18.279      851.549
10/31/2014  14:27:00     -455.899     -324.721      -15.830      250.948      238.430      123.684    62974.752    56848.934    15297.833       22.430        6.756      559.721      119.276        0.045      342.617       18.148      851.538
10/31/2014  14:28:00     -446.177     -270.417       15.029      300.251      218.791      113.857    90150.483    47869.678    12963.495       21.167        7.549      521.727      137.851        0.070      342.609       18.135      851.555
10/31/2014  14:29:00     -306.492     -177.727       16.378      191.118      198.929      105.218    36525.925    39572.557    11070.812       10.646        4.358      354.294      108.403        0.094      342.673       18.244      851.545
10/31/2014  14:30:00     -602.021     -177.983      -21.936      321.332      227.299      123.971   103254.562    51665.058    15368.687       28.240        8.514      627.779      149.000        0.056      342.625       18.162      851.515
10/31/2014  14:31:00     -521.026     -119.710       -7.809      231.768      226.852      119.218    53716.436    51461.943    14212.835       20.260        5.970      534.602      117.433        0.048      342.584       18.095      851.473
10/31/2014  14:32:00     -602.752     -263.763      -33.716      274.584      206.823      102.386    75396.273    42775.709    10482.928       28.131        6.433      657.937      108.564        0.027      342.558       18.048      851.437
10/31/2014  14:33:00     -455.322     -346.596      -20.138      222.146      180.150      107.349    49348.807    32454.108    11523.765       21.057        4.666      572.230      114.695        0.040      342.700       18.290      851.498
10/31/2014  14:34:00     -455.224     -279.029       -3.847      223.490      207.097      114.078    49947.941    42889.294    13013.806       19.545        5.293      533.934      112.717        0.045      342.669       18.236      851.500
10/31/2014  14:35:00     -393.144     -341.227      -12.447      297.717      220.920      131.101    88635.289    48805.509    17187.385       21.286        7.731      520.575      146.022        0.079      342.589       18.101      851.442
10/31/2014  14:36:00     -453.779     -336.713       -7.317      265.113      281.009      127.535    70284.643    78966.072    16265.227       24.240        8.276      565.059      146.395        0.067      342.531       18.002      851.439
10/31/2014  14:37:00     -349.521     -284.712      -13.522      181.752      221.078      104.299    33033.733    48875.593    10878.250       14.808        4.639      450.806      105.312        0.055      342.596       18.112      851.437
10/31/2014  14:38:00     -659.231     -326.031      -27.418      442.000      254.823      151.330   195364.033    64934.630    22900.849       41.236       14.160      735.447      179.699        0.060      342.561       18.055      851.417
10/31/2014  14:39:00     -539.558     -215.232       -2.255      323.778      219.231      129.661   104832.021    48062.372    16812.000       25.355        8.485      580.903      145.119        0.062      342.488       17.930      851.458
10/31/2014  14:40:00     -452.396     -242.325      -23.522      224.828      197.301      107.629    50547.429    38927.545    11584.036       18.248        5.053      513.209      106.208        0.043      342.490       17.934      851.501
10/31/2014  14:41:00     -522.004     -329.672      -11.013      247.352      202.000      108.845    61183.021    40803.809    11847.246       24.754        5.692      617.391      135.562        0.048      342.544       18.024      851.493
10/31/2014  14:42:00     -321.163     -154.988       18.898      233.654      193.890      109.443    54594.146    37593.280    11977.807       11.582        5.208      356.605      106.721        0.090      342.674       18.245      851.506
10/31/2014  14:43:00     -593.204     -302.596      -34.041      283.201      204.831      103.810    80202.926    41955.922    10776.484       28.875        6.647      665.925      102.781        0.024      342.544       18.025      851.478
10/31/2014  14:44:00     -231.808      -42.482        4.950      252.275      158.790       95.285    63642.865    25214.187     9079.182        7.673        4.897      235.669       99.849        0.180      342.621       18.156      851.477
10/31/2014  14:45:00     -636.153      -35.561      -10.825      324.816      179.942      119.592   105505.307    32379.230    14302.208       27.910        7.609      637.146      153.054        0.058      342.464       17.889      851.458
10/31/2014  14:46:00     -411.911     -213.853        3.694      271.256      238.913      104.080    73579.825    57079.573    10832.609       17.843        7.075      464.116      141.687        0.093      342.505       17.958      851.449
10/31/2014  14:47:00     -345.878     -158.283      -15.938      190.395      153.890       77.622    36250.222    23682.220     6025.142       10.544        3.298      380.375       89.922        0.056      342.709       18.305      851.466
10/31/2014  14:48:00     -628.137     -173.444      -28.762      344.607      232.558      121.862   118753.712    54083.273    14850.453       30.654        9.384      651.643      131.421        0.041      342.142       17.341      851.444
10/31/2014  14:49:00     -445.818     -164.051      -10.122      246.598      160.347       94.069    60810.656    25711.238     8849.039       16.055        4.769      475.044      111.290        0.055      342.227       17.487      851.469
10/31/2014  14:50:00     -476.097     -282.335      -13.113      226.304      202.859      109.956    51213.480    41151.880    12090.422       20.548        5.223      553.518      128.421        0.054      342.219       17.471      851.448
10/31/2014  14:51:00     -579.760     -321.280      -25.975      267.121      219.048      120.027    71353.460    47982.180    14406.451       28.685        6.687      662.829      131.941        0.040      342.191       17.426      851.459
10/31/2014  14:52:00     -658.409     -373.899      -10.467      279.055      240.892      131.860    77871.780    58029.027    17387.007       36.332        7.664      757.168      153.731        0.041      341.983       17.071      851.375
10/31/2014  14:53:00     -518.769     -281.486      -27.977      306.005      231.088      146.692    93639.145    53401.684    21518.471       25.882        8.428      590.217      141.744        0.058      341.871       16.880      851.405
10/31/2014  14:54:00     -465.546     -146.072      -23.918      276.186      221.787      105.683    76278.608    49189.374    11168.851       18.761        6.832      487.925      122.955        0.064      342.084       17.243      851.423
10/31/2014  14:55:00     -434.891     -279.610       -9.905      284.476      209.320      119.054    80926.348    43814.788    14173.903       20.313        6.946      517.022      140.063        0.073      342.119       17.302      851.404
10/31/2014  14:56:00     -403.337     -293.366       -0.260      265.018      226.516      121.843    70234.479    51309.651    14845.822       19.254        6.819      498.743      149.855        0.090      342.266       17.552      851.415
10/31/2014  14:57:00     -451.514     -269.337      -14.852      266.410      287.198      127.718    70974.494    82482.737    16311.867       22.316        8.488      525.745      139.379        0.070      342.126       17.316      851.407
10/31/2014  14:58:00     -428.700     -135.293        2.448      222.288      213.806      100.387    49411.824    45713.130    10077.470       15.363        5.260      449.542      107.155        0.057      342.192       17.427      851.389
10/31/2014  14:59:00     -671.395      -68.854      -30.293      308.848      216.243      120.385    95387.222    46760.964    14492.532       30.650        7.832      674.916      148.892        0.049      342.008       17.115      851.344
10/31/2014  15:00:00     -304.059     -119.986       11.690      261.770      216.798      107.803    68523.340    47001.251    11621.511       11.704        6.357      326.877      137.348        0.177      342.165       17.381      851.354
10/31/2014  15:01:00     -331.003     -178.012      -22.639      227.433      241.149      111.651    51725.897    58152.796    12466.042       13.203        6.117      375.834      124.525        0.110      342.148       17.352      851.350
10/31/2014  15:02:00     -393.254     -179.790      -27.460      268.181      173.421      111.537    71921.220    30074.804    12440.542       15.106        5.722      432.404      129.455        0.090      342.099       17.268      851.352
10/31/2014  15:03:00     -561.790      -85.425      -30.925      251.889      188.166      106.021    63448.201    35406.554    11240.364       21.696        5.505      568.247      111.814        0.039      342.103       17.275      851.336
10/31/2014  15:04:00     -495.648     -222.415       -4.243      334.325      215.315      110.607   111773.045    46360.449    12233.841       23.273        8.518      543.264      151.290        0.078      341.973       17.055      851.326
10/31/2014  15:05:00     -384.640     -151.755        7.635      244.703      171.670      105.921    59879.509    29470.560    11219.184       13.578        5.028      413.494      120.930        0.086      341.952       17.019      851.278
10/31/2014  15:06:00     -410.704      -71.157      -14.631      299.386      147.837       90.157    89631.749    21855.641     8128.302       14.676        5.981      416.823      100.552        0.058      342.076       17.229      851.261
10/31/2014  15:07:00     -682.059      -65.957      -38.454      307.979      185.419      118.252    94851.298    34380.121    13983.442       30.710        7.161      685.240      132.079        0.037      341.971       17.051      851.228
10/31/2014  15:08:00     -466.081      -38.238      -20.776      232.428      192.306      103.348    54022.699    36981.601    10680.747       16.039        5.084      467.647      115.104        0.061      342.125       17.312      851.220
10/31/2014  15:09:00     -396.688     -115.938       -8.970      232.941      188.687      104.712    54261.629    35602.596    10964.695       13.584        5.041      413.283      119.207        0.083      342.108       17.285      851.202
10/31/2014  15:10:00     -456.968     -160.414      -23.928      237.695      224.870      102.849    56499.097    50566.298    10577.845       17.636        5.882      484.306      105.649        0.048      342.050       17.186      851.158
10/31/2014  15:11:00     -535.595     -161.255      -24.035      263.030      193.231      106.100    69184.955    37338.303    11257.302       21.559        5.889      559.343      115.719        0.043      342.008       17.113      851.165
10/31/2014  15:12:00     -326.466     -207.511        5.694      177.065      197.408       85.298    31352.089    38969.723     7275.688       11.362        3.880      386.835       86.877        0.050      342.132       17.324      851.187
10/31/2014  15:13:00     -494.598     -133.768       -2.405      291.786      226.314      112.033    85139.233    51218.012    12551.287       20.569        7.445      512.369      136.622        0.071      342.050       17.186      851.139
10/31/2014  15:14:00     -430.909     -133.659        1.530      256.849      237.151      118.829    65971.266    56240.360    14120.336       16.991        6.817      451.162      127.445        0.080      342.083       17.241      851.166
10/31/2014  15:15:00     -607.038     -375.335      -32.016      285.182      249.593      131.136    81328.500    62296.511    17196.567       33.558        8.041      713.702      143.262        0.040      341.838       16.825      851.141
10/31/2014  15:16:00     -564.160     -230.622      -23.519      237.688      236.800      115.084    56495.818    56074.399    13244.227       24.889        6.291      609.478      113.649        0.035      341.897       16.926      851.139
10/31/2014  15:17:00     -458.981     -186.714      -13.525      274.481      221.230      121.213    75339.784    48942.818    14692.502       19.231        6.949      495.505      143.135        0.083      341.874       16.886      851.115
10/31/2014  15:18:00     -435.068     -224.684      -24.256      198.575      195.073      110.502    39432.111    38053.608    12210.771       16.501        4.485      489.660      107.602        0.048      341.910       16.947      851.120
10/31/2014  15:19:00     -369.493     -187.571      -18.864      167.685      210.841       92.582    28118.144    44453.871     8571.373       12.659        4.057      414.377       95.984        0.054      342.005       17.111      851.103
10/31/2014  15:20:00     -453.977      -93.342      -14.865      194.018      170.324       82.030    37642.816    29010.134     6728.998       14.419        3.669      463.474       85.739        0.034      342.122       17.307      851.091
10/31/2014  15:21:00     -458.312      -89.227      -25.982      225.977      126.580       83.966    51065.741    16022.489     7050.266       14.640        3.707      466.917       97.361        0.043      342.182       17.410      851.066
10/31/2014  15:22:00     -485.116     -268.539       -4.582      321.838      251.565      111.213   103579.966    63284.994    12368.309       24.332        8.962      554.482      137.167        0.061      341.936       16.992      851.010
10/31/2014  15:23:00     -352.544     -163.324        6.090      226.983      220.285       96.283    51521.299    48525.567     9270.453       13.014        5.466      388.539      114.815        0.087      342.127       17.317      850.986
10/31/2014  15:24:00     -552.748     -207.539      -27.586      220.568      177.592       96.986    48650.044    31538.809     9406.239       21.946        4.480      590.426      101.290        0.029      342.029       17.150      850.960
10/31/2014  15:25:00     -432.556     -147.210       -4.135      303.581      210.563      103.395    92161.457    44336.626    10690.540       17.796        7.359      456.919      127.472        0.078      342.193       17.429      850.976
10/31/2014  15:26:00     -278.004     -107.378       -8.680      163.189      151.072       75.171    26630.592    22822.672     5650.652        7.199        2.755      298.020       77.532        0.068      342.285       17.585      850.995
10/31/2014  15:27:00     -326.054      -13.465       -7.743      190.261      152.804       80.441    36199.212    23349.172     6470.827        8.627        3.301      326.331       98.740        0.092      342.337       17.672      850.989
10/31/2014  15:28:00     -451.133      -70.315      -26.332      193.687      157.852       96.073    37514.774    24917.385     9230.116       14.040        3.583      456.580       88.521        0.038      342.257       17.538      850.953
10/31/2014  15:29:00     -273.072      -86.698      -10.195      187.972      120.652       71.765    35333.326    14556.790     5150.265        6.860        2.752      286.504       78.774        0.076      342.225       17.483      850.945
10/31/2014  15:30:00     -266.095      -71.326        2.676      150.423      101.476       65.782    22627.220    10297.430     4327.269        5.657        1.863      275.489       63.300        0.053      342.357       17.707      850.943
10/31/2014  15:31:00     -429.046     -233.333      -23.428      198.570      185.926       88.700    39429.868    34568.308     7867.690       16.045        4.093      488.390       92.466        0.036      342.132       17.323      850.920
10/31/2014  15:32:00     -327.051     -157.344      -11.527      170.350      190.884       87.183    29019.154    36436.549     7600.949       10.244        3.653      362.932       86.589        0.057      342.283       17.581      850.922
10/31/2014  15:33:00     -399.070     -193.738      -18.211      175.517      150.918       78.309    30806.321    22776.308     6132.312       12.841        2.986      443.611       81.695        0.034      342.241       17.509      850.893
10/31/2014  15:34:00     -240.209     -104.927       -4.719      198.252      128.536       97.359    39304.038    16521.565     9478.699        6.701        3.265      262.126      105.433        0.162      342.308       17.625      850.836
10/31/2014  15:35:00     -303.018     -258.606       -2.439      197.761      150.480       85.559    39109.306    22644.310     7320.406       11.387        3.454      398.368       90.141        0.051      342.332       17.666      850.800
10/31/2014  15:36:00     -448.577     -199.878      -11.593      237.296      178.437       83.958    56309.571    31839.792     7048.937       16.823        4.760      491.093      103.823        0.045      342.409       17.795      850.787
10/31/2014  15:37:00     -372.505      -62.670        4.115      230.872      175.143       97.740    53301.707    30675.230     9553.132       11.810        4.677      377.740      113.211        0.090      342.479       17.913      850.748
10/31/2014  15:38:00     -380.466     -205.593       -4.050      229.107      200.751       95.558    52490.232    40300.972     9131.236       14.446        5.096      432.461      110.011        0.065      342.360       17.712      850.734
10/31/2014  15:39:00     -481.244     -229.994       -8.857      197.565      161.281       98.677    39031.819    26011.444     9737.196       17.966        3.739      533.379       98.154        0.034      342.349       17.694      850.721
10/31/2014  15:40:00     -684.638     -297.079      -28.061      212.319      231.117      117.138    45079.278    53414.940    13721.399       33.497        5.611      746.315      116.371        0.024      342.189       17.422      850.677
10/31/2014  15:41:00     -369.431     -237.210      -11.639      238.620      229.179      121.896    56939.296    52522.862    14858.708       15.858        6.216      439.030      124.232        0.080      342.293       17.598      850.618
10/31/2014  15:42:00     -397.881     -230.169       -9.403      230.097      163.148      104.972    52944.811    26617.270    11019.204       15.096        4.529      459.660      118.691        0.067      342.352       17.699      850.641
10/31/2014  15:43:00     -462.971     -136.528       -0.930      302.477      212.448      123.238    91492.109    45133.944    15187.574       19.237        7.591      482.682      149.243        0.096      342.310       17.628      850.620
10/31/2014  15:44:00     -615.278     -264.039      -32.902      301.136      200.720      114.172    90682.623    40288.615    13035.153       29.666        7.200      669.540      134.494        0.040      342.230       17.491      850.680
10/31/2014  15:45:00     -340.246     -132.207        2.993      246.834      191.619      117.684    60926.991    36717.812    13849.431       12.235        5.575      365.029      123.931        0.115      342.363       17.718      850.708
10/31/2014  15:46:00     -385.564     -205.603      -10.929      263.244      194.808       99.897    69297.204    37950.140     9979.497       15.412        5.861      436.958      121.114        0.077      342.377       17.741      850.715
10/31/2014  15:47:00     -444.081     -214.659      -18.619      251.612      274.517      121.430    63308.822    75359.764    14745.308       19.849        7.671      493.241      144.048        0.085      342.349       17.693      850.679
10/31/2014  15:48:00     -143.202      -85.543       31.261      188.652      158.735      102.978    35589.419    25196.660    10604.493        5.008        3.570      166.807      122.520        0.539      342.519       17.983      850.669
10/31/2014  15:49:00     -420.158      -96.943      -22.312      229.589      150.712       92.385    52711.192    22714.106     8534.953       13.518        4.198      431.197      104.683        0.059      342.428       17.826      850.694
10/31/2014  15:50:00     -323.146     -218.722      -11.228      166.645      143.331       96.400    27770.473    20543.640     9293.018       10.499        2.880      390.209       94.889        0.059      342.445       17.857      850.683
10/31/2014  15:51:00     -321.580     -145.664       -9.281      194.353      162.035       70.928    37773.088    26255.236     5030.748        9.687        3.453      353.032       89.907        0.065      342.447       17.860      850.672
10/31/2014  15:52:00     -455.899     -281.416      -11.890      260.412      238.546      109.862    67814.597    56904.020    12069.738       21.196        6.839      535.760      130.987        0.060      342.435       17.840      850.625
10/31/2014  15:53:00     -548.047     -243.673      -22.573      230.597      217.219       99.478    53175.137    47183.886     9895.894       23.523        5.513      599.776      102.173        0.029      342.381       17.747      850.619
10/31/2014  15:54:00     -443.482     -219.441      -19.476      221.039      223.422      106.230    48858.167    49917.342    11284.767       17.761        5.503      494.803      113.537        0.053      342.320       17.644      850.647
10/31/2014  15:55:00     -377.078     -225.725       14.545      363.279      205.862      132.074   131971.749    42379.073    17443.480       19.253        9.590      439.477      181.360        0.170      342.310       17.626      850.586
10/31/2014  15:56:00     -480.027     -226.655      -20.418      281.640      178.438      111.742    79321.064    31840.010    12486.330       20.291        6.182      530.847      122.932        0.054      342.267       17.555      850.592
10/31/2014  15:57:00     -358.192     -259.218       -0.919      184.505      168.761       96.669    34042.004    28480.405     9344.815       13.367        3.593      442.149      110.872        0.063      342.287       17.589      850.591
10/31/2014  15:58:00     -333.125     -264.057       -2.062      222.941      184.715       96.695    49702.903    34119.783     9349.916       13.692        4.659      425.086      113.320        0.071      342.303       17.615      850.556
10/31/2014  15:59:00     -340.554     -190.325       -9.241      204.432      145.735       93.692    41792.455    21238.807     8778.175       11.203        3.590      390.129      103.825        0.071      342.390       17.762      850.566
10/31/2014  16:00:00     -167.901      -99.808       16.681      197.583      145.091       75.159    39039.187    21051.541     5648.925        5.207        3.287      195.326       84.677        0.188      342.503       17.955      850.564
10/31/2014  16:01:00     -366.062     -253.998       -3.489      305.777      246.618      112.529    93499.656    60820.247    12662.740       18.272        8.349      445.551      156.755        0.124      342.316       17.638      850.537
10/31/2014  16:02:00     -344.720     -208.276       10.514      216.066      240.703      105.946    46684.540    57938.127    11224.622       13.906        5.792      402.754      117.311        0.085      342.186       17.416      850.524
10/31/2014  16:03:00     -361.291     -143.568        5.662      217.035      212.511      109.729    47104.101    45161.014    12040.485       12.772        5.215      388.771      125.977        0.105      342.174       17.395      850.499
10/31/2014  16:04:00     -425.290     -207.909      -25.166      258.620      229.603      121.928    66884.057    52717.465    14866.464       17.957        6.723      473.389      133.552        0.080      342.003       17.106      850.523
10/31/2014  16:05:00     -429.376     -261.722       -2.773      240.245      180.420      120.849    57717.632    32551.454    14604.503       17.885        5.244      502.854      130.458        0.067      341.977       17.062      850.530
10/31/2014  16:06:00     -407.870     -181.412      -15.898      251.793      136.094       83.661    63399.572    18521.652     6999.131       14.420        4.446      446.394       99.588        0.050      341.994       17.088      850.562
10/31/2014  16:07:00     -508.332     -121.796      -15.486      263.471      204.266      111.516    69416.945    41724.653    12435.796       19.850        6.179      522.719      132.420        0.064      342.050       17.185      850.549
10/31/2014  16:08:00     -404.716     -117.732      -17.509      243.726      153.806       88.320    59402.240    23656.315     7800.484       13.439        4.543      421.493      106.742        0.064      342.048       17.182      850.548
10/31/2014  16:09:00     -483.425     -222.077      -21.869      222.802      238.626      104.963    49640.827    56942.549    11017.302       20.053        5.880      531.994      129.185        0.059      341.979       17.064      850.533
10/31/2014  16:10:00     -428.408     -202.930        1.729      249.855      169.283       98.193    62427.301    28656.800     9641.857       16.270        5.036      474.040      116.255        0.060      341.961       17.033      850.502
10/31/2014  16:11:00     -375.387     -200.818      -34.178      194.442      174.208       98.730    37807.739    30348.347     9747.573       13.014        3.895      425.727       95.572        0.050      341.974       17.057      850.510
10/31/2014  16:12:00     -574.674     -274.937      -25.381      336.862      227.896      133.275   113476.030    51936.519    17762.269       29.479        9.159      637.057      169.288        0.071      341.765       16.702      850.464
10/31/2014  16:13:00     -604.367     -331.990      -10.314      295.372      212.445      132.057    87244.712    45132.997    17439.143       31.267        7.491      689.548      154.151        0.050      341.671       16.543      850.466
10/31/2014  16:14:00     -350.017      -27.827        6.841      243.202      165.153       92.004    59147.318    27275.602     8464.803       10.909        4.744      351.122      114.411        0.106      341.926       16.975      850.455
10/31/2014  16:15:00     -304.012      -46.762       11.920      194.828      158.264       85.189    37958.137    25047.472     7257.121        8.249        3.513      307.587      105.666        0.118      342.026       17.144      850.419
10/31/2014  16:16:00     -367.884     -280.728       -6.286      199.675      193.158      106.795    39870.012    37310.195    11405.237       15.137        4.429      462.760      105.673        0.052      341.886       16.906      850.378
10/31/2014  16:17:00     -345.365     -184.329       -5.421      237.361      182.816      111.564    56340.169    33421.551    12446.458       12.773        5.110      391.477      112.964        0.083      341.898       16.927      850.351
10/31/2014  16:18:00     -258.772     -166.579       15.583      201.264      162.818      100.086    40507.000    26509.794    10017.209        8.598        3.852      307.752      116.138        0.142      341.905       16.940      850.319
10/31/2014  16:19:00     -671.890     -210.622      -54.141      282.740      303.721      115.984    79941.918    92246.506    13452.386       34.215        9.282      704.129      121.573        0.030      341.732       16.647      850.219
10/31/2014  16:20:00     -488.906     -170.595       -1.886      277.617      215.428      113.606    77071.132    46409.311    12906.305       20.223        6.819      517.814      127.589        0.061      341.761       16.696      850.234
10/31/2014  16:21:00     -443.442     -317.386       -2.494      281.670      220.569      139.530    79338.094    48650.578    19468.546       22.239        7.373      545.321      157.769        0.084      341.684       16.564      850.201
10/31/2014  16:22:00     -653.637     -435.094      -18.195      312.808      271.353      143.168    97848.903    73632.534    20497.055       40.439        9.599      785.206      156.051        0.039      341.548       16.334      850.223
10/31/2014  16:23:00     -458.250     -222.710        8.234      310.276      244.382      110.659    96270.920    59722.561    12245.524       21.392        8.412      509.503      127.362        0.062      341.582       16.391      850.191
10/31/2014  16:24:00     -403.234      -85.991      -14.234      288.360      213.469      104.297    83151.682    45568.956    10877.924       15.487        6.980      412.301      122.502        0.088      341.710       16.609      850.255
10/31/2014  16:25:00     -479.536     -168.472      -18.198      275.507      224.327      108.142    75904.180    50322.693    11694.741       19.827        6.896      508.269      117.724        0.054      341.677       16.552      850.246
10/31/2014  16:26:00     -384.728     -149.843       -1.908      329.362      248.657      123.140   108479.118    61830.173    15163.474       17.794        9.274      412.878      144.989        0.123      341.596       16.416      850.242
10/31/2014  16:27:00     -486.975     -276.515       -8.822      310.620      257.669      126.420    96484.801    66393.232    15982.124       24.624        8.943      560.004      150.623        0.072      341.583       16.393      850.262
10/31/2014  16:28:00     -594.794     -220.243      -36.638      286.446      176.607      111.263    82051.548    31189.904    12379.554       26.460        6.281      634.261      136.693        0.046      341.500       16.251      850.294
10/31/2014  16:29:00     -389.096     -246.907      -23.402      179.067      153.646       82.080    32064.825    23607.199     6737.110       13.765        3.120      460.824       86.461        0.035      341.591       16.407      850.333
10/31/2014  16:30:00     -505.647      -89.454      -26.886      269.672      213.868       96.052    72723.083    45739.535     9225.929       19.602        6.384      513.499      107.916        0.044      341.681       16.558      850.331
10/31/2014  16:31:00     -646.073     -167.742      -56.799      284.662      224.689      115.408    81032.651    50484.950    13319.108       29.678        7.242      667.493      120.621        0.033      341.538       16.316      850.301
10/31/2014  16:32:00     -453.729     -191.563       -9.813      277.859      231.603      106.750    77205.633    53640.133    11395.512       19.242        7.112      492.510      139.587        0.080      341.523       16.292      850.325
10/31/2014  16:33:00     -352.562     -130.405      -23.069      182.432      142.445       85.545    33281.423    20290.479     7317.923       10.135        3.044      375.906       81.330        0.047      341.651       16.508      850.346
10/31/2014  16:34:00     -403.424     -150.747      -16.210      238.719      185.075       90.093    56986.662    34252.625     8116.773       14.253        4.968      430.669      102.981        0.057      341.644       16.497      850.338
10/31/2014  16:35:00     -517.934     -190.376      -41.084      209.836      155.540       90.160    44031.162    24192.646     8128.895       19.125        3.818      551.814       99.119        0.032      341.589       16.402      850.336
10/31/2014  16:36:00     -676.243     -330.331      -25.488      240.333      242.700      122.985    57760.186    58903.182    15125.219       34.941        6.589      752.611      127.594        0.029      341.518       16.282      850.305
10/31/2014  16:37:00     -416.171     -330.246       -9.897      271.865      211.040      131.074    73910.495    44537.777    17180.331       20.897        6.781      531.282      164.803        0.096      341.521       16.288      850.322
10/31/2014  16:38:00     -179.617      -89.411       14.811      206.788      157.509       68.595    42761.157    24809.009     4705.230        5.636        3.614      200.640       79.956        0.159      341.776       16.721      850.346
10/31/2014  16:39:00     -360.214     -174.069       -0.116      210.300      188.895       98.252    44225.976    35681.280     9653.446       12.479        4.478      400.068       99.787        0.062      341.670       16.541      850.336
10/31/2014  16:40:00     -278.704     -250.547        6.278      210.704      159.098      100.429    44395.970    25312.118    10085.958       11.013        3.990      374.766      103.625        0.076      341.606       16.432      850.348
10/31/2014  16:41:00     -212.406     -138.707       12.984      199.498      150.112       90.835    39799.486    22533.703     8250.927        6.754        3.529      253.684       98.985        0.152      341.753       16.681      850.343
10/31/2014  16:42:00     -468.264      -52.495      -30.620      279.810      230.339      102.871    78293.364    53056.190    10582.475       18.242        7.097      471.197      120.314        0.065      341.645       16.499      850.335
10/31/2014  16:43:00     -390.365     -280.491       -5.465      281.619      195.708      127.632    79309.212    38301.616    16290.021       18.247        6.695      480.687      135.803        0.080      341.599       16.419      850.376
10/31/2014  16:44:00     -440.311     -278.263      -20.218      238.141      207.621       93.567    56711.332    43106.536     8754.796       19.012        5.429      520.868       96.862        0.035      341.571       16.371      850.362
10/31/2014  16:45:00     -372.983     -231.694      -12.897      225.873      167.958       81.672    51018.449    28209.740     6670.278       13.941        4.295      439.088       93.759        0.046      341.618       16.454      850.328
10/31/2014  16:46:00     -404.696      -74.536       -9.119      184.057      196.966       91.190    33876.834    38795.551     8315.570       12.519        4.049      411.502       92.693        0.051      341.700       16.592      850.359
10/31/2014  16:47:00     -274.607      -77.686       10.270      191.775      154.649       87.153    36777.601    23916.227     7595.717        7.491        3.414      285.384       92.307        0.105      341.775       16.719      850.362
10/31/2014  16:48:00     -240.627     -153.728       -0.297      167.061      156.927       76.649    27909.265    24626.200     5875.087        6.996        2.921      285.541       85.450        0.090      341.801       16.763      850.364
10/31/2014  16:49:00     -378.012      -45.562      -10.969      223.563      150.332       94.892    49980.457    22599.597     9004.514       11.332        4.079      380.748      106.433        0.078      341.793       16.750      850.340
10/31/2014  16:50:00     -431.948     -155.925      -39.548      235.431      167.970       87.913    55427.785    28213.869     7728.738       15.190        4.569      459.230      112.669        0.060      341.697       16.584      850.353
10/31/2014  16:51:00     -275.073     -139.241        1.922      193.141      120.840       84.462    37303.363    14602.426     7133.906        7.704        2.952      308.307       99.541        0.104      341.742       16.663      850.369
10/31/2014  16:52:00     -237.418     -153.275       -3.236      210.802      159.541       76.568    44437.519    25453.236     5862.707        7.780        3.788      282.596       83.375        0.087      341.809       16.777      850.373
10/31/2014  16:53:00     -185.848     -166.309       36.750      198.757      181.132      107.420    39504.236    32808.844    11539.059        7.368        4.193      249.396      120.647        0.234      341.688       16.572      850.360
10/31/2014  16:54:00     -365.631     -184.875       -0.349      298.249      180.049       96.183    88952.478    32417.591     9251.107       14.922        6.531      409.713      126.259        0.095      341.698       16.588      850.343
10/31/2014  16:55:00     -297.283     -164.393        5.130      208.120      165.591       84.543    43313.881    27420.449     7147.445        9.664        3.894      339.709      107.274        0.100      341.699       16.590      850.354
10/31/2014  16:56:00     -193.422     -159.774       11.892      162.821      112.198       66.090    26510.544    12588.371     4367.901        5.327        2.173      250.878       68.243        0.074      341.720       16.626      850.378
10/31/2014  16:57:00     -435.000     -201.362      -17.602      177.716      124.433       74.909    31582.858    15483.457     5611.353       14.137        2.634      479.345       86.563        0.033      341.643       16.495      850.362
10/31/2014  16:58:00     -261.957      -71.446       15.944      173.508      134.459       78.884    30105.021    18079.323     6222.664        6.418        2.720      271.525       73.327        0.073      341.831       16.813      850.378
10/31/2014  16:59:00     -278.065      -76.698      -10.824      177.413      121.016       81.482    31475.495    14644.804     6639.359        6.803        2.638      288.449       90.701        0.099      341.791       16.747      850.399
10/31/2014  17:00:00     -182.888     -109.768       -3.658      202.039      124.605       74.058    40819.870    15526.487     5484.532        5.366        3.092      213.300       95.409        0.200      341.808       16.776      850.409
10/31/2014  17:01:00     -217.667     -117.097       -9.677      169.632      132.349       77.175    28774.848    17516.322     5955.937        5.671        2.612      247.165       77.188        0.098      341.888       16.911      850.429
10/31/2014  17:02:00     -341.863     -108.474      -15.336      198.470      149.798       84.714    39390.454    22439.452     7176.497        9.893        3.450      358.660       94.798        0.070      341.653       16.512      850.418
10/31/2014  17:03:00     -587.479     -222.655      -31.224      291.075      184.898      107.307    84724.492    34187.100    11514.818       26.303        6.521      628.257      132.405        0.044      341.571       16.374      850.431
10/31/2014  17:04:00     -262.998     -146.099        4.031      187.279      123.316       70.356    35073.602    15206.766     4950.028        7.287        2.762      300.854       74.281        0.061      341.678       16.554      850.501
10/31/2014  17:05:00     -414.456     -250.898      -10.452      183.958      132.692      104.124    33840.639    17607.254    10841.810       14.855        3.114      484.483       99.918        0.043      341.566       16.365      850.530
10/31/2014  17:06:00     -164.258      -94.360       13.164      149.554      126.469       69.615    22366.321    15994.499     4846.300        3.962        2.160      189.432       68.328        0.130      341.668       16.538      850.521
10/31/2014  17:07:00     -145.908     -154.045        5.161      141.561      128.336       64.334    20039.397    16470.086     4138.817        4.284        2.032      212.177       65.414        0.095      341.683       16.562      850.528
10/31/2014  17:08:00     -464.686     -264.297      -24.106      191.357      189.242       91.019    36617.476    35812.615     8284.374       18.352        4.036      534.590      106.724        0.040      341.521       16.290      850.467
10/31/2014  17:09:00     -374.170     -250.540      -17.034      172.472      180.274       93.056    29746.534    32498.776     8659.422       13.697        3.545      450.304       91.562        0.041      341.503       16.256      850.498
10/31/2014  17:10:00     -241.349     -122.801      -11.156      118.623      105.820       61.584    14071.509    11197.787     3792.531        5.125        1.453      270.794       60.476        0.050      341.509       16.267      850.508
10/31/2014  17:11:00     -360.716     -250.450      -10.313      198.145      166.060       92.196    39261.372    27575.847     8500.141       13.413        3.767      439.137      102.781        0.055      341.383       16.054      850.503
10/31/2014  17:12:00     -154.008     -167.682       16.472      146.980      162.975       68.289    21603.231    26560.900     4663.343        5.246        2.641      227.674       79.161        0.121      341.466       16.195      850.477
10/31/2014  17:13:00      -65.159      -30.057       -2.971       94.033       58.627       38.674     8842.173     3437.068     1495.716        0.946        0.689       71.758       20.389        0.081      341.529       16.304      850.484
10/31/2014  17:14:00      -42.631      -15.777       18.471      101.106       52.503       30.996    10222.380     2756.572      960.731        0.817        0.697       45.457       35.526        0.611      341.616       16.452      850.456
10/31/2014  17:15:00     -164.873      -80.534        0.116      182.203       80.587       57.931    33197.760     6494.276     3356.005        3.835        2.152      183.491       75.269        0.168      341.441       16.153      850.459
10/31/2014  17:16:00     -370.723     -202.772        3.322      246.464      156.594       99.745    60744.429    24521.703     9949.116       13.687        4.761      422.554      115.806        0.075      341.286       15.891      850.470
10/31/2014  17:17:00     -349.968     -158.369       -7.007      207.674      145.437       81.396    43128.651    21151.873     6625.245       10.924        3.545      384.133       82.680        0.046      341.284       15.887      850.434
10/31/2014  17:18:00     -359.796     -218.414      -17.507      195.271      185.223       89.323    38130.615    34307.580     7978.528       12.892        4.021      420.902       98.602        0.055      341.235       15.804      850.427
10/31/2014  17:19:00     -201.393     -132.175       -8.745      143.681      125.990       77.142    20644.236    15873.556     5950.831        5.028        2.123      240.893       80.206        0.111      341.267       15.856      850.425
10/31/2014  17:20:00     -176.106      -82.952       -0.025      160.291       92.621       60.242    25693.324     8578.711     3629.047        3.789        1.895      194.665       70.706        0.132      341.313       15.936      850.423
10/31/2014  17:21:00     -161.701      -87.950       -1.793      138.261      124.266       75.370    19116.211    15442.023     5680.678        3.705        2.012      184.072       77.213        0.176      341.283       15.887      850.391
10/31/2014  17:22:00     -384.362     -206.460      -20.810      165.255      135.964       89.489    27309.104    18486.339     8008.208       12.229        2.690      436.302       82.799        0.036      341.198       15.741      850.354
10/31/2014  17:23:00     -214.981     -140.003        4.356      142.984      146.200       71.592    20444.429    21374.488     5125.444        5.638        2.347      256.550       78.517        0.094      341.210       15.761      850.313
10/31/2014  17:24:00     -296.163       53.081      -15.739      129.621      116.048       57.938    16801.537    13467.213     3356.867        6.219        1.681      300.882       51.818        0.030      341.194       15.734      850.301
10/31/2014  17:25:00     -461.555      -59.779      -23.813      214.189      120.891       85.967    45876.945    14614.721     7390.261       14.251        3.394      465.410       82.298        0.031      341.149       15.658      850.264
10/31/2014  17:26:00     -542.577     -135.945        1.966      257.814      174.885       96.590    66468.184    30584.901     9329.656       20.961        5.319      559.349      115.848        0.043      341.113       15.596      850.292
10/31/2014  17:27:00     -465.152     -128.676      -50.269      153.592      149.433       76.351    23590.598    22330.175     5829.434       14.359        2.588      482.622       62.893        0.017      341.102       15.578      850.327
10/31/2014  17:28:00     -321.428      -72.998        1.183      173.417      157.475       73.464    30073.372    24798.517     5396.901        8.445        3.013      329.613       89.805        0.074      341.140       15.643      850.305
10/31/2014  17:29:00     -537.919      -99.037      -25.021      265.883      199.791      114.076    70693.793    39916.374    13013.326       21.168        6.181      546.960      140.039        0.066      341.076       15.535      850.264
10/31/2014  17:30:00     -434.389     -211.852       -2.350      247.661      196.955      102.078    61335.967    38791.120    10419.924       17.204        5.527      483.296      126.369        0.068      341.056       15.501      850.210
10/31/2014  17:31:00     -394.418     -159.510       -8.848      267.721      181.725      107.687    71674.412    33023.824    11596.576       14.867        5.815      425.452      124.678        0.086      341.057       15.503      850.206
10/31/2014  17:32:00     -574.447     -204.376      -30.500      253.838      225.744      111.262    64433.766    50960.204    12379.126       25.021        6.389      609.721      119.888        0.039      340.981       15.374      850.181
10/31/2014  17:33:00     -446.112      -61.805      -27.235      178.321      156.392       89.278    31798.240    24458.548     7970.617       13.389        3.211      450.373       88.796        0.039      340.981       15.374      850.164
10/31/2014  17:34:00     -559.204      -99.940      -22.431      233.107      166.365      105.569    54338.792    27677.317    11144.799       20.816        4.658      568.065       99.822        0.031      340.860       15.168      850.106
10/31/2014  17:35:00     -557.898      -80.023      -36.142      218.658      200.346       92.515    47811.507    40138.628     8559.099       20.772        4.825      563.608       92.779        0.027      340.821       15.103      850.094
10/31/2014  17:36:00     -432.360      -93.103      -24.353      149.965      138.981       87.140    22489.507    19315.613     7593.331       12.279        2.470      442.271       87.092        0.039      340.812       15.088      850.129
10/31/2014  17:37:00     -347.159      -62.397        6.854      234.165      155.074       95.828    54833.394    24047.833     9182.979       10.624        4.403      352.722      115.492        0.107      340.812       15.089      850.117
10/31/2014  17:38:00     -491.968        4.752      -31.468      201.219      165.567       97.424    40488.945    27412.496     9491.493       16.020        3.870      491.991      108.869        0.049      340.740       14.966      850.127
10/31/2014  17:39:00     -421.197     -108.388       -7.008      193.340      179.528       81.913    37380.300    32230.295     6709.672       13.275        3.816      434.920       93.229        0.046      340.705       14.907      850.122
10/31/2014  17:40:00     -459.562     -111.865      -34.347      157.753      147.896       78.509    24886.054    21873.114     6163.727       13.890        2.646      472.981       74.801        0.025      340.653       14.818      850.091
10/31/2014  17:41:00     -521.875     -167.899      -22.279      177.614      167.920       85.030    31546.863    28197.065     7230.117       18.399        3.349      548.219       79.109        0.021      340.633       14.785      850.117
10/31/2014  17:42:00     -590.098     -127.945      -51.576      241.235      140.314      101.713    58194.290    19687.908    10345.446       22.772        4.411      603.809      103.719        0.030      340.630       14.779      850.101
10/31/2014  17:43:00     -317.487      -41.896      -31.027      160.081      168.746       97.862    25625.917    28475.181     9577.034        8.358        3.184      320.239       83.386        0.068      340.597       14.724      850.088
10/31/2014  17:44:00     -543.274     -130.637      -65.433      190.003      185.828      106.920    36101.016    34531.911    11431.935       19.926        4.103      558.760       99.330        0.032      340.570       14.678      850.062
10/31/2014  17:45:00     -447.804      -88.725      -19.627      189.563      167.203       96.616    35934.212    27956.808     9334.634       14.099        3.661      456.509       86.730        0.036      340.538       14.625      850.088
10/31/2014  17:46:00     -496.316     -161.760       -7.103      225.993      128.409       82.650    51073.036    16488.883     6830.989       17.345        3.720      522.011       95.837        0.034      340.528       14.609      850.176
10/31/2014  17:47:00     -403.209     -108.964      -27.134      173.946      125.564       75.038    30257.205    15766.230     5630.733       11.341        2.583      417.673       78.228        0.035      340.612       14.749      850.196
10/31/2014  17:48:00     -460.981      -65.962      -44.793      182.353      149.925       82.166    33252.445    22477.418     6751.226       14.066        3.124      465.676       79.816        0.029      340.718       14.928      850.171
10/31/2014  17:49:00     -463.251      -57.867      -45.808      289.487      141.017       84.265    83802.905    19885.658     7100.668       16.540        5.539      466.851      100.369        0.046      340.708       14.913      850.151
10/31/2014  17:50:00     -402.162      -99.567      -32.913      162.268      126.787       66.605    26330.951    16075.041     4436.211       10.978        2.342      414.305       60.155        0.021      340.684       14.871      850.112
10/31/2014  17:51:00     -385.561     -118.662      -20.531      128.016      171.520       70.007    16388.059    29419.172     4900.985       10.692        2.535      403.408       67.655        0.028      340.707       14.910      850.130
10/31/2014  17:52:00     -409.443      -86.547       -3.591      170.918      154.592       90.930    29212.902    23898.590     8268.302       11.825        3.069      418.490       80.127        0.037      340.769       15.015      850.131
10/31/2014  17:53:00     -276.534      -83.795       -3.150      190.263      155.351       83.489    36200.136    24133.863     6970.445        7.539        3.365      288.951       93.718        0.105      340.774       15.024      850.139
10/31/2014  17:54:00     -333.756      -60.251      -23.464      113.385      121.798       66.282    12856.075    14834.851     4393.248        7.382        1.604      339.150       61.754        0.033      340.830       15.118      850.143
10/31/2014  17:55:00     -403.262     -142.811      -20.061      217.234      137.784       77.956    47190.673    18984.325     6077.066       12.782        3.613      427.803       70.397        0.027      340.814       15.091      850.149
10/31/2014  17:56:00     -421.453      -55.757      -17.479      217.469      124.117       86.774    47292.829    15405.148     7529.794       12.562        3.511      425.125       98.214        0.053      340.801       15.070      850.132
10/31/2014  17:57:00     -435.692      -65.889      -18.389      217.950      138.708       77.598    47502.121    19239.982     6021.448       13.362        3.638      440.646       94.710        0.046      340.788       15.047      850.149
10/31/2014  17:58:00     -443.160      -57.146      -38.759      161.973      118.866       68.718    26235.306    14129.146     4722.150       12.311        2.254      446.829       71.460        0.026      340.722       14.935      850.148
10/31/2014  17:59:00     -357.613     -144.507      -14.594      169.190      161.102       84.665    28625.337    25953.772     7168.147       10.535        3.087      385.706       75.604        0.038      340.640       14.796      850.104
10/31/2014  18:00:00     -383.851      -46.955      -14.997      130.187      142.948       51.878    16948.605    20434.047     2691.318        9.491        2.004      386.712       47.184        0.015      340.666       14.840      850.099
10/31/2014  18:01:00     -381.662      -79.184      -16.215      185.571      143.768       68.744    34436.541    20669.282     4725.711       10.600        2.992      389.790       57.032        0.021      340.676       14.857      850.094
10/31/2014  18:02:00     -419.888      -66.218      -20.871      128.733      112.590       70.171    16572.075    12676.616     4923.915       10.764        1.709      425.077       62.094        0.021      340.674       14.857      850.102
10/31/2014  18:03:00     -372.756      -42.734      -22.986      202.567      147.465       71.452    41033.360    21745.917     5105.363       10.458        3.394      375.198       76.826        0.042      340.667       14.842      850.103
10/31/2014  18:04:00     -443.817      -43.795      -24.661      159.419      156.141       73.255    25414.500    24380.054     5366.247       12.732        2.758      445.973       73.659        0.027      340.628       14.777      850.140
10/31/2014  18:05:00     -392.214      -27.342      -23.275      172.631      165.693       82.401    29801.495    27454.040     6789.970       10.957        3.202      393.166       81.634        0.043      340.637       14.792      850.111
10/31/2014  18:06:00     -567.361     -102.340      -33.392      190.544      156.713       82.553    36307.141    24558.978     6814.960       20.057        3.384      576.517       92.717        0.026      340.673       14.853      850.045
10/31/2014  18:07:00     -537.429     -152.249      -24.148      228.023      206.499      100.006    51994.362    42641.975    10001.133       20.859        5.232      558.579      119.827        0.046      340.733       14.954      850.065
10/31/2014  18:08:00     -436.943     -105.537      -13.371      196.410      165.462       93.939    38576.904    27377.705     8824.451       13.849        3.739      449.508       98.570        0.048      340.755       14.990      850.118
10/31/2014  18:09:00     -427.624      -83.613      -26.685      144.156      132.942       70.198    20780.851    17673.443     4927.810       11.696        2.169      435.721       64.201        0.022      340.736       14.959      850.160
10/31/2014  18:10:00     -400.495     -106.091        4.133      215.252      190.182      101.172    46333.607    36169.330    10235.862       13.219        4.637      414.308      122.259        0.087      340.573       14.684      850.172
10/31/2014  18:11:00     -535.062     -144.126      -14.430      226.977      179.380       95.766    51518.398    32177.233     9171.039       20.005        4.643      554.133      111.253        0.040      340.396       14.385      850.159
10/31/2014  18:12:00     -492.208      -62.975      -16.697      203.843      162.747       91.349    41552.165    26486.513     8344.621       16.143        3.819      496.220       95.885        0.037      340.352       14.309      850.247
10/31/2014  18:13:00     -572.044     -102.809      -43.162      268.436      221.920      111.213    72058.105    49248.395    12368.267       23.664        6.684      581.209      131.771        0.051      340.165       13.994      850.264
10/31/2014  18:14:00     -429.768      -63.143      -19.206      279.581      170.554      109.250    78165.327    29088.765    11935.637       15.410        5.959      434.382      118.393        0.074      340.097       13.879      850.264
10/31/2014  18:15:00     -527.462      -93.658      -21.472      223.948      188.698      100.714    50152.619    35607.107    10143.351       19.166        4.795      535.713      116.590        0.047      339.982       13.685      850.281
10/31/2014  18:16:00     -662.009     -223.654      -39.720      213.607      170.988       91.299    45627.876    29236.858     8335.490       28.651        4.160      698.768       87.220        0.016      339.881       13.514      850.271
10/31/2014  18:17:00     -493.467     -131.781      -40.192      209.159      144.275       87.032    43747.459    20815.385     7574.501       16.730        3.607      510.760      106.497        0.043      339.883       13.518      850.286
10/31/2014  18:18:00     -577.904     -190.616      -45.006      272.973      193.577       95.618    74514.314    37472.075     9142.833       24.671        6.056      608.529      114.824        0.036      339.786       13.355      850.152
10/31/2014  18:19:00     -721.142     -177.233      -39.736      298.263      293.705      134.169    88960.917    86262.471    18001.218       37.309        9.661      742.602      135.342        0.033      339.696       13.203      850.097
10/31/2014  18:20:00     -668.362     -127.721      -34.366      296.397      252.726      111.244    87851.086    63870.200    12375.226       31.412        8.205      680.456      118.528        0.030      339.643       13.113      850.023
10/31/2014  18:21:00     -588.444     -230.626      -14.587      313.556      239.949      125.340    98317.162    57575.645    15710.235       28.560        8.580      632.025      145.258        0.053      339.648       13.122      849.982
10/31/2014  18:22:00     -669.832     -240.015       -9.127      265.337      199.013      108.656    70403.914    39606.225    11806.206       31.407        6.091      711.535      130.669        0.034      339.592       13.028      849.939
10/31/2014  18:23:00     -733.060     -128.188      -48.270      320.799      219.318      128.595   102911.985    48100.597    16536.772       36.181        8.377      744.183      145.705        0.038      339.595       13.033      849.941
10/31/2014  18:24:00     -741.283     -121.330      -57.693      279.794      261.660      121.816    78284.730    68466.054    14839.163       36.454        8.079      751.147      116.148        0.024      339.570       12.992      849.940
10/31/2014  18:25:00     -891.287      -46.798      -82.144      211.051      205.476      100.842    44542.600    42220.490    10169.087       45.011        4.847      892.515       96.741        0.012      339.501       12.874      849.977
10/31/2014  18:26:00     -644.213     -208.601      -32.372      244.212      216.013      110.944    59639.427    46661.666    12308.485       28.907        5.930      677.145      103.669        0.023      339.566       12.985      849.897
10/31/2014  18:27:00     -638.021     -109.782      -49.878      247.981      216.504      115.698    61494.562    46874.073    13385.954       27.166        6.088      647.397      131.072        0.041      339.608       13.056      849.905
10/31/2014  18:28:00     -586.576     -114.420      -19.134      232.837      176.367      104.016    54213.079    31105.172    10819.342       22.681        4.807      597.632      119.389        0.040      339.565       12.982      849.917
10/31/2014  18:29:00     -526.004      -50.363      -28.992      162.019      233.728      103.645    26250.193    54628.831    10742.359       18.582        4.581      528.409       90.740        0.029      339.529       12.920      849.860
10/31/2014  18:30:00     -470.878     -126.254       -6.224      288.901      184.227      130.216    83463.811    33939.482    16956.081       18.601        6.718      487.510      131.189        0.072      339.560       12.974      849.782
10/31/2014  18:31:00     -382.365      -26.107        0.814      227.879      208.202      105.709    51928.619    43347.915    11174.351       12.665        5.323      383.255      110.938        0.084      339.597       13.036      849.783
10/31/2014  18:32:00     -623.262     -160.052      -25.899      271.577      244.292      118.972    73753.878    59678.382    14154.427       28.114        7.379      643.485      126.934        0.039      339.521       12.908      849.766
10/31/2014  18:33:00     -631.603      -51.590      -26.847      245.230      188.236      104.916    60137.761    35432.661    11007.321       25.442        5.329      633.706      124.637        0.039      339.505       12.881      849.806
10/31/2014  18:34:00     -663.367       -4.129      -31.833      274.095      250.190      110.135    75128.219    62595.238    12129.754       29.544        7.493      663.380      125.847        0.036      339.463       12.809      849.813
10/31/2014  18:35:00     -540.697     -157.294        4.193      308.449      195.607      123.629    95140.565    38262.042    15284.070       23.287        7.434      563.112      143.920        0.065      339.457       12.799      849.779
10/31/2014  18:36:00     -612.433        1.753      -49.331      229.397      179.896       88.505    52623.047    32362.410     7833.109       23.515        4.641      612.436       94.580        0.024      339.487       12.850      849.844
10/31/2014  18:37:00     -516.429      -68.797      -34.072      201.131      144.539       96.147    40453.766    20891.450     9244.220       17.158        3.529      520.991      102.163        0.038      339.538       12.936      849.870
10/31/2014  18:38:00     -479.370      -98.151      -36.918      175.553      146.268       82.080    30818.818    21394.421     6737.204       14.986        2.948      489.315       77.400        0.025      339.511       12.891      849.877
10/31/2014  18:39:00     -475.912      -67.752      -16.415      324.354      237.598      107.015   105205.199    56452.722    11452.229       20.220        8.656      480.710      142.165        0.087      339.495       12.864      849.851
10/31/2014  18:40:00     -611.298     -169.560      -15.230      262.375      243.934      105.665    68840.620    59503.865    11165.147       27.106        6.975      634.379      110.765        0.030      339.459       12.804      849.790
10/31/2014  18:41:00     -529.439     -109.988      -35.229      227.787      187.159      102.310    51886.731    35028.475    10467.336       19.549        4.869      540.743      112.153        0.043      339.523       12.910      849.759
10/31/2014  18:42:00     -469.670     -131.080        4.201      201.496      164.105       96.471    40600.457    26930.506     9306.682       15.730        3.842      487.619       89.867        0.034      339.579       13.004      849.756
10/31/2014  18:43:00     -424.152     -124.348      -10.546      240.841      180.708       92.697    58004.560    32655.452     8592.731       14.735        4.963      442.004       91.347        0.043      339.559       12.973      849.795
10/31/2014  18:44:00     -601.219     -108.931      -30.862      285.761      172.530      106.709    81659.145    29766.529    11386.844       24.852        6.141      611.008      115.853        0.036      339.493       12.861      849.793
10/31/2014  18:45:00     -541.837      -76.608      -28.722      203.126      225.461      105.214    41260.241    50832.453    11070.042       20.170        5.158      547.226      105.642        0.037      339.473       12.827      849.834
10/31/2014  18:46:00     -369.758     -145.110      -19.116      236.274      192.428       92.172    55825.430    37028.716     8495.682       12.973        5.067      397.213       87.956        0.049      339.458       12.802      849.819
10/31/2014  18:47:00     -596.818      -66.373      -39.434      263.222      203.451      121.816    69285.933    41392.507    14839.103       24.381        6.276      600.497      128.346        0.046      339.413       12.726      849.761
10/31/2014  18:48:00     -583.212      -31.229      -39.814      186.733      168.849       89.123    34869.147    28509.858     7942.938       20.699        3.566      584.047       83.366        0.020      339.388       12.684      849.830
10/31/2014  18:49:00     -443.467      -40.009      -25.738      235.530      152.483      101.250    55474.231    23251.002    10251.505       14.393        4.449      445.269      117.482        0.070      339.478       12.835      849.814
10/31/2014  18:50:00     -582.391      -47.833      -21.691      338.589      225.744      109.425   114642.340    50960.245    11973.855       25.972        8.879      584.352      131.382        0.051      339.367       12.649      849.754
10/31/2014  18:51:00     -808.088     -112.877      -71.495      321.741      236.444      121.979   103517.509    55905.623    14878.989       42.255        8.715      815.933      141.141        0.030      339.216       12.394      849.754
10/31/2014  18:52:00     -889.147     -119.413      -72.604      265.945      231.126      120.248    70726.950    53419.277    14459.686       47.433        6.930      897.129      127.053        0.020      339.154       12.291      849.737
10/31/2014  18:53:00     -655.312      -87.534      -73.586      276.947      193.297       96.796    76699.860    37363.575     9369.535       28.295        6.172      661.132      119.336        0.033      339.221       12.402      849.757
10/31/2014  18:54:00     -597.546     -139.795      -52.596      232.650      224.349      110.255    54126.240    50332.281    12156.158       24.797        5.831      613.681      118.815        0.037      339.210       12.385      849.828
10/31/2014  18:55:00     -669.956     -148.182      -40.022      374.873      206.885      121.451   140529.924    42801.607    14750.327       33.520        9.904      686.147      153.120        0.050      339.145       12.275      849.825
10/31/2014  18:56:00     -599.428     -241.431      -24.509      238.457      185.371       95.115    56861.947    34362.445     9046.864       25.922        5.014      646.222      103.431        0.026      339.153       12.288      849.824
10/31/2014  18:57:00     -407.155     -151.248        4.720      223.439      188.330       80.452    49925.076    35468.295     6472.471       14.025        4.593      434.340       98.472        0.051      339.225       12.410      849.834
10/31/2014  18:58:00     -568.558     -210.324      -30.462      273.680      261.473      131.088    74900.604    68368.109    17184.042       26.441        8.023      606.213      138.755        0.052      339.275       12.493      849.885
10/31/2014  18:59:00     -651.902     -170.675      -28.250      296.763      261.027      141.450    88068.364    68134.841    20008.149       31.552        8.811      673.874      126.891        0.035      339.303       12.539      849.893
10/31/2014  19:00:00     -643.644     -180.600      -11.325      322.095      211.059      127.351   103744.938    44545.901    16218.388       30.573        8.225      668.501      147.117        0.048      339.332       12.590      849.986
10/31/2014  19:01:00     -662.632     -172.710      -11.594      338.347      212.978      114.601   114478.622    45359.818    13133.497       32.097        8.649      684.769      142.925        0.044      339.293       12.522      850.127
10/31/2014  19:02:00     -442.694     -153.332      -20.386      258.401      156.906       95.033    66770.913    24619.523     9031.189       16.014        5.021      468.496      107.214        0.052      339.278       12.499      850.056
10/31/2014  19:03:00     -510.932     -113.867        2.108      255.786      201.832      107.003    65426.486    40736.264    11449.612       19.579        5.881      523.466      114.483        0.048      339.229       12.416      849.982
10/31/2014  19:04:00     -737.259     -216.090      -58.962      305.250      270.619      110.793    93177.570    73234.873    12275.063       38.617        8.934      768.274      107.193        0.019      339.165       12.308      850.061
10/31/2014  19:05:00     -913.246     -184.567      -66.169      332.816      207.247      114.211   110766.541    42951.244    13044.215       51.958        8.338      931.709      119.553        0.016      339.101       12.201      850.169
10/31/2014  19:06:00     -673.608      114.977      -51.025      292.016      213.242      109.404    85273.147    45472.083    11969.133       30.611        7.136      683.350      114.131        0.028      339.029       12.079      850.204
10/31/2014  19:07:00     -464.590      -36.731      -34.485      169.218      190.690       88.454    28634.817    36362.811     7824.080       14.559        3.641      466.040       73.545        0.025      339.070       12.149      850.175
10/31/2014  19:08:00     -609.213     -194.326      -24.632      221.359      195.981      109.170    48999.814    38408.438    11918.013       25.440        4.966      639.455      124.479        0.038      339.004       12.039      850.188
10/31/2014  19:09:00     -460.028     -162.880      -25.584      281.537      144.410       87.643    79262.872    20854.136     7681.372       17.328        5.390      488.012       96.858        0.039      339.057       12.127      850.204
10/31/2014  19:10:00     -557.437     -177.968      -37.143      263.997      214.719      109.042    69694.390    46104.038    11890.170       23.571        6.384      585.157      105.920        0.033      339.054       12.123      850.264
10/31/2014  19:11:00     -673.232     -217.359      -42.580      337.019      221.333      107.232   113581.898    48988.097    11498.687       33.815        8.703      707.450      128.864        0.033      339.045       12.106      850.264
10/31/2014  19:12:00     -428.429      -86.978       -6.269      260.168      145.048       92.373    67687.375    21038.805     8532.748       14.419        4.863      437.169      113.923        0.068      339.067       12.143      850.331
10/31/2014  19:13:00     -340.801      -63.876      -21.476      189.620      110.886       77.890    35955.780    12295.677     6066.913        8.749        2.716      346.735       84.961        0.060      339.085       12.174      850.353
10/31/2014  19:14:00     -338.624       10.581      -29.807      176.163      143.569       78.700    31033.333    20611.945     6193.645        8.674        2.892      338.789       92.061        0.074      339.048       12.112      850.314
10/31/2014  19:15:00     -265.615      -22.574      -21.358      197.579      132.167       79.549    39037.409    17468.110     6328.049        6.716        3.142      266.573       84.215        0.100      339.011       12.050      850.268
10/31/2014  19:16:00     -600.063      -10.882      -52.137      268.639      181.710      110.355    72166.960    33018.484    12178.187       24.011        5.868      600.161      126.423        0.044      338.960       11.963      850.236
10/31/2014  19:17:00     -543.478     -137.719      -32.921      228.048      184.354       99.275    52005.750    33986.343     9855.506       20.561        4.792      560.656      109.092        0.038      338.917       11.890      850.261
10/31/2014  19:18:00     -389.959     -131.850       -3.401      210.056      187.019       95.930    44123.607    34976.258     9202.509       12.887        4.415      411.646       94.807        0.053      338.938       11.927      850.294
10/31/2014  19:19:00     -518.682      -84.590      -31.640      276.081      208.741      103.932    76220.645    43572.911    10801.907       20.387        6.530      525.535      130.747        0.062      339.056       12.124      850.313
10/31/2014  19:20:00     -353.926     -142.002      -11.226      160.190      131.908       68.838    25660.928    17399.834     4738.611        9.667        2.390      381.350       70.322        0.034      339.075       12.157      850.352
10/31/2014  19:21:00     -364.956      -80.867      -15.002      118.616      108.299       59.232    14069.818    11728.601     3508.462        8.463        1.465      373.808       58.765        0.025      339.030       12.081      850.407
10/31/2014  19:22:00     -270.438       97.107      -39.351      131.144       93.171       54.009    17198.636     8680.771     2916.935        5.645        1.440      287.344       56.377        0.038      339.031       12.084      850.446
10/31/2014  19:23:00     -215.049       73.357      -33.749      103.623       62.551       42.683    10737.721     3912.648     1821.819        3.462        0.824      227.216       11.658        0.003      339.025       12.074      850.391
10/31/2014  19:24:00      -35.460       49.235       23.228       96.390      103.273       54.547     9291.014    10665.369     2975.379        1.357        1.147       60.675       46.337        0.583      339.085       12.176      850.314
10/31/2014  19:25:00      -99.311      -38.548       -3.034       72.211       59.591       38.824     5214.414     3551.052     1507.270        1.081        0.514      106.529       37.516        0.124      339.117       12.229      850.271
10/31/2014  19:26:00     -561.899      -77.938      -24.602      250.823      153.402       80.896    62911.944    23532.200     6544.146       20.768        4.649      567.279       97.159        0.029      338.996       12.025      850.230
10/31/2014  19:27:00     -636.775      -89.900      -50.295      331.623      203.328      106.380   109974.114    41342.406    11316.800       28.933        8.132      643.089      135.231        0.044      338.977       11.992      850.136
10/31/2014  19:28:00     -401.291     -166.310       -8.944      241.312      169.110      100.067    58231.650    28598.032    10013.366       14.279        4.842      434.389      113.521        0.068      339.037       12.093      850.152
10/31/2014  19:29:00     -536.922     -135.078      -12.195      310.002      187.106      106.129    96101.253    35008.535    11263.381       22.450        7.119      553.652      115.415        0.043      339.012       12.051      850.197
10/31/2014  19:30:00     -290.658      -52.447       12.742      298.131      187.013      128.732    88881.904    34973.728    16571.894       11.388        7.021      295.352      156.710        0.282      339.063       12.136      850.141
10/31/2014  19:31:00     -654.319     -114.269      -35.155      225.091      201.492       93.723    50665.775    40599.144     8784.050       27.122        5.002      664.222       90.930        0.019      339.002       12.034      850.173
10/31/2014  19:32:00     -558.821     -108.429      -19.001      223.304      207.848       95.587    49864.616    43200.603     9136.961       21.328        5.110      569.243      102.567        0.032      339.001       12.031      850.203
10/31/2014  19:33:00     -467.313      -41.754      -23.354      233.542      217.327       90.686    54541.834    47231.111     8223.904       16.531        5.500      469.174       96.788        0.043      338.984       12.004      850.104
10/31/2014  19:34:00     -485.560     -147.230        0.743      248.528      185.952       98.252    61766.390    34578.332     9653.480       18.170        5.300      507.391      123.456        0.059      338.991       12.016      850.058
10/31/2014  19:35:00     -391.402     -110.843        2.418      245.884      212.479      117.881    60458.963    45147.479    13896.008       14.247        5.975      406.794      120.998        0.088      339.006       12.043      850.086
10/31/2014  19:36:00     -574.071       34.245      -45.005      217.644      164.096       94.640    47368.833    26927.588     8956.789       20.799        4.163      575.091       92.964        0.026      338.920       11.895      850.173
10/31/2014  19:37:00     -425.853     -108.752      -20.570      191.006      159.217       87.928    36483.476    25349.928     7731.294       13.157        3.478      439.520       81.474        0.034      338.967       11.977      850.177
10/31/2014  19:38:00     -395.737      -53.364       -2.979      207.401      116.600       84.933    43015.165    13595.481     7213.639       11.163        3.191      399.319      107.038        0.072      338.959       11.962      850.226
10/31/2014  19:39:00     -325.130     -216.108       -1.071      176.964      149.964       89.868    31316.295    22489.257     8076.298       10.714        3.094      390.400       97.392        0.062      338.924       11.903      850.129
10/31/2014  19:40:00     -355.797      -76.187       -7.780      169.238      123.384       84.973    28641.402    15223.576     7220.483        9.176        2.554      363.863       78.020        0.046      338.928       11.909      850.104
10/31/2014  19:41:00     -379.692      -48.294      -13.053      146.035      145.128       78.393    21326.291    21062.258     6145.448        9.759        2.427      382.751       80.039        0.044      338.937       11.925      850.140
10/31/2014  19:42:00     -327.463     -145.372      -27.331      146.077      129.642       71.172    21338.590    16807.051     5065.480        8.615        2.161      358.280       65.132        0.033      338.952       11.949      850.148
10/31/2014  19:43:00     -327.982     -190.569      -15.354      290.427      183.172      106.021    84347.825    33551.928    11240.473       13.661        6.457      379.327      141.354        0.139      338.952       11.951      850.146
10/31/2014  19:44:00     -341.971     -135.893      -20.249      195.552      157.958       77.427    38240.715    24950.876     5994.949       10.249        3.459      367.983       82.997        0.051      338.948       11.943      850.162
10/31/2014  19:45:00     -591.097     -148.753      -24.208      244.473      237.126      115.025    59767.088    56228.605    13230.665       25.064        6.461      609.527      116.909        0.037      338.883       11.834      850.169
10/31/2014  19:46:00     -567.373     -209.986      -28.841      244.138      245.767      102.641    59603.527    60401.662    10535.229       24.866        6.527      604.985       94.125        0.024      338.876       11.823      850.153
10/31/2014  19:47:00     -439.248      -56.078      -16.372      253.705      194.957       97.850    64366.473    38008.196     9574.704       15.413        5.597      442.813      122.421        0.076      338.936       11.924      850.169
10/31/2014  19:48:00     -404.952      -70.753      -19.193      176.013      165.272       91.882    30980.579    27314.691     8442.257       11.804        3.337      411.086       91.265        0.049      338.954       11.954      850.239
10/31/2014  19:49:00     -395.346     -112.306       -5.864      265.335      204.940      118.483    70402.647    42000.334    14038.201       14.767        6.322      410.988      135.970        0.109      338.961       11.966      850.281
10/31/2014  19:50:00     -371.197      -56.861      -20.771      172.527      135.858       69.240    29765.580    18457.445     4794.172        9.722        2.651      375.527       68.458        0.033      338.917       11.892      850.265
10/31/2014  19:51:00     -266.147       63.348      -35.483      146.743      114.523       68.126    21533.640    13115.555     4641.089        5.769        1.965      273.582       64.422        0.055      338.921       11.897      850.147
10/31/2014  19:52:00     -291.306       31.837      -10.006      188.654      143.064       78.721    35590.410    20467.296     6196.975        7.410        3.113      293.040       79.192        0.073      338.920       11.896      850.144
10/31/2014  19:53:00     -665.221     -163.624      -43.178      288.906      216.313      104.238    83466.904    46791.154    10865.562       30.611        7.056      685.049      101.765        0.022      338.870       11.812      850.052
10/31/2014  19:54:00     -633.882     -165.188       -4.998      299.579      216.766      112.570    89747.466    46987.352    12672.077       28.923        7.470      655.052      125.188        0.037      338.867       11.808      850.040
10/31/2014  19:55:00     -561.968     -185.889      -41.191      213.397      181.095       99.332    45538.361    32795.286     9866.788       22.011        4.410      591.914       92.094        0.024      338.846       11.773      850.106
10/31/2014  19:56:00     -465.720     -137.693      -36.916      181.587      175.159       87.110    32973.934    30680.658     7588.192       15.422        3.562      485.649       84.252        0.030      338.849       11.777      850.170
10/31/2014  19:57:00     -222.495      -62.806       -3.780      164.535      113.456       67.438    27071.726    12872.328     4547.929        4.897        2.225      231.189       61.923        0.072      338.922       11.901      850.206
10/31/2014  19:58:00     -461.248      -87.218      -18.768      194.697      142.526       71.589    37906.973    20313.523     5124.964       14.201        3.167      469.422       70.261        0.022      338.841       11.764      850.230
10/31/2014  19:59:00     -324.495     -101.135      -14.847      134.882      149.252       71.420    18193.051    22276.284     5100.827        8.065        2.279      339.890       65.578        0.037      338.836       11.757      850.248
10/31/2014  20:00:00     -208.060      -15.319       -5.264       94.793       73.767       57.868     8985.749     5441.518     3348.650        3.066        0.889      208.624       54.232        0.068      338.895       11.853      850.330
10/31/2014  20:01:00     -256.155      -72.978        0.418      131.168      115.015       63.001    17205.013    13228.504     3969.148        5.267        1.720      266.348       70.754        0.071      338.926       11.906      850.382
10/31/2014  20:02:00     -503.646     -151.178      -43.567      187.827      174.775       75.837    35278.836    30546.133     5751.261       17.498        3.579      525.846       77.102        0.021      338.871       11.813      850.391
10/31/2014  20:03:00     -526.479      179.529      -69.213      204.229      145.797       78.641    41709.458    21256.812     6184.391       19.166        3.458      556.247       67.348        0.015      338.820       11.729      850.469
10/31/2014  20:04:00     -123.890       79.587        0.586      190.477      116.054       71.437    36281.588    13468.431     5103.260        3.826        2.743      147.251       85.824        0.340      338.905       11.873      850.560
10/31/2014  20:05:00     -120.654       47.152      -15.483       73.905       70.601       46.467     5461.920     4984.489     2159.154        1.481        0.630      129.540       40.869        0.100      338.861       11.797      850.641
10/31/2014  20:06:00      -35.670       69.722      -10.124       54.323       97.884       31.422     2951.008     9581.209      987.323        0.988        0.676       78.317       37.164        0.225      338.900       11.865      850.696
10/31/2014  20:07:00     -129.653      346.538      -28.404      159.243      181.736       81.674    25358.302    33028.004     6670.658       10.137        3.253      369.998       88.538        0.057      338.805       11.703      850.700
10/31/2014  20:08:00      -11.146      293.921      -38.740       99.551      126.989       55.751     9910.441    16126.191     3108.223        5.857        1.457      294.133       58.824        0.040      338.709       11.541      850.749
10/31/2014  20:09:00       68.043      121.490       -7.006       78.115      136.798       53.277     6101.913    18713.824     2838.446        2.354        1.383      139.247       68.097        0.239      338.751       11.613      850.707
10/31/2014  20:10:00        5.103      236.581      -20.864       81.070      136.379       59.807     6572.310    18599.171     3576.893        4.258        1.437      236.636       62.435        0.070      338.683       11.501      850.670
10/31/2014  20:11:00      123.818       94.708       15.976       59.065       48.329       44.981     3488.717     2335.692     2023.315        1.620        0.392      155.886       30.409        0.038      338.611       11.378      850.612
10/31/2014  20:12:00       70.538      152.128       -4.389       83.162       90.637       63.632     6915.865     8215.046     4048.995        2.365        0.959      167.686       59.570        0.126      338.583       11.331      850.601
10/31/2014  20:13:00       64.040      153.422       -9.560       64.090       90.556       44.036     4107.476     8200.320     1939.129        2.099        0.712      166.251       49.337        0.088      338.591       11.345      850.587
10/31/2014  20:14:00       21.856      176.781       -3.461       98.717      123.622       65.779     9745.098    15282.498     4326.817        3.054        1.468      178.127       73.102        0.168      338.602       11.363      850.521
10/31/2014  20:15:00     -120.504      194.709      -27.595       64.372      111.422       50.923     4143.740    12414.969     2593.166        3.617        0.958      228.982       46.108        0.041      338.621       11.393      850.534
10/31/2014  20:16:00     -135.749      113.547      -24.994       84.152       58.756       44.521     7081.527     3452.316     1982.136        2.223        0.626      176.977       42.527        0.058      338.678       11.491      850.570
10/31/2014  20:17:00     -180.827       97.750      -32.279       74.169      102.855       49.059     5501.066    10579.145     2406.756        3.089        0.924      205.557       52.530        0.065      338.668       11.471      850.608
10/31/2014  20:18:00     -131.419       86.896      -10.663       91.247      117.914       52.093     8326.057    13903.824     2713.641        2.493        1.247      157.549       46.853        0.088      338.710       11.544      850.647
10/31/2014  20:19:00      -79.494      287.533      -31.156       66.844      114.153       45.149     4468.085    13030.893     2038.423        5.475        0.977      298.319       51.516        0.030      338.673       11.481      850.631
10/31/2014  20:20:00      -60.841      284.921      -28.075       72.854      115.403       47.459     5307.711    13317.821     2252.322        5.327        1.044      291.344       53.392        0.034      338.630       11.409      850.627
10/31/2014  20:21:00      -59.497      264.787      -26.851       76.823      105.026       48.789     5901.838    11030.377     2380.350        4.684        0.966      271.389       41.623        0.024      338.562       11.294      850.597
10/31/2014  20:22:00     -100.928      400.063      -57.487       61.821      132.256       45.243     3821.797    17491.757     2046.898        9.845        1.168      412.598       34.198        0.007      338.478       11.153      850.558
10/31/2014  20:23:00      -22.224      281.688      -35.067       91.411       98.722       53.480     8356.057     9745.935     2860.087        5.101        1.048      282.563       46.203        0.027      338.456       11.115      850.522
10/31/2014  20:24:00      -30.372      361.371      -38.796       66.932       98.985       46.666     4479.927     9797.937     2177.733        7.473        0.823      362.645       37.675        0.011      338.368       10.969      850.518
10/31/2014  20:25:00      -86.012      414.001      -49.586       89.771      148.267       56.515     8058.853    21983.225     3193.907       10.724        1.662      422.842       68.005        0.026      338.353       10.943      850.492
10/31/2014  20:26:00      -21.896      490.599      -58.287      123.618      209.346       90.751    15281.337    43825.574     8235.798       15.594        3.367      491.087       99.560        0.041      338.411       11.039      850.449
10/31/2014  20:27:00     -234.218      578.422      -83.822      142.340      154.015       69.363    20260.611    23720.547     4811.247       22.261        2.440      624.043       69.144        0.012      338.473       11.143      850.446
10/31/2014  20:28:00     -252.509      386.939      -57.321      123.726      177.996       90.102    15308.054    31682.688     8118.315       13.593        2.755      462.042       92.478        0.040      338.440       11.089      850.478
10/31/2014  20:29:00     -229.752      355.154      -47.717      113.728      166.924       72.024    12934.056    27863.576     5187.429       11.358        2.299      422.990       69.725        0.027      338.418       11.052      850.535
10/31/2014  20:30:00     -157.956      185.272      -26.981      105.902      104.008       77.464    11215.330    10817.717     6000.707        4.401        1.402      243.466       85.381        0.123      338.437       11.085      850.515
10/31/2014  20:31:00     -153.762       62.283      -20.718       80.198       99.280       42.319     6431.726     9856.548     1790.885        2.301        0.904      165.897       37.659        0.052      338.460       11.125      850.506
10/31/2014  20:32:00     -124.226      377.594      -37.477      125.914      230.252       74.899    15854.408    53016.063     5609.817       11.693        3.724      397.504       85.151        0.046      338.202       10.690      850.496
10/31/2014  20:33:00      -90.767      601.999      -73.734      107.298      161.679       71.477    11512.888    26140.229     5108.985       20.941        2.138      608.803       56.382        0.009      338.096       10.513      850.405
10/31/2014  20:34:00     -117.997      471.531      -54.538      129.564      163.327       79.955    16786.768    26675.837     6392.869       14.454        2.493      486.071       73.756        0.023      338.202       10.690      850.367
10/31/2014  20:35:00     -254.200      442.075      -65.985      130.716      138.011       86.033    17086.552    19047.001     7401.708       15.396        2.177      509.949       83.054        0.027      338.214       10.709      850.436
10/31/2014  20:36:00     -212.768      454.755      -56.007      121.372      138.785       86.848    14731.248    19261.187     7542.490       14.836        2.077      502.069       83.576        0.028      338.043       10.424      850.406
10/31/2014  20:37:00     -195.717      297.541      -48.286      106.859      145.545       68.875    11418.817    21183.340     4743.724        8.325        1.867      356.140       71.238        0.040      338.165       10.626      850.386
10/31/2014  20:38:00     -282.695      224.178      -46.480      186.547      139.326       84.225    34799.598    19411.843     7093.800        9.681        3.065      360.794       88.047        0.060      338.302       10.859      850.311
10/31/2014  20:39:00     -206.317      238.333      -50.060      101.723      109.814       65.327    10347.534    12059.170     4267.628        6.427        1.334      315.229       52.082        0.027      338.308       10.870      850.200
10/31/2014  20:40:00     -171.889      179.327      -36.379      123.697      138.881       69.209    15301.013    19288.070     4789.952        5.120        1.969      248.403       60.278        0.059      338.358       10.953      850.161
10/31/2014  20:41:00     -188.983      191.323      -33.406      132.898      149.081       75.532    17661.777    22225.273     5705.123        5.950        2.280      268.922       81.006        0.091      338.400       11.022      850.109
10/31/2014  20:42:00     -205.887      414.341      -44.284      145.833      220.053      101.205    21267.319    48423.196    10242.443       14.796        3.997      462.675       88.733        0.037      338.348       10.935      850.073
10/31/2014  20:43:00     -265.850      -46.976      -25.462      195.154      156.664       69.934    38085.016    24543.503     4890.736        7.051        3.376      269.968       73.555        0.074      338.436       11.083      850.165
10/31/2014  20:44:00     -292.444       11.370      -18.256      124.872      145.002       66.676    15593.095    21025.619     4445.667        6.352        2.053      292.665       39.807        0.018      338.366       10.965      850.121
10/31/2014  20:45:00      -67.356       59.818       -0.781      104.941      160.374       62.276    11012.588    25719.839     3878.356        2.435        2.031       90.084       58.649        0.424      338.408       11.038      850.116
10/31/2014  20:46:00      -96.158       -3.483       -5.557      138.267      101.292       76.126    19117.849    10259.991     5795.202        2.222        1.759       96.221       84.640        0.774      338.419       11.056      850.076
10/31/2014  20:47:00     -155.031      -48.624        4.515      166.901       88.934       66.315    27855.925     7909.177     4397.731        3.328        2.008      162.477       71.603        0.194      338.390       11.007      850.090
10/31/2014  20:48:00     -311.615        0.279      -23.947      153.269      147.253       73.178    23491.333    21683.337     5355.082        7.409        2.526      311.615       69.916        0.050      338.333       10.909      850.150
10/31/2014  20:49:00     -434.559       -5.612      -39.116      211.402      177.342       76.319    44690.744    31450.189     5824.656       13.617        4.098      434.595       80.898        0.035      338.256       10.781      850.141
10/31/2014  20:50:00     -438.403      -42.779      -44.958      147.440       99.020       65.850    21738.459     9805.049     4336.230       11.596        1.794      440.485       62.578        0.020      338.278       10.817      850.175
10/31/2014  20:51:00     -400.990      -73.713      -35.000      185.844      121.989       78.550    34537.864    14881.383     6170.045       11.151        2.779      407.709       89.018        0.048      338.260       10.788      850.175
10/31/2014  20:52:00     -310.145     -134.455      -21.092      193.274      130.738       74.965    37354.672    17092.483     5619.707        8.738        3.003      338.036       70.481        0.043      338.296       10.849      850.144
10/31/2014  20:53:00     -186.912      -64.361        3.049      204.268      137.671       84.576    41725.442    18953.338     7153.171        5.345        3.392      197.682      101.711        0.265      338.308       10.868      850.139
10/31/2014  20:54:00     -353.089       -3.371      -19.108      201.068      153.998       88.255    40428.316    23715.461     7788.926        9.848        3.597      353.105       96.354        0.074      338.296       10.848      850.131
10/31/2014  20:55:00     -337.007      -15.298       -6.635      158.643      164.559       89.233    25167.730    27079.719     7962.607        8.702        3.011      337.354       83.387        0.061      338.339       10.920      850.154
10/31/2014  20:56:00     -367.840      -65.226      -17.267      144.188      132.798       63.995    20790.083    17635.250     4095.394        9.118        2.126      373.579       70.561        0.036      338.339       10.920      850.205
10/31/2014  20:57:00     -186.454       43.452      -18.834      105.311      113.526       65.494    11090.432    12888.240     4289.517        3.263        1.413      191.450       60.088        0.099      338.322       10.894      850.256
10/31/2014  20:58:00     -336.720       17.988      -22.544      167.098      152.498       68.811    27921.866    23255.654     4734.968        8.505        2.796      337.200       60.776        0.032      338.274       10.810      850.284
10/31/2014  20:59:00     -329.917       -2.151      -20.455      184.719      144.566       69.105    34120.980    20899.284     4775.449        8.452        2.990      329.924       66.727        0.041      338.278       10.818      850.294
10/31/2014  21:00:00     -160.306       -8.453      -26.890       62.986       65.136       36.274     3967.211     4242.673     1315.781        1.801        0.476      160.528       29.986        0.035      338.327       10.904      850.342
10/31/2014  21:01:00      -91.586      -12.597        5.214      119.014       62.777       44.819    14164.370     3941.012     2008.778        1.434        1.006       92.449       43.250        0.219      338.344       10.930      850.339
10/31/2014  21:02:00     -205.309       18.123      -27.541      142.910      121.468       65.846    20423.211    14754.437     4335.736        4.137        1.976      206.107       35.478        0.030      338.309       10.870      850.321
10/31/2014  21:03:00     -243.606       33.650      -33.803      135.332      110.673       58.271    18314.864    12248.567     3395.478        4.778        1.698      245.919       51.098        0.043      338.253       10.775      850.344
10/31/2014  21:04:00     -171.868      170.419      -41.639      106.419       97.995       56.136    11324.984     9603.042     3151.199        4.219        1.204      242.035       40.110        0.027      338.209       10.701      850.372
10/31/2014  21:05:00      -55.720       64.916       15.885       95.679      155.821       68.269     9154.404    24280.150     4660.682        2.283        1.905       85.550       63.559        0.552      338.257       10.785      850.382
10/31/2014  21:06:00     -199.697      101.856       -8.288      133.596      126.741       70.677    17847.940    16063.336     4995.307        4.461        1.945      224.173       61.118        0.074      338.187       10.665      850.370
10/31/2014  21:07:00     -178.862       84.143      -19.245      106.188      115.120       56.630    11275.812    13252.560     3206.987        3.358        1.387      197.665       50.938        0.066      338.179       10.651      850.338
10/31/2014  21:08:00     -172.632      201.757      -27.228      138.161      151.782       75.935    19088.533    23037.651     5766.066        5.956        2.395      265.533       88.629        0.111      338.175       10.644      850.309
10/31/2014  21:09:00     -222.442       99.670      -27.124      119.452      145.571       62.157    14268.664    21190.808     3863.548        4.973        1.966      243.751       49.632        0.041      338.194       10.675      850.306
10/31/2014  21:10:00     -225.034        8.426      -18.563       86.250      107.058       47.901     7439.142    11461.434     2294.473        3.612        1.060      225.192       37.503        0.028      338.239       10.753      850.293
10/31/2014  21:11:00     -240.019      -39.298      -11.124      129.474      132.211       74.511    16763.446    17479.811     5551.851        4.953        1.990      243.215       68.125        0.078      338.198       10.684      850.295
10/31/2014  21:12:00     -139.237       93.967      -17.325      108.272      122.637       56.452    11722.764    15039.823     3186.788        2.923        1.497      167.979       45.163        0.072      338.202       10.690      850.264
10/31/2014  21:13:00     -131.049       63.494      -12.241       97.461       94.097       50.724     9498.739     8854.244     2572.893        2.114        1.046      145.620       43.413        0.089      338.179       10.652      850.237
10/31/2014  21:14:00     -121.922       76.826       -7.183       59.301      110.685       54.663     3516.633    12251.249     2988.054        1.978        0.938      144.108       48.977        0.116      338.160       10.622      850.266
10/31/2014  21:15:00     -567.248      133.335      -61.664      279.427      154.045       92.709    78079.407    23729.895     8594.941       22.686        5.520      582.708      100.663        0.030      338.056       10.445      850.240
10/31/2014  21:16:00     -443.577     -120.285      -13.257      192.374      185.651       89.049    37007.915    34466.406     7929.729       14.539        3.970      459.596       89.772        0.038      338.044       10.426      850.221
10/31/2014  21:17:00     -430.935      -61.633      -30.351      228.543      166.760       85.845    52231.913    27808.812     7369.445       13.890        4.371      435.320       93.841        0.046      338.004       10.359      850.235
10/31/2014  21:18:00     -453.442      -81.123      -20.778      168.148      115.866       76.238    28273.871    13424.905     5812.179       13.006        2.376      460.641       78.498        0.029      337.986       10.328      850.231
10/31/2014  21:19:00     -416.721     -151.129      -25.297      164.259      171.328       82.350    26981.072    29353.113     6781.457       13.011        3.156      443.279       74.836        0.029      337.984       10.323      850.245
10/31/2014  21:20:00     -296.800      -24.251      -32.562      177.244       95.728       70.535    31415.314     9163.781     4975.150        6.764        2.278      297.789       63.411        0.045      338.001       10.354      850.282
10/31/2014  21:21:00     -280.769      -77.467      -11.039      175.896      127.210       65.726    30939.484    16182.355     4319.889        6.819        2.572      291.260       76.202        0.068      337.989       10.334      850.323
10/31/2014  21:22:00     -251.028      -69.164      -20.155      154.588       94.184       81.238    23897.462     8870.687     6599.651        5.378        1.968      260.382       88.660        0.116      337.986       10.328      850.361
10/31/2014  21:23:00     -376.753      -54.226      -39.310      118.252      108.081       66.400    13983.632    11681.462     4408.969        8.825        1.504      380.636       56.140        0.022      337.926       10.226      850.400
10/31/2014  21:24:00     -381.842       20.335      -34.992      113.314      110.845       56.253    12840.054    12286.674     3164.426        8.786        1.415      382.383       53.322        0.019      337.890       10.165      850.473
10/31/2014  21:25:00     -323.800       67.792      -48.506      128.602       98.618       58.688    16538.506     9725.599     3444.316        7.075        1.485      330.820       46.622        0.020      337.890       10.166      850.536
10/31/2014  21:26:00     -359.105       95.509      -50.130      226.379      118.214       61.102    51247.593    13974.579     3733.484       10.476        3.448      371.589       72.524        0.038      337.884       10.157      850.580
10/31/2014  21:27:00     -223.612        1.755      -14.353      162.916       74.943       60.961    26541.559     5616.526     3716.202        4.304        1.794      223.619       76.799        0.118      337.895       10.176      850.591
10/31/2014  21:28:00     -215.594      -30.220      -15.006      132.166      127.464       72.163    17467.810    16247.088     5207.540        4.326        1.946      217.702       71.812        0.109      337.906       10.195      850.616
10/31/2014  21:29:00     -279.211      -92.872      -19.160      164.311      173.663       92.895    26998.085    30158.683     8629.541        7.636        3.289      294.251       68.276        0.054      337.916       10.210      850.624
10/31/2014  21:30:00     -319.282      -36.771      -27.213      161.681      106.831       75.661    26140.737    11412.835     5724.635        7.365        2.164      321.392       80.181        0.062      337.842       10.086      850.632
10/31/2014  21:31:00     -114.054       79.562      -15.570       98.795      177.303       57.997     9760.385    31436.447     3363.619        3.206        2.228      139.063       55.885        0.161      337.891       10.168      850.653
10/31/2014  21:32:00     -201.761      157.483      -31.263      119.337      111.662       59.433    14241.407    12468.373     3532.308        4.836        1.512      255.946       54.536        0.045      337.842       10.087      850.616
10/31/2014  21:33:00     -177.478      160.764      -40.712      158.608      158.726       60.337    25156.369    25193.901     3640.494        5.649        2.700      239.465       46.805        0.038      337.900       10.184      850.560
10/31/2014  21:34:00     -252.018      249.885      -54.994       96.543      135.674       58.514     9320.603    18407.353     3423.859        8.006        1.558      354.902       53.024        0.022      337.861       10.117      850.595
10/31/2014  21:35:00     -148.449      218.401      -29.028       79.932      112.489       54.842     6389.184    12653.793     3007.677        4.631        1.103      264.076       58.808        0.050      337.877       10.144      850.578
10/31/2014  21:36:00     -125.506       19.044       -0.112      113.059      103.798       56.329    12782.264    10774.069     3172.958        2.142        1.336      126.943       50.733        0.160      337.937       10.247      850.571
10/31/2014  21:37:00     -240.029      124.798      -27.826      157.033      130.030       83.310    24659.293    16907.681     6940.580        6.123        2.425      270.534       79.007        0.085      337.829       10.065      850.556
10/31/2014  21:38:00     -214.154      129.767      -32.085       80.247       95.068       51.587     6439.530     9037.837     2661.238        4.093        0.907      250.402       41.691        0.028      337.825       10.056      850.540
10/31/2014  21:39:00     -281.998      184.672      -44.860      147.703      171.669       82.832    21816.253    29470.176     6861.089        8.688        2.907      337.085       81.107        0.058      337.821       10.051      850.505
10/31/2014  21:40:00     -358.625      212.955      -62.682      170.515      143.589       73.751    29075.288    20617.703     5439.165       11.650        2.757      417.087       73.688        0.031      337.784        9.988      850.473
10/31/2014  21:41:00     -268.195      210.775      -26.848      127.804      155.121       84.356    16333.757    24062.614     7115.915        8.228        2.376      341.108       70.957        0.043      337.824       10.055      850.460
10/31/2014  21:42:00     -187.650      135.534      -37.340       96.655      104.740       59.268     9342.163    10970.438     3512.649        3.940        1.191      231.477       41.436        0.032      337.859       10.115      850.461
10/31/2014  21:43:00     -141.347      271.683      -25.980       79.798      129.364       62.076     6367.695    16734.972     3853.451        6.071        1.348      306.253       57.463        0.035      337.814       10.038      850.487
10/31/2014  21:44:00     -164.269      259.518      -29.934      108.132      142.258       55.962    11692.487    20237.388     3131.717        6.514        1.753      307.138       51.685        0.028      337.796       10.008      850.482
10/31/2014  21:45:00     -183.332      221.674      -37.519       94.318       97.355       56.666     8895.914     9478.067     3211.026        5.287        1.079      287.664       59.701        0.043      337.808       10.029      850.502
10/31/2014  21:46:00     -223.944       62.824      -28.420      115.356      134.605       73.030    13306.955    18118.625     5333.384        4.582        1.838      232.590       71.018        0.093      337.833       10.069      850.508
10/31/2014  21:47:00     -320.046      156.668      -55.688      157.294      161.112       66.720    24741.460    25957.009     4451.594        9.260        2.758      356.334       77.306        0.047      337.778        9.979      850.499
10/31/2014  21:48:00     -225.724       23.147      -29.593      111.876      108.281       60.944    12516.237    11724.748     3714.182        4.015        1.398      226.908       62.024        0.075      337.779        9.981      850.496
10/31/2014  21:49:00     -339.233      -87.274      -41.107      168.568      125.364       69.733    28415.277    15716.162     4862.753        8.668        2.450      350.279       68.703        0.038      337.793       10.003      850.495
10/31/2014  21:50:00     -281.036     -139.619        0.708      127.955      130.001       71.903    16372.401    16900.361     5169.997        6.845        1.922      313.806       68.430        0.048      337.731        9.899      850.519
10/31/2014  21:51:00     -419.149     -120.770       -2.807      156.932      148.856       75.420    24627.785    22158.172     5688.232       12.137        2.624      436.201       74.761        0.029      337.583        9.650      850.534
10/31/2014  21:52:00     -378.462     -104.618      -16.855      187.872      127.684       81.256    35295.943    16303.247     6602.563       10.632        2.910      392.656       65.868        0.028      337.578        9.643      850.534
10/31/2014  21:53:00     -304.963      -63.185      -28.984      149.627      108.903       63.888    22388.130    11859.833     4081.684        6.807        1.916      311.440       67.767        0.047      337.620        9.714      850.607
10/31/2014  21:54:00     -321.179      -67.307        4.915      164.220      131.633       77.232    26968.131    17327.205     5964.761        7.898        2.513      328.155       80.804        0.061      337.606        9.690      850.648
10/31/2014  21:55:00     -412.046     -124.747      -13.153      185.381      162.624       73.257    34366.080    26446.705     5366.557       12.583        3.309      430.515       79.754        0.034      337.471        9.463      850.626
10/31/2014  21:56:00     -275.639      -46.356       -8.376      149.377      113.060       69.615    22313.637    12782.484     4846.271        5.906        1.997      279.510       67.188        0.058      337.523        9.551      850.616
10/31/2014  21:57:00     -279.486      -91.511      -23.871      151.780      102.112       57.099    23037.165    10426.768     3260.349        6.188        1.836      294.086       57.508        0.038      337.549        9.595      850.615
10/31/2014  21:58:00     -307.821      -42.333      -25.686      100.164       90.817       51.856    10032.895     8247.671     2689.042        5.908        1.048      310.719       45.308        0.021      337.496        9.504      850.651
10/31/2014  21:59:00     -378.615      -64.276      -30.992      179.116      126.995       67.293    32082.585    16127.674     4528.298       10.058        2.637      384.032       78.967        0.042      337.439        9.410      850.652
10/31/2014  22:00:00     -363.064      -46.852      -20.236      148.969       81.206       52.439    22191.721     6594.435     2749.822        8.297        1.577      366.075       55.453        0.023      337.432        9.400      850.625
10/31/2014  22:01:00     -310.728      -80.617       -4.987      150.374      115.705       61.068    22612.480    13387.732     3729.357        7.139        1.986      321.015       65.244        0.041      337.396        9.340      850.606
10/31/2014  22:02:00     -417.012      -76.493      -16.549      173.305      126.520       70.635    30034.461    16007.246     4989.358       11.552        2.552      423.970       78.323        0.034      337.381        9.313      850.606
10/31/2014  22:03:00     -352.560      -76.494      -10.157      143.230      135.494       70.633    20514.791    18358.755     4989.011        8.705        2.193      360.763       70.905        0.039      337.334        9.234      850.647
10/31/2014  22:04:00     -288.754       -4.071       -4.285      102.430       84.409       61.274    10491.840     7124.837     3754.544        5.239        1.069      288.782       52.259        0.033      337.337        9.240      850.710
10/31/2014  22:05:00     -190.329      -15.648        3.678      130.178      115.555       64.172    16946.342    13353.010     4118.102        3.544        1.721      190.972       66.227        0.120      337.390        9.329      850.719
10/31/2014  22:06:00     -488.149       28.252      -33.447      219.374      113.076       84.089    48125.017    12786.095     7071.028       15.408        3.399      488.966      103.507        0.045      337.269        9.128      850.718
10/31/2014  22:07:00     -410.553      -49.281      -13.346      168.453      105.947       76.515    28376.473    11224.799     5854.523       10.830        2.273      413.501       76.450        0.034      337.275        9.137      850.696
10/31/2014  22:08:00     -359.510      -88.674      -14.730      126.849      106.152       65.682    16090.557    11268.184     4314.124        8.449        1.584      370.284       69.625        0.035      337.302        9.181      850.685
10/31/2014  22:09:00     -428.152      -56.376      -12.282      165.091      134.414       73.442    27254.954    18067.159     5393.745       11.867        2.536      431.848       77.044        0.032      337.269        9.126      850.679
10/31/2014  22:10:00     -361.507     -127.968       -5.776      147.997      122.898       75.456    21903.137    15104.031     5693.587        9.489        2.135      383.488       69.371        0.033      337.244        9.085      850.687
10/31/2014  22:11:00     -181.424      -43.844       -1.292      129.095       88.389       56.325    16665.475     7812.573     3172.532        3.124        1.383      186.646       47.519        0.065      337.268        9.124      850.702
10/31/2014  22:12:00     -280.651        3.995      -10.240      132.283       75.943       49.663    17498.872     5767.353     2466.377        5.230        1.287      280.679       57.567        0.042      337.232        9.064      850.690
10/31/2014  22:13:00     -304.280      -47.807      -20.407      104.982       89.677       63.828    11021.145     8041.968     4074.071        5.921        1.157      308.012       59.235        0.037      337.231        9.064      850.677
10/31/2014  22:14:00     -135.593      -52.900       -5.346       85.525       82.138       48.297     7314.542     6746.626     2332.620        1.880        0.820      145.546       47.510        0.107      337.296        9.172      850.691
10/31/2014  22:15:00     -252.543       29.081      -19.395       84.447       64.315       45.962     7131.371     4136.389     2112.518        3.919        0.669      254.212       38.823        0.023      337.237        9.071      850.725
10/31/2014  22:16:00     -351.114      -39.188      -22.638      109.808       82.609       55.043    12057.864     6824.290     3029.753        7.362        1.096      353.294       51.862        0.022      337.214        9.035      850.729
10/31/2014  22:17:00     -378.336      -47.151      -19.269      133.626      101.956       67.288    17855.994    10395.037     4527.676        8.925        1.639      381.263       62.525        0.027      337.189        8.993      850.740
10/31/2014  22:18:00     -311.068      -18.453      -21.963      123.663       92.069       53.507    15292.589     8476.719     2863.052        6.210        1.332      311.615       58.009        0.035      337.167        8.958      850.759
10/31/2014  22:19:00     -275.740      -82.725       -5.826      116.259       86.012       52.754    13516.151     7398.062     2782.962        5.330        1.185      287.882       57.222        0.040      337.213        9.032      850.742
10/31/2014  22:20:00     -318.714      -89.861      -13.885      119.394      108.060       63.750    14254.851    11676.868     4064.014        6.991        1.500      331.139       56.324        0.029      337.159        8.941      850.729
10/31/2014  22:21:00     -284.840      -72.006       -2.593      133.145      103.366       65.141    17727.600    10684.490     4243.297        5.948        1.633      293.801       61.350        0.044      337.154        8.934      850.689
10/31/2014  22:22:00     -334.630     -132.508      -21.448      142.677      116.793       62.189    20356.774    13640.547     3867.416        8.392        1.893      359.911       66.016        0.034      337.122        8.879      850.637
10/31/2014  22:23:00     -366.982      -70.420       -7.892      214.265      136.056       69.607    45909.409    18511.232     4845.145       10.447        3.463      373.677       93.765        0.063      337.094        8.833      850.586
10/31/2014  22:24:00     -372.207      -35.319      -18.882      150.132      151.972       66.256    22539.559    23095.535     4389.913        9.507        2.501      373.879       70.721        0.036      337.014        8.699      850.554
10/31/2014  22:25:00     -310.627      -88.656       -9.999      121.789      118.119       63.232    14832.469    13952.010     3998.342        6.861        1.639      323.030       60.403        0.035      337.003        8.682      850.533
10/31/2014  22:26:00     -369.263     -137.060       -4.564      163.363      128.239       75.072    26687.577    16445.342     5635.856       10.196        2.438      393.879       82.869        0.044      336.973        8.630      850.525
10/31/2014  22:27:00     -476.826      -77.029      -28.847      134.155       93.314       60.496    17997.508     8707.427     3659.767       13.224        1.518      483.007       39.967        0.007      336.959        8.607      850.510
10/31/2014  22:28:00     -262.527      -92.842      -17.514      157.972       91.602       68.342    24955.118     8390.976     4670.682        5.792        1.901      278.460       78.834        0.080      337.018        8.705      850.514
10/31/2014  22:29:00     -362.542      -12.253      -31.874      100.945       94.650       64.670    10189.810     8958.537     4182.202        7.796        1.167      362.749       55.120        0.023      336.958        8.605      850.501
10/31/2014  22:30:00     -212.625      -74.886      -13.855       84.975       59.202       37.874     7220.835     3504.927     1434.470        3.158        0.608      225.427       31.026        0.019      336.974        8.632      850.464
10/31/2014  22:31:00     -274.578      -34.077      -13.891      134.430      122.780       56.061    18071.292    15075.049     3142.856        5.651        1.814      276.684       52.424        0.036      336.939        8.573      850.437
10/31/2014  22:32:00     -179.778      -48.121       12.819      162.859      134.435       62.051    26522.925    18072.851     3850.273        4.161        2.422      186.106       67.630        0.132      336.976        8.637      850.440
10/31/2014  22:33:00     -262.449      -70.247       -8.424      113.287       94.457       51.898    12833.994     8922.067     2693.373        4.916        1.222      271.688       55.637        0.042      336.908        8.521      850.473
10/31/2014  22:34:00     -366.240      -35.762      -27.817      185.666       94.214       63.227    34471.926     8876.185     3997.663        9.176        2.367      367.982       83.668        0.052      336.890        8.491      850.510
10/31/2014  22:35:00     -306.879      -89.930      -10.806      124.867      104.104       60.588    15591.791    10837.729     3670.877        6.623        1.505      319.784       59.604        0.035      336.898        8.505      850.516
10/31/2014  22:36:00     -148.658      -61.083        3.119       75.694       75.334       42.194     5729.575     5675.162     1780.335        1.951        0.659      160.718       41.210        0.066      336.953        8.598      850.542
10/31/2014  22:37:00     -177.329      -13.873      -46.977      113.832      123.880       55.491    12957.641    15346.172     3079.297        3.261        1.569      177.871       45.069        0.064      336.953        8.598      850.541
10/31/2014  22:38:00     -139.143      -24.495       -8.953       95.444       87.524       47.187     9109.572     7660.507     2226.645        1.952        0.950      141.283       15.817        0.013      336.959        8.607      850.543
10/31/2014  22:39:00      -94.566       -0.659        3.002       60.382       66.644       53.088     3646.023     4441.437     2818.327        0.993        0.545       94.568       38.302        0.164      336.973        8.632      850.527
10/31/2014  22:40:00      -71.566       69.897       -0.557       68.873       48.073       38.773     4743.541     2311.037     1503.362        0.928        0.428      100.036       35.722        0.128      336.996        8.672      850.491
10/31/2014  22:41:00     -139.848       40.396      -34.307       83.474       71.763       39.614     6967.842     5149.956     1569.276        1.802        0.684      145.566       35.810        0.061      336.989        8.659      850.463
10/31/2014  22:42:00     -197.678       48.358      -26.375       83.733      102.361       48.506     7011.256    10477.691     2352.875        3.097        0.992      203.507       51.272        0.063      336.957        8.602      850.444
10/31/2014  22:43:00     -142.293       27.578      -16.279       86.157       66.130       49.707     7422.992     4373.242     2470.819        1.777        0.713      144.941       53.162        0.135      336.963        8.613      850.424
10/31/2014  22:44:00     -135.888      -58.499      -12.872      125.471       92.633       29.140    15742.984     8580.842      849.125        2.361        1.259      147.945       21.537        0.021      337.007        8.688      850.411
10/31/2014  22:45:00     -138.058       43.141       -6.963       91.966       63.182       44.579     8457.666     3991.925     1987.257        1.770        0.722      144.642       43.644        0.091      336.942        8.581      850.397
10/31/2014  22:46:00     -206.527       45.297      -44.498       89.560       81.264       49.862     8021.009     6603.916     2486.204        3.189        0.856      211.436       43.276        0.042      336.946        8.586      850.406
10/31/2014  22:47:00     -112.987       52.753      -15.765       82.305       51.513       42.150     6774.124     2653.561     1776.637        1.350        0.560      124.696       39.532        0.101      336.914        8.534      850.397
10/31/2014  22:48:00      -94.594       45.931      -18.286       66.725       62.765       45.649     4452.284     3939.393     2083.828        1.093        0.524      105.155       28.296        0.072      336.917        8.540      850.389
10/31/2014  22:49:00     -155.199       58.510      -15.042      108.820       55.553       39.469    11841.743     3086.170     1557.811        2.211        0.824      165.862       48.252        0.085      336.869        8.459      850.376
10/31/2014  22:50:00      -40.525      -11.167        1.803       49.667       37.565       25.363     2466.844     1411.153      643.268        0.314        0.226       42.036       20.957        0.249      336.922        8.548      850.351
10/31/2014  22:51:00      -89.480       -1.438       -5.606       41.532       40.447       28.449     1724.897     1635.943      809.331        0.610        0.209       89.491       26.870        0.090      336.931        8.564      850.316
10/31/2014  22:52:00     -107.603       31.230      -12.336       71.345       59.633       34.291     5090.069     3556.103     1175.846        1.126        0.491      112.043       28.606        0.065      336.865        8.452      850.278
10/31/2014  22:53:00      -48.758      135.041      -14.294       41.549       60.828       30.307     1726.351     3700.073      918.534        1.358        0.317      143.574       27.018        0.035      336.904        8.518      850.226
10/31/2014  22:54:00     -151.807      190.488      -38.248       89.379       94.925       54.197     7988.568     9010.766     2937.321        4.036        0.997      243.580       57.556        0.056      336.710        8.192      850.187
10/31/2014  22:55:00     -116.157      182.207      -21.850       64.130       70.325       41.578     4112.623     4945.589     1728.716        2.898        0.539      216.083       36.148        0.028      336.665        8.118      850.186
10/31/2014  22:56:00     -106.375      154.776      -30.479       76.523       59.591       41.420     5855.715     3551.131     1715.621        2.366        0.556      187.806       45.118        0.058      336.644        8.084      850.175
10/31/2014  22:57:00      -79.141      254.038      -35.416       54.263       76.604       33.679     2944.433     5868.243     1134.261        4.100        0.497      266.080       25.939        0.010      336.636        8.070      850.168
10/31/2014  22:58:00      -69.740      173.913       -2.292       96.220       98.700       42.408     9258.271     9741.751     1798.452        2.795        1.040      187.375       40.940        0.048      336.664        8.117      850.157
10/31/2014  22:59:00     -121.523       74.374        0.333       98.843      169.948       48.779     9769.993    28882.325     2379.371        3.066        2.052      142.476       42.518        0.089      336.725        8.217      850.165
10/31/2014  23:00:00     -211.442      140.249      -34.348      142.967       73.218       51.243    20439.659     5360.861     2625.821        4.699        1.421      253.727       67.812        0.071      336.582        7.980      850.204
10/31/2014  23:01:00     -193.611      119.710      -45.263       97.193       97.709       53.418     9446.384     9547.005     2853.512        3.785        1.092      227.631       57.164        0.063      336.524        7.882      850.245
10/31/2014  23:02:00     -148.718      125.131      -21.140       98.452      117.664       56.584     9692.809    13844.925     3201.746        3.248        1.337      194.357       61.591        0.100      336.535        7.900      850.306
10/31/2014  23:03:00     -204.447      154.505      -35.035       95.179      107.812       52.060     9058.977    11623.357     2710.250        4.514        1.170      256.262       57.028        0.050      336.527        7.885      850.371
10/31/2014  23:04:00     -294.899       53.758      -42.937      168.474      100.001       57.404    28383.387    10000.288     3295.234        6.668        2.084      299.759       67.511        0.051      336.520        7.875      850.395
10/31/2014  23:05:00      -86.614       40.044       -4.312       73.526       73.011       47.794     5406.113     5330.678     2284.225        1.107        0.651       95.423       23.751        0.062      336.553        7.932      850.417
10/31/2014  23:06:00     -202.744       29.395      -19.917      129.792       81.233       56.157    16845.966     6598.799     3153.573        3.448        1.330      204.864       53.326        0.068      336.503        7.846      850.425
10/31/2014  23:07:00     -202.882       -4.316      -22.298       65.052       53.138       35.628     4231.749     2823.652     1269.389        2.500        0.416      202.928       31.937        0.025      336.492        7.826      850.431
10/31/2014  23:08:00     -229.317      -68.503       -3.850      100.119       70.085       49.205    10023.816     4911.912     2421.088        3.732        0.868      239.330       48.643        0.041      336.465        7.779      850.404
10/31/2014  23:09:00     -301.096      -57.367        3.402       90.640       74.464       48.860     8215.690     5544.944     2387.314        5.505        0.807      306.513       40.968        0.018      336.451        7.756      850.418
10/31/2014  23:10:00      -51.231      125.233       21.054       88.668       81.647       58.045     7862.030     6666.267     3369.215        1.832        0.895      135.307       55.242        0.167      336.547        7.921      850.421
10/31/2014  23:11:00     -294.740       39.527      -41.638      156.869       96.992       41.583    24608.018     9407.383     1729.153        6.295        1.787      297.378       59.091        0.039      336.546        7.917      850.393
10/31/2014  23:12:00     -140.868      216.262      -34.163       76.270      107.773       48.294     5817.166    11615.072     2332.287        4.377        0.988      258.095       35.843        0.019      336.487        7.818      850.384
10/31/2014  23:13:00      -95.902      107.180       -6.252       67.707      107.735       48.578     4584.239    11606.881     2359.774        1.963        0.928      143.822       45.619        0.101      336.534        7.898      850.375
10/31/2014  23:14:00      -77.999      170.780       -3.577       69.540       98.712       48.867     4835.844     9744.020     2388.008        2.611        0.848      187.749       46.881        0.062      336.540        7.908      850.369
10/31/2014  23:15:00     -137.156      196.439      -20.615       73.701      121.802       41.991     5431.814    14835.653     1763.261        3.992        1.102      239.583       36.963        0.024      336.493        7.828      850.379
10/31/2014  23:16:00     -125.152       61.010      -13.293       69.229       51.188       44.356     4792.613     2620.250     1967.460        1.447        0.469      139.231       46.426        0.111      336.527        7.889      850.393
10/31/2014  23:17:00     -131.916      113.864       -4.788       79.441       67.606       50.521     6310.913     4570.520     2552.383        2.191        0.672      174.261       39.322        0.051      336.502        7.843      850.387
10/31/2014  23:18:00     -177.604        6.255      -16.014       78.550       66.504       33.850     6170.030     4422.813     1145.791        2.179        0.587      177.714       17.952        0.010      336.444        7.746      850.380
10/31/2014  23:19:00     -171.528      -31.878      -14.631       58.393       51.321       30.437     3409.731     2633.826      926.422        1.881        0.348      174.465       24.336        0.019      336.470        7.792      850.370
10/31/2014  23:20:00      -63.294       85.078       -3.784       68.695       63.067       42.929     4719.060     3977.425     1842.927        1.090        0.527      106.040       34.759        0.107      336.528        7.892      850.387
10/31/2014  23:21:00     -131.427      182.851      -14.393      117.227      186.989       68.330    13742.159    34965.015     4669.037        5.213        2.669      225.184       87.160        0.150      336.470        7.790      850.381
10/31/2014  23:22:00     -144.654      170.021       -7.357      110.201       91.430       70.196    12144.258     8359.465     4927.536        3.765        1.272      223.230       64.013        0.082      336.467        7.784      850.352
10/31/2014  23:23:00     -141.409      107.043      -12.686       88.029       77.068       47.173     7749.026     5939.404     2225.303        2.376        0.796      177.355       41.046        0.054      336.427        7.718      850.342
10/31/2014  23:24:00     -145.060       98.460      -20.018       80.007       45.568       39.551     6401.061     2076.449     1564.303        2.059        0.502      175.320       30.613        0.030      336.469        7.789      850.319
10/31/2014  23:25:00     -111.152       87.502       -9.444       92.233       89.477       46.846     8506.936     8006.162     2194.542        1.940        0.935      141.461       34.291        0.059      336.458        7.771      850.316
10/31/2014  23:26:00     -106.871      165.825      -23.080       80.309       78.709       49.365     6449.499     6195.150     2436.883        2.726        0.754      197.280       45.511        0.053      336.460        7.775      850.290
10/31/2014  23:27:00     -203.544      246.035      -43.286      103.189       98.535       58.991    10647.936     9709.080     3479.978        6.383        1.192      319.317       63.138        0.039      336.342        7.575      850.298
10/31/2014  23:28:00     -161.641      377.842      -42.523       83.738      109.283       55.409     7012.128    11942.844     3070.178        9.636        1.101      410.965       51.951        0.016      336.309        7.521      850.303
10/31/2014  23:29:00     -187.853      216.569      -41.841      115.187      104.489       56.162    13268.017    10917.914     3154.134        5.564        1.367      286.689       55.548        0.038      336.297        7.500      850.318
10/31/2014  23:30:00      -79.672      144.647      -13.052       53.286       86.199       36.306     2839.372     7430.289     1318.146        1.951        0.579      165.137       13.959        0.007      336.364        7.614      850.316
10/31/2014  23:31:00      -71.985       53.165      -11.669       63.561       53.759       29.420     4040.042     2890.073      865.553        0.797        0.390       89.490       27.672        0.096      336.401        7.678      850.323
10/31/2014  23:32:00      -15.451      128.330        3.179       55.703       68.744       45.061     3102.846     4725.731     2030.493        1.329        0.493      129.257       46.129        0.127      336.361        7.610      850.326
10/31/2014  23:33:00      -52.561      142.518       -4.074       50.243       78.104       44.585     2524.329     6100.251     1987.793        1.685        0.531      151.901       40.860        0.072      336.340        7.576      850.341
10/31/2014  23:34:00      -26.847      122.651       -0.731       67.555      116.476       37.468     4563.722    13566.550     1403.854        1.765        0.977      125.554       40.325        0.103      336.293        7.497      850.353
10/31/2014  23:35:00     -112.465      139.950      -18.601       92.025       60.403       36.769     8468.578     3648.474     1351.945        2.302        0.673      179.539       30.547        0.029      336.262        7.443      850.347
10/31/2014  23:36:00      -66.683      183.558       -7.300       51.631       90.316       48.338     2665.801     8156.974     2336.595        2.567        0.658      195.295       49.475        0.064      336.257        7.435      850.342
10/31/2014  23:37:00      -85.404      142.667      -13.473       49.027       63.585       36.749     2403.670     4043.069     1350.499        1.781        0.390      166.276       24.037        0.021      336.290        7.491      850.340
10/31/2014  23:38:00      -72.460      173.816      -17.411       49.640       82.556       29.236     2464.172     6815.575      854.738        2.295        0.507      188.315       24.950        0.018      336.333        7.562      850.337
10/31/2014  23:39:00     -102.632      207.589      -21.932       54.685       80.717       37.943     2990.436     6515.237     1439.690        3.252        0.547      231.574       26.545        0.013      336.330        7.556      850.329
10/31/2014  23:40:00     -126.249       88.155      -24.554       76.575       92.897       48.240     5863.761     8629.800     2327.145        2.056        0.841      153.981       49.388        0.103      336.317        7.535      850.324
10/31/2014  23:41:00     -116.327      174.714      -26.325       60.590      103.790       38.242     3671.128    10772.283     1462.449        3.032        0.795      209.898       44.196        0.044      336.244        7.415      850.311
10/31/2014  23:42:00     -122.212      199.286      -37.438       71.477      121.263       45.358     5108.940    14704.816     2057.344        3.896        1.094      233.774       50.214        0.046      336.237        7.401      850.294
10/31/2014  23:43:00     -151.402      167.052      -25.987       71.963       92.645       45.012     5178.618     8583.015     2026.115        3.364        0.789      225.452       41.443        0.034      336.247        7.416      850.301
10/31/2014  23:44:00     -142.820      107.599      -31.809       61.424       80.264       36.327     3772.882     6442.368     1319.621        2.226        0.577      178.816       22.844        0.016      336.238        7.403      850.302
10/31/2014  23:45:00     -144.215      133.165      -17.139       56.326       61.343       37.458     3172.639     3763.010     1403.102        2.358        0.417      196.293       25.823        0.017      336.241        7.408      850.299
10/31/2014  23:46:00     -163.010      255.091      -35.784       91.295      100.900       55.774     8334.751    10180.803     3110.727        5.727        1.081      302.727       59.201        0.038      336.216        7.365      850.291
10/31/2014  23:47:00     -124.626      201.458      -28.919       76.148       85.835       52.010     5798.511     7367.612     2704.998        3.641        0.794      236.890       45.225        0.036      336.183        7.309      850.271
10/31/2014  23:48:00      -82.066      219.385      -17.358       59.326       79.150       39.305     3519.564     6264.766     1544.911        3.325        0.566      234.232       41.655        0.032      336.180        7.303      850.236
10/31/2014  23:49:00      -40.289      269.175      -15.022       58.964       98.667       45.321     3476.743     9735.265     2053.991        4.478        0.763      272.173       41.434        0.023      336.163        7.276      850.228
10/31/2014  23:50:00      -71.351      204.632      -15.507       62.670       72.581       35.698     3927.554     5267.972     1274.345        2.884        0.523      216.715       32.201        0.022      336.207        7.350      850.215
10/31/2014  23:51:00     -103.504      236.796      -32.020       71.399      139.438       44.853     5097.816    19443.033     2011.772        4.718        1.328      258.429       58.038        0.050      336.179        7.304      850.223
10/31/2014  23:52:00     -174.068      300.806      -45.375       88.609      126.364       51.783     7851.634    15967.981     2681.524        7.467        1.325      347.539       38.533        0.012      336.111        7.190      850.207
10/31/2014  23:53:00     -151.046      353.174      -44.667       79.280      121.226       52.352     6285.326    14695.858     2740.714        8.663        1.186      384.118       41.288        0.012      336.078        7.137      850.164
10/31/2014  23:54:00      -86.427      199.961      -30.264       64.095       79.217       47.061     4108.149     6275.276     2214.766        3.048        0.630      217.840       39.756        0.033      336.067        7.116      850.152
10/31/2014  23:55:00      -26.461      207.350      -16.097       46.771       55.065       31.731     2187.485     3032.132     1006.834        2.509        0.311      209.032       28.111        0.018      336.049        7.087      850.115
10/31/2014  23:56:00     -181.897      185.744      -48.155       74.440       91.071       44.040     5541.324     8293.893     1939.554        4.284        0.789      259.975       44.444        0.029      336.115        7.198      850.109
10/31/2014  23:57:00     -124.317      296.152      -31.818       93.759      153.593       52.363     8790.665    23590.674     2741.926        6.964        1.756      321.187       63.804        0.039      336.070        7.123      850.085
10/31/2014  23:58:00     -116.639      303.568      -32.639       61.914       78.732       46.635     3833.320     6198.761     2174.824        5.951        0.610      325.205       41.775        0.017      336.058        7.101      850.041
10/31/2014  23:59:00      -90.905      254.103      -29.584       69.248       79.056       36.705     4795.244     6249.924     1347.273        4.305        0.620      269.874       33.790        0.016      336.019        7.035      850.009
